[[{"header":{"parameterUnit":"m.s-1","parameterCategory":1,"la1":30.6,"la2":28.766,"lo1":-90.7593,"lo2":-88.6598,"dx":0.0162,"dy":0.0183,"nx":116,"ny":114,"refTime":"2023-01-07T06:00:00:Z","depth":0,"parameterNumber":2,"parameterNumberName":"U-component_of_WINDS"},"data":[0.0,0.0,0.0,0.0,0.0,0.0,0.0,0.0,0.0,0.0,0.0,0.0,0.0,0.0,0.0,0.0,0.0,0.0,0.0,0.0,0.0,0.0,0.0,0.0,0.0,0.0,0.0,0.0,0.0,0.0,0.0,0.0,0.0,0.0,0.0,0.0,0.0,0.0,0.0,0.0,0.0,0.0,0.0,0.0,0.0,0.0,0.0,0.0,0.0,0.0,0.0,0.0,0.0,0.0,0.0,0.0,0.0,0.0,0.0,0.0,0.0,0.0,0.0,0.0,0.0,0.0,0.0,0.0,0.0,0.0,0.0,0.0,0.0,0.0,0.0,0.0,0.0,0.0,0.0,0.0,0.0,0.0,0.0,0.0,0.0,0.0,0.0,0.0,0.0,0.0,0.0,0.0,0.0,0.0,0.0,0.0,0.0,0.0,0.0,0.0,0.0,0.0,0.0,0.0,0.0,0.0,0.0,0.0,0.0,0.0,0.0,0.0,0.0,0.0,0.0,0.0,0.0,0.0,0.0,0.0,0.0,0.0,0.0,0.0,0.0,0.0,0.0,0.0,0.0,0.0,0.0,0.0,0.0,0.0,0.0,0.0,0.0,0.0,0.0,0.0,0.0,0.0,0.0,0.0,0.0,0.0,0.0,0.0,0.0,0.0,0.0,0.0,0.0,0.0,0.0,0.0,0.0,0.0,0.0,0.0,0.0,0.0,0.0,0.0,0.0,0.0,0.0,0.0,0.0,0.0,0.0,0.0,0.0,0.0,0.0,0.0,0.0,0.0,0.0,0.0,0.0,0.0,0.0,0.0,0.0,0.0,0.0,0.0,0.0,0.0,0.0,0.0,0.0,0.0,0.0,0.0,0.0,0.0,0.0,0.0,0.0,0.0,0.0,0.0,0.0,0.0,0.0,0.0,0.0,0.0,0.0,0.0,0.0,0.0,0.0,0.0,0.0,0.0,0.0,0.0,0.0,0.0,0.0,0.0,0.0,0.0,0.0,0.0,0.0,0.0,0.0,0.0,0.0,0.0,0.0,0.0,0.0,0.0,0.0,0.0,0.0,0.0,0.0,0.0,0.0,0.0,0.0,0.0,0.0,0.0,0.0,0.0,0.0,0.0,0.0,0.0,0.0,0.0,0.0,0.0,0.0,0.0,0.0,0.0,0.0,0.0,0.0,0.0,0.0,0.0,0.0,0.0,0.0,0.0,0.0,0.0,0.0,0.0,0.0,0.0,0.0,0.0,0.0,0.0,0.0,0.0,0.0,0.0,0.0,0.0,0.0,0.0,0.0,0.0,0.0,0.0,0.0,0.0,0.0,0.0,0.0,0.0,0.0,0.0,0.0,0.0,0.0,0.0,0.0,0.0,0.0,0.0,0.0,0.0,0.0,0.0,0.0,0.0,0.0,0.0,0.0,0.0,0.0,0.0,0.0,0.0,0.0,0.0,0.0,0.0,0.0,0.0,0.0,0.0,0.0,0.0,0.0,0.0,0.0,0.0,0.0,0.0,0.0,0.0,0.0,0.0,0.0,0.0,0.0,0.0,0.0,0.0,0.0,0.0,0.0,0.0,0.0,0.0,0.0,0.0,0.0,0.0,0.0,0.0,0.0,0.0,0.0,0.0,0.0,0.0,0.0,0.0,0.0,0.0,0.0,0.0,0.0,0.0,0.0,0.0,0.0,0.0,0.0,0.0,0.0,0.0,0.0,0.0,0.0,0.0,0.0,0.0,0.0,0.0,0.0,0.0,0.0,0.0,0.0,0.0,0.0,0.0,0.0,0.0,0.0,0.0,0.0,0.0,0.0,0.0,0.0,0.0,0.0,0.0,0.0,0.0,0.0,0.0,0.0,0.0,0.0,0.0,0.0,0.0,0.0,0.0,0.0,0.0,0.0,0.0,0.0,0.0,0.0,0.0,0.0,0.0,0.0,0.0,0.0,0.0,0.0,0.0,0.0,0.0,0.0,0.0,0.0,0.0,0.0,0.0,0.0,0.0,0.0,0.0,0.0,0.0,0.0,0.0,0.0,0.0,0.0,0.0,0.0,0.0,0.0,0.0,0.0,0.0,0.0,0.0,0.0,0.0,0.0,0.0,0.0,0.0,0.0,0.0,0.0,0.0,0.0,0.0,0.0,0.0,0.0,0.0,0.0,0.0,0.0,0.0,0.0,0.0,0.0,0.0,0.0,0.0,0.0,0.0,0.0,0.0,0.0,0.0,0.0,0.0,0.0,0.0,0.0,0.0,0.0,0.0,0.0,0.0,0.0,0.0,0.0,0.0,0.0,0.0,0.0,0.0,0.0,0.0,0.0,0.0,0.0,0.0,0.0,0.0,0.0,0.0,0.0,0.0,0.0,0.0,0.0,0.0,0.0,0.0,0.0,0.0,0.0,0.0,0.0,0.0,0.0,0.0,0.0,0.0,0.0,0.0,0.0,0.0,0.0,0.0,0.0,0.0,0.0,0.0,0.0,0.0,0.0,0.0,0.0,0.0,0.0,0.0,0.0,0.0,0.0,0.0,0.0,0.0,0.0,0.0,0.0,0.0,0.0,0.0,0.0,0.0,0.0,0.0,0.0,0.0,0.0,0.0,0.0,0.0,0.0,0.0,0.0,0.0,0.0,0.0,0.0,0.0,0.0,0.0,0.0,0.0,0.0,0.0,0.0,0.0,0.0,0.0,0.0,0.0,0.0,0.0,0.0,0.0,0.0,0.0,0.0,0.0,0.0,0.0,0.0,0.0,0.0,0.0,0.0,0.0,0.0,0.0,0.0,0.0,0.0,0.0,0.0,0.0,0.0,0.0,0.0,0.0,0.0,0.0,0.0,0.0,0.0,0.0,0.0,0.0,0.0,0.0,0.0,0.0,0.0,0.0,0.0,0.0,0.0,0.0,0.0,0.0,0.0,0.0,0.0,0.0,0.0,0.0,0.0,0.0,0.0,0.0,0.0,0.0,0.0,0.0,0.0,0.0,0.0,0.0,0.0,0.0,0.0,0.0,0.0,0.0,0.0,0.0,0.0,0.0,0.0,0.0,0.0,0.0,0.0,0.0,0.0,0.0,0.0,0.0,0.0,0.0,0.0,0.0,0.0,0.0,0.0,0.0,0.0,0.0,0.0,0.0,0.0,0.0,0.0,0.0,0.0,0.0,0.0,0.0,0.0,0.0,0.0,0.0,0.0,0.0,0.0,0.0,0.0,0.0,0.0,0.0,0.0,0.0,0.0,0.0,0.0,0.0,0.0,0.0,0.0,0.0,0.0,0.0,0.0,0.0,0.0,0.0,0.0,0.0,0.0,0.0,0.0,0.0,0.0,0.0,0.0,0.0,0.0,0.0,0.0,0.0,0.0,0.0,0.0,0.0,0.0,0.0,0.0,0.0,0.0,0.0,0.0,0.0,0.0,0.0,0.0,0.0,0.0,0.0,0.0,0.0,0.0,0.0,0.0,0.0,0.0,0.0,0.0,0.0,0.0,0.0,0.0,0.0,0.0,0.0,0.0,0.0,0.0,0.0,0.0,0.0,0.0,0.0,0.0,0.0,0.0,0.0,0.0,0.0,0.0,0.0,0.0,0.0,0.0,0.0,0.0,0.0,0.0,0.0,0.0,0.0,0.0,0.0,0.0,0.0,0.0,0.0,0.0,0.0,0.0,0.0,0.0,0.0,0.0,0.0,0.0,0.0,0.0,0.0,0.0,0.0,0.0,0.0,0.0,0.0,0.0,0.0,0.0,0.0,0.0,0.0,0.0,0.0,0.0,0.0,0.0,0.0,0.0,0.0,0.0,0.0,0.0,0.0,0.0,0.0,0.0,0.0,0.0,0.0,0.0,0.0,0.0,0.0,0.0,0.0,0.0,0.0,0.0,0.0,0.0,0.0,0.0,0.0,0.0,0.0,0.0,0.0,0.0,0.0,0.0,0.0,0.0,0.0,0.0,0.0,0.0,0.0,0.0,0.0,0.0,0.0,0.0,0.0,0.0,0.0,0.0,0.0,0.0,0.0,0.0,0.0,0.0,0.0,0.0,0.0,0.0,0.0,0.0,0.0,0.0,0.0,0.0,0.0,0.0,0.0,0.0,0.0,0.0,0.0,0.0,0.0,0.0,0.0,0.0,0.0,0.0,0.0,0.0,0.0,0.0,0.0,0.0,0.0,0.0,0.0,0.0,0.0,0.0,0.0,0.0,0.0,0.0,0.0,0.0,0.0,0.0,0.0,0.0,0.0,0.0,0.0,0.0,0.0,0.0,0.0,0.0,0.0,0.0,0.0,0.0,0.0,0.0,0.0,0.0,0.0,0.0,0.0,0.0,0.0,0.0,0.0,0.0,0.0,0.0,0.0,0.0,0.0,0.0,0.0,0.0,0.0,0.0,0.0,0.0,0.0,0.0,0.0,0.0,0.0,0.0,0.0,0.0,0.0,0.0,0.0,0.0,0.0,0.0,0.0,0.0,0.0,0.0,0.0,0.0,0.0,0.0,0.0,0.0,0.0,0.0,0.0,0.0,0.0,0.0,0.0,0.0,0.0,0.0,0.0,0.0,0.0,0.0,0.0,0.0,0.0,0.0,0.0,0.0,0.0,0.0,0.0,0.0,0.0,0.0,0.0,0.0,0.0,0.0,0.0,0.0,0.0,0.0,0.0,0.0,0.0,0.0,0.0,0.0,0.0,0.0,0.0,0.0,0.0,0.0,0.0,0.0,0.0,0.0,0.0,0.0,0.0,0.0,0.0,0.0,0.0,0.0,0.0,0.0,0.0,0.0,0.0,0.0,0.0,0.0,0.0,0.0,0.0,0.0,0.0,0.0,0.0,0.0,0.0,0.0,0.0,0.0,0.0,0.0,0.0,0.0,0.0,0.0,0.0,0.0,0.0,0.0,0.0,0.0,0.0,0.0,0.0,0.0,0.0,0.0,0.0,0.0,0.0,0.0,0.0,0.0,0.0,0.0,0.0,0.0,0.0,0.0,0.0,0.0,0.0,0.0,0.0,0.0,0.0,0.0,0.0,0.0,0.0,0.0,0.0,0.0,0.0,0.0,0.0,0.0,0.0,0.0,0.0,0.0,0.0,0.0,0.0,0.0,0.0,0.0,0.0,0.0,0.0,0.0,0.0,0.0,0.0,0.0,0.0,0.0,0.0,0.0,0.0,0.0,0.0,0.0,0.0,0.0,0.0,0.0,0.0,0.0,0.0,0.0,0.0,0.0,0.0,0.0,0.0,0.0,0.0,0.0,0.0,0.0,0.0,0.0,0.0,0.0,0.0,0.0,0.0,0.0,0.0,0.0,0.0,0.0,0.0,0.0,0.0,0.0,0.0,0.0,0.0,0.0,0.0,0.0,0.0,0.0,0.0,0.0,0.0,0.0,0.0,0.0,0.0,0.0,0.0,0.0,0.0,0.0,0.0,0.0,0.0,0.0,0.0,0.0,0.0,0.0,0.0,0.0,0.0,0.0,0.0,0.0,0.0,0.0,0.0,0.0,0.0,0.0,0.0,0.0,0.0,0.0,0.0,0.0,0.0,0.0,0.0,0.0,0.0,0.0,0.0,0.0,0.0,0.0,0.0,0.0,0.0,0.0,0.0,0.0,0.0,0.0,0.0,0.0,0.0,0.0,0.0,0.0,0.0,0.0,0.0,0.0,0.0,0.0,0.0,0.0,0.0,0.0,0.0,0.0,0.0,0.0,0.0,0.0,0.0,0.0,0.0,0.0,0.0,0.0,0.0,0.0,0.0,0.0,0.0,0.0,0.0,0.0,0.0,0.0,0.0,0.0,0.0,0.0,0.0,0.0,0.0,0.0,0.0,0.0,0.0,0.0,0.0,0.0,0.0,0.0,0.0,0.0,0.0,0.0,0.0,0.0,0.0,0.0,0.0,0.0,0.0,0.0,0.0,0.0,0.0,0.0,0.0,0.0,0.0,0.0,0.0,0.0,0.0,0.0,0.0,0.0,0.0,0.0,0.0,0.0,0.0,0.0,0.0,0.0,0.0,0.0,0.0,0.0,0.0,0.0,0.0,0.0,0.0,0.0,0.0,0.0,0.0,0.0,0.0,0.0,0.0,0.0,0.0,0.0,0.0,0.0,0.0,0.0,0.0,0.0,0.0,0.0,0.0,-1.5392,0.0,0.0,0.0,0.0,0.0,0.0,0.0,0.0,0.0,0.0,0.0,0.0,0.0,0.0,0.0,0.0,0.0,0.0,0.0,0.0,0.0,0.0,0.0,0.0,0.0,0.0,0.0,0.0,0.0,0.0,0.0,0.0,0.0,0.0,0.0,0.0,0.0,-1.4599,-1.5275,-1.7222,-1.9121,-2.0987,-2.0617,-1.9139,-1.6697,0.0,0.0,0.0,0.0,0.0,0.0,0.0,0.0,0.0,0.0,0.0,0.0,0.0,0.0,0.0,0.0,0.0,0.0,0.0,0.0,0.0,0.0,0.0,0.0,0.0,0.0,0.0,0.0,0.0,0.0,0.0,0.0,0.0,0.0,0.0,0.0,0.0,0.0,0.0,0.0,0.0,0.0,0.0,0.0,0.0,0.0,0.0,0.0,0.0,0.0,0.0,0.0,0.0,0.0,0.0,0.0,0.0,0.0,0.0,0.0,0.0,0.0,0.0,0.0,0.0,0.0,0.0,0.0,0.0,0.0,0.0,-1.6341,0.0,0.0,0.0,0.0,0.0,0.0,0.0,0.0,0.0,0.0,0.0,0.0,0.0,0.0,0.0,0.0,0.0,0.0,0.0,0.0,0.0,0.0,0.0,-1.4659,-1.4822,-1.4398,-1.4498,-1.4418,0.0,0.0,0.0,0.0,0.0,0.0,-1.4154,-1.5335,-1.6233,-1.6848,-2.0109,-2.3251,-2.6153,-2.6692,-2.4328,-1.9582,-1.9223,0.0,0.0,0.0,0.0,0.0,0.0,0.0,0.0,0.0,0.0,0.0,0.0,0.0,0.0,0.0,0.0,0.0,0.0,0.0,0.0,0.0,0.0,0.0,0.0,0.0,0.0,0.0,0.0,0.0,0.0,0.0,0.0,0.0,0.0,0.0,0.0,0.0,0.0,0.0,0.0,0.0,0.0,0.0,0.0,0.0,0.0,0.0,0.0,0.0,0.0,0.0,0.0,0.0,0.0,0.0,0.0,0.0,0.0,0.0,0.0,0.0,0.0,0.0,-2.1408,-2.1947,-2.2455,-2.2669,-2.2723,-2.2643,-2.1099,-1.9279,-1.7403,-1.7001,0.0,0.0,0.0,0.0,0.0,0.0,0.0,0.0,0.0,0.0,0.0,0.0,0.0,0.0,0.0,0.0,0.0,0.0,0.0,0.0,0.0,-1.5638,-1.5794,-1.5123,-1.5689,-1.5708,-1.4733,0.0,0.0,0.0,0.0,-1.4946,-1.5515,-1.6234,-1.7997,-2.0917,-2.4208,-2.6632,-2.8218,-2.8278,-2.7919,-2.7081,-2.5345,-2.3251,-2.0946,0.0,0.0,0.0,0.0,0.0,0.0,0.0,0.0,0.0,0.0,0.0,0.0,0.0,0.0,0.0,0.0,0.0,0.0,0.0,0.0,0.0,0.0,0.0,0.0,0.0,0.0,0.0,0.0,0.0,0.0,0.0,0.0,0.0,0.0,0.0,0.0,0.0,0.0,0.0,0.0,0.0,-1.9912,-1.8495,0.0,0.0,0.0,0.0,0.0,0.0,0.0,0.0,0.0,0.0,0.0,0.0,0.0,-2.0125,-2.0854,-2.1296,-2.1693,-2.2062,-2.26,-2.293,-2.3031,-2.4019,-2.4475,-2.4475,-2.4216,0.0,-1.9795,-1.7903,0.0,0.0,0.0,0.0,0.0,0.0,0.0,0.0,0.0,0.0,0.0,0.0,0.0,0.0,0.0,0.0,0.0,0.0,0.0,0.0,0.0,-1.8156,-1.9189,-1.8656,-1.9749,-1.9801,-1.824,-1.8134,0.0,0.0,-1.6263,-1.6578,-1.6847,-1.8972,-2.2443,-2.7205,-2.864,-3.0642,-3.3036,-3.3036,-3.3036,-3.3006,-3.2108,-2.9235,-2.4859,-2.2433,0.0,0.0,0.0,0.0,0.0,0.0,0.0,0.0,0.0,0.0,0.0,0.0,0.0,0.0,0.0,0.0,0.0,0.0,0.0,0.0,0.0,0.0,0.0,0.0,0.0,0.0,0.0,0.0,0.0,0.0,0.0,0.0,0.0,0.0,0.0,0.0,0.0,0.0,0.0,-1.816,-1.8876,-1.7881,-1.833,-1.8324,0.0,0.0,0.0,0.0,0.0,0.0,0.0,0.0,0.0,-1.9686,-2.1378,-2.23,-2.239,-2.3464,-2.4034,-2.4147,-2.4734,-2.5159,-2.5485,-2.5988,-2.6214,-2.6189,-2.5887,-2.4811,-2.3134,-2.0962,-1.971,-1.902,0.0,0.0,0.0,0.0,-1.5999,-1.5999,0.0,0.0,0.0,0.0,0.0,0.0,0.0,0.0,0.0,0.0,0.0,0.0,-1.8737,-2.1481,-2.3141,-2.2726,-2.3824,-2.361,-2.1353,-2.1042,-1.9971,-1.7818,-1.7878,-1.8027,-1.8207,-2.2143,-2.6692,-3.175,-3.2587,-3.444,-3.7255,-3.7404,-3.7494,-3.7494,-3.7494,-3.4173,-2.8427,-2.5974,-2.438,-2.3152,0.0,0.0,0.0,0.0,0.0,0.0,0.0,0.0,0.0,0.0,0.0,0.0,0.0,0.0,0.0,0.0,0.0,0.0,0.0,0.0,0.0,0.0,0.0,0.0,0.0,0.0,0.0,0.0,0.0,0.0,0.0,0.0,0.0,0.0,0.0,0.0,0.0,-1.8163,-1.8822,-1.7885,-1.8804,-1.9226,0.0,0.0,0.0,0.0,0.0,0.0,-1.9584,-2.1218,-2.2144,-2.215,-2.3869,-2.4603,-2.418,-2.5537,-2.6257,-2.6239,-2.67,-2.7128,-2.7494,-2.7494,-2.7494,-2.7469,-2.7102,-2.664,-2.6038,-2.3552,-2.2046,-2.1192,-2.0087,-1.9635,-1.9584,-1.9183,-1.9032,-1.9008,0.0,0.0,0.0,0.0,0.0,0.0,0.0,0.0,0.0,0.0,0.0,-2.142,-2.2503,-2.5547,-2.7217,-2.6482,-2.684,-2.5834,-2.2815,-2.2014,-2.0468,-1.7818,-1.8296,-1.8942,-1.9588,-2.5315,-2.9684,-3.2437,-3.5579,-3.7853,-3.9254,-3.9918,-4.0187,-4.0187,-4.0187,-3.6896,-3.1301,-3.1122,-2.888,-2.5285,-2.3242,0.0,0.0,0.0,0.0,0.0,0.0,0.0,0.0,0.0,0.0,0.0,0.0,0.0,0.0,0.0,0.0,0.0,0.0,0.0,0.0,0.0,0.0,0.0,0.0,0.0,0.0,0.0,0.0,0.0,0.0,0.0,0.0,0.0,0.0,0.0,0.0,0.0,0.0,-1.9913,-2.0669,0.0,0.0,0.0,0.0,-2.1197,-2.1295,-2.1345,-2.1368,-2.2954,-2.3884,-2.3879,-2.5509,-2.6618,-2.7067,-2.7188,-2.7454,-2.7971,-2.8021,-2.8047,-2.8072,-2.8072,-2.8072,-2.8072,-2.8021,-2.7996,-2.772,-2.4399,-2.302,-2.2869,-2.1794,-2.1368,-2.1368,-2.1343,-2.1317,-2.1206,0.0,0.0,0.0,-1.3413,-1.3413,-1.354,-1.4039,-1.4749,-1.5731,-1.7219,-2.0446,-2.2941,-2.3814,-2.8029,-3.0443,-2.9666,-3.1103,-3.0845,-2.7917,-2.632,-2.4477,-2.2243,-2.1186,-2.2323,-2.5997,-2.9385,-3.3005,-3.6956,-3.8123,-3.9379,-4.0696,-4.0935,-4.1025,-4.1025,-4.1025,-3.9619,-3.7075,-3.4502,-3.2138,-2.9806,-2.744,-2.4537,0.0,0.0,0.0,0.0,0.0,0.0,0.0,0.0,0.0,0.0,0.0,0.0,0.0,0.0,0.0,0.0,0.0,0.0,0.0,0.0,0.0,0.0,0.0,0.0,0.0,0.0,0.0,0.0,0.0,0.0,0.0,0.0,0.0,0.0,0.0,0.0,0.0,-2.0941,-2.187,0.0,-2.0991,-2.0891,-2.1192,-2.197,-2.2698,-2.3401,-2.4104,-2.5385,-2.6264,-2.664,-2.6866,-2.7243,-2.7821,-2.7821,-2.8097,-2.8612,-2.9026,-2.9202,-2.9202,-2.9202,-2.9202,-2.9176,-2.88,-2.8587,-2.8524,-2.6932,-2.5912,-2.5209,-2.4431,-2.3929,-2.3627,-2.3627,-2.3853,-2.4004,0.0,0.0,0.0,-1.3413,-1.3608,-1.3938,-1.4436,-1.5552,-1.705,-1.9068,-2.255,-2.5541,-2.73,-3.1299,-3.367,-3.3111,-3.4275,-3.355,-3.0084,-2.8432,-2.6417,-2.3738,-2.346,-2.5734,-3.0819,-3.2856,-3.5669,-3.9373,-4.0098,-4.0846,-4.1752,-4.1953,-4.2043,-4.2043,-4.2043,-4.1683,-4.0876,-3.8277,-3.5998,-3.3903,-3.1061,-2.7829,-2.45,0.0,0.0,0.0,0.0,0.0,0.0,0.0,0.0,0.0,0.0,0.0,0.0,0.0,0.0,0.0,0.0,0.0,0.0,0.0,0.0,0.0,0.0,0.0,0.0,0.0,0.0,0.0,0.0,0.0,0.0,0.0,0.0,0.0,0.0,-2.0464,-2.1644,-2.1995,-2.2995,-2.3552,-2.3231,-2.3206,-2.3477,-2.4205,-2.4958,-2.5686,-2.6414,-2.7318,-2.7996,-2.8373,-2.8222,-2.8298,-2.8674,-2.8674,-2.885,-2.9227,-2.9603,-2.9804,-2.9804,-2.9804,-2.9804,-2.9779,-2.9377,-2.9189,-2.9202,-2.8825,-2.8122,-2.7243,-2.6666,-2.6239,-2.5904,-2.5904,-2.6138,-2.6233,0.0,0.0,-1.3413,-1.3413,-1.4005,-1.4504,-1.4537,-1.6397,-1.8899,-2.1941,-2.5525,-2.9244,-3.2983,-3.5453,-3.676,-3.6708,-3.6093,-3.3752,-2.9066,-2.8105,-2.5967,-2.2084,-2.5076,-2.8966,-3.3484,-3.5549,-3.7554,-3.9499,-4.1482,-4.241,-4.244,-4.303,-4.329,-4.329,-4.329,-4.3,-4.244,-4.241,-4.0554,-3.7285,-3.4023,-3.112,-2.8338,0.0,0.0,0.0,0.0,0.0,0.0,0.0,0.0,0.0,0.0,0.0,0.0,0.0,0.0,0.0,0.0,0.0,0.0,0.0,0.0,0.0,0.0,0.0,0.0,0.0,0.0,0.0,0.0,0.0,0.0,0.0,0.0,0.0,-1.9183,-2.149,-2.317,-2.3246,-2.4224,-2.5335,-2.6449,-2.6549,-2.7002,-2.8047,-2.8122,-2.8147,-2.8147,-2.8674,-2.8913,-2.8913,-2.9503,-2.9804,-2.9804,-2.9804,-2.9804,-2.9804,-2.9804,-2.9804,-2.9804,-2.9804,-2.9804,-2.9804,-2.9804,-2.9804,-2.9804,-2.9804,-2.9478,-2.8863,-2.8348,-2.8122,-2.8097,-2.8097,-2.8085,-2.7792,-1.3413,-1.3413,-1.3413,-1.3413,-1.4005,-1.4673,-1.5223,-1.6701,-1.9068,-2.2632,-2.5829,-2.9244,-3.2983,-3.5389,-3.6715,-3.6685,-3.6498,-3.5174,-3.2335,-3.0603,-2.8816,-2.6782,-3.034,-3.3395,-3.5609,-3.7614,-3.9589,-4.1602,-4.2141,-4.265,-4.306,-4.32,-4.329,-4.329,-4.329,-4.32,-4.303,-4.262,-4.1871,-4.0823,-3.8452,-3.537,-3.19,0.0,0.0,0.0,0.0,0.0,0.0,0.0,0.0,0.0,0.0,0.0,0.0,0.0,0.0,0.0,0.0,0.0,0.0,0.0,0.0,0.0,0.0,0.0,0.0,0.0,0.0,0.0,0.0,0.0,0.0,0.0,-2.1265,-2.3195,-2.3195,-2.3847,-2.4926,-2.654,-2.7017,-2.7318,-2.762,-2.7645,-2.7946,-2.8612,-2.8662,-2.8875,-2.9302,-2.9478,-2.9553,-2.9553,-2.9704,-2.9804,-2.9804,-2.9804,-2.9804,-2.9804,-2.9804,-2.9804,-2.9804,-2.9804,-2.9804,-2.9804,-2.9804,-2.9804,-2.9804,-2.9804,-2.9704,-2.9503,-2.8925,-2.8448,-2.8097,-2.8097,-2.7841,-2.7387,-1.3413,-1.3413,-1.3413,-1.3413,-1.4285,-1.5122,-1.5528,-1.7377,-2.0183,-2.4255,-2.6826,-3.0108,-3.4776,-3.6122,-3.6822,-3.7146,-3.6079,-3.4478,-3.2377,-3.0642,-3.0372,-3.1839,-3.4114,-3.636,-3.8482,-3.9918,-4.1205,-4.241,-4.2641,-4.297,-4.329,-4.329,-4.329,-4.329,-4.329,-4.329,-4.326,-4.294,-4.265,-4.2291,-4.1115,-3.8123,-3.414,-3.2336,-2.9665,-2.6637,-2.5344,-2.3771,-2.2205,-2.1676,0.0,0.0,0.0,0.0,0.0,0.0,0.0,0.0,0.0,0.0,0.0,0.0,0.0,0.0,0.0,0.0,0.0,0.0,0.0,0.0,0.0,0.0,0.0,0.0,-2.302,-2.5202,-2.6355,-2.6305,-2.6766,-2.8273,-2.8448,-2.8549,-2.88,-2.8825,-2.895,-2.9277,-2.9503,-2.9779,-3.0131,-3.0357,-3.0457,-3.0457,-3.0457,-3.0457,-3.0457,-3.0457,-3.0457,-3.0457,-3.0457,-3.0357,-3.0131,-3.0131,-3.0005,-2.9804,-2.9804,-2.9546,-2.9106,-2.9106,-2.8831,0.0,0.0,0.0,0.0,0.0,-2.7238,-2.6846,-1.3413,-1.3413,-1.3447,-1.3515,-1.4691,-1.5629,-1.5697,-1.8155,-2.1637,-2.6218,-2.8096,-3.1278,-3.7246,-3.7178,-3.6953,-3.7623,-3.5254,-3.2813,-3.0758,-2.9924,-3.1599,-3.6387,-3.6806,-3.8362,-4.1452,-4.2111,-4.244,-4.25,-4.306,-4.329,-4.329,-4.329,-4.329,-4.329,-4.329,-4.329,-4.329,-4.329,-4.3,-4.25,-4.2351,-3.9805,-3.5816,-3.3779,-3.0625,-2.713,-2.5799,-2.4346,-2.3,-2.2816,0.0,0.0,0.0,0.0,0.0,0.0,0.0,0.0,0.0,0.0,0.0,0.0,0.0,0.0,0.0,0.0,0.0,0.0,0.0,0.0,0.0,0.0,0.0,0.0,-2.4349,-2.6129,-2.8637,-2.8612,-2.8549,-2.8938,-2.8988,-2.9252,-2.9829,-2.988,-2.9905,-2.998,-3.0432,-3.0708,-3.0708,-3.1135,0.0,0.0,0.0,-3.1386,-3.1386,-3.1386,-3.1386,-3.1386,-3.1386,-3.116,-3.0708,-3.0708,-3.0432,-2.998,-2.9905,-2.9244,-2.8179,-2.8108,-2.7481,-2.673,-2.8791,-2.891,-2.7804,-2.6994,-2.6607,-2.6359,-1.3413,-1.3413,-1.3574,-1.4165,-1.502,-1.5808,-1.6384,-1.8493,-2.184,-2.6911,-2.8416,-3.1278,-3.7246,-3.7178,-3.6757,-3.689,-3.4942,-3.3029,-3.1419,-3.3604,-3.5639,-3.7165,-3.8781,-4.0427,-4.2171,-4.2321,-4.2611,-4.315,-4.323,-4.329,-4.329,-4.329,-4.329,-4.329,-4.329,-4.329,-4.329,-4.329,-4.323,-4.306,-4.1983,-4.0726,-3.9218,-3.6986,-3.4847,-3.2755,-3.0874,-2.9114,-2.74,-2.5869,-2.4823,-2.3847,-2.2167,-2.0362,0.0,0.0,0.0,0.0,0.0,0.0,0.0,0.0,0.0,0.0,0.0,0.0,0.0,0.0,0.0,0.0,0.0,0.0,0.0,-2.3678,-2.6205,-2.8436,-2.9478,-2.9905,-3.0005,-2.9679,-2.9628,-2.9854,-3.0407,-3.0457,-3.0633,-3.106,-3.1185,-3.1235,-3.1235,-3.1336,-3.1386,-3.1386,-3.1386,-3.1386,-3.1386,-3.1386,-3.1386,-3.1386,0.0,0.0,-3.1235,-3.1235,-3.1185,-3.106,-3.0633,-2.981,-2.8719,-2.8274,-2.7481,-2.6648,-2.7907,-2.7787,-2.6894,-2.7562,-2.7238,-2.6359,-1.4515,-1.4217,-1.4073,-1.4436,-1.5426,-1.6282,-1.6631,-1.8572,-2.1366,-2.5119,-2.659,-2.8991,-3.3525,-3.3283,-3.3006,-3.3502,-3.2648,-3.1936,-3.1539,-3.4322,-3.7015,-3.929,-4.0367,-4.1504,-4.2821,-4.2851,-4.3,-4.329,-4.329,-4.329,-4.329,-4.329,-4.329,-4.329,-4.329,-4.329,-4.329,-4.329,-4.329,-4.323,-4.2611,-4.1773,-4.0621,-3.7907,-3.5414,-3.3101,-3.1838,-3.0304,-2.8762,-2.7822,-2.6867,-2.5812,-2.4406,-2.2824,-2.1242,0.0,0.0,0.0,0.0,0.0,0.0,0.0,0.0,0.0,0.0,0.0,0.0,0.0,0.0,-2.0813,-2.1418,0.0,-2.4983,-2.5561,-2.772,-2.9553,-3.0131,-3.0658,-3.0909,-3.0633,-3.0583,-3.0708,-3.0984,-3.1009,-3.111,-3.1361,-3.1637,-3.1813,-3.1813,-3.2089,-3.224,-3.224,-3.224,-3.224,-3.224,-3.224,-3.224,-3.224,-3.224,-3.2089,-3.1813,-3.1813,-3.1662,-3.1386,-3.111,-3.0,-2.828,-2.6641,-2.5508,-2.4893,-2.6025,-2.6108,-2.563,-2.563,-2.5252,-2.4723,-1.5731,-1.5261,-1.4943,-1.4943,-1.591,-1.6766,-1.6891,-1.8662,-2.0859,-2.3308,-2.4763,-2.6759,-2.9751,-2.9503,-2.9314,-2.9781,-3.0566,-3.1146,-3.1481,-3.4382,-3.7644,-4.1235,-4.1422,-4.1983,-4.326,-4.329,-4.329,-4.329,-4.329,-4.329,-4.329,-4.329,-4.329,-4.329,-4.329,-4.329,-4.329,-4.329,-4.329,-4.326,-4.3021,-4.1989,-4.033,-3.7564,-3.4863,-3.2384,-3.1505,-3.0143,-2.8737,-2.8737,-2.8097,-2.7178,-2.6339,-2.5259,-2.3728,-2.084,-2.0639,0.0,0.0,0.0,0.0,0.0,0.0,0.0,0.0,-2.0464,-2.0991,-2.2347,-2.3045,-2.3597,-2.4205,-2.5695,-2.7002,-2.7519,-2.9001,-3.0306,-3.0859,-3.1286,-3.1587,-3.1712,-3.1512,-3.1436,-3.1537,-3.1537,-3.1587,-3.1712,-3.2139,-3.2365,-3.2365,-3.2817,-3.3111,-3.3111,-3.3111,-3.3111,-3.3111,-3.3111,-3.3111,-3.3111,-3.3111,-3.2842,-3.2365,-3.2365,-3.2139,-3.1712,-3.1133,-2.9748,-2.7677,-2.5015,-2.3652,-2.335,-2.4268,-2.4529,-2.4382,-2.3671,-2.3299,-2.3101,-1.5947,-1.6223,-1.6451,-1.6451,-1.6597,-1.6925,-1.7591,-1.9,-2.1062,-2.4,-2.5101,-2.6759,-2.9751,-3.0032,-2.9376,-2.7867,-3.0913,-3.2484,-3.1569,-3.5639,-3.905,-4.1294,-4.1422,-4.1983,-4.326,-4.329,-4.329,-4.329,-4.329,-4.329,-4.329,-4.329,-4.329,-4.329,-4.329,-4.329,-4.329,-4.329,-4.329,-4.32,-4.2073,-4.0091,-3.7686,-3.6136,-3.5055,-3.4046,-3.1937,-2.9921,-2.8197,-2.8197,-2.7795,-2.7344,-2.772,-2.6716,-2.5159,-2.3828,-2.2171,-2.039,-1.853,-1.8982,-1.9962,-1.9836,-2.0916,-2.202,0.0,-2.2799,-2.3577,-2.3778,-2.4255,-2.4782,-2.531,-2.6791,-2.8097,-2.8612,-3.0131,-3.1411,-3.1964,-3.2089,-3.2315,-3.2842,-3.1989,-3.1587,-3.2064,-3.2114,-3.234,-3.2842,-3.2943,-3.2993,-3.2993,-3.3043,-3.3111,-3.3111,-3.3111,-3.3111,-3.3111,-3.3111,-3.3111,-3.3111,-3.3111,-3.3043,-3.2993,-3.2993,-3.2943,-3.2782,-3.0232,-2.8651,-2.7699,-2.534,-2.4102,-2.3711,-2.3845,-2.3654,-2.3387,-2.4296,-2.3973,-2.3101,-1.7304,-1.7319,-1.7354,-1.7354,-1.7354,-1.7456,-1.7749,-1.9068,-2.0454,-2.1718,-2.2922,-2.4139,-2.5423,-2.5665,-2.5424,-2.4673,-2.8467,-3.0823,-3.0755,-3.52,-3.8542,-4.0157,-4.0606,-4.1414,-4.2731,-4.2761,-4.294,-4.329,-4.329,-4.329,-4.329,-4.329,-4.329,-4.329,-4.329,-4.329,-4.326,-4.294,-4.2761,-4.2641,-4.1354,-3.9589,-3.7565,-3.5997,-3.4481,-3.2869,-3.0303,-2.9011,0.0,-2.8455,-2.771,-2.7157,-2.8862,-2.7685,-2.531,-2.3873,-2.2824,-2.2096,-2.2042,-2.1866,-2.1942,-2.2924,-2.3954,-2.4764,-2.4764,-2.5116,-2.5711,-2.6666,-2.7318,-2.7871,-2.8423,-2.9352,-3.008,-3.0331,-3.121,-3.1938,-3.219,-3.2516,-3.2817,-3.3043,-3.2667,-3.2466,-3.2692,-3.2717,-3.2817,-3.3068,-3.3111,-3.3111,-3.3111,-3.3111,-3.3111,-3.3111,-3.3111,-3.3111,-3.3111,-3.3111,-3.3111,-3.3068,-3.2326,-3.237,-3.3068,-3.2326,-3.237,-3.2982,-3.1053,-2.955,-2.8277,-2.6547,-2.5157,-2.416,-2.416,-2.3887,-2.3521,-2.3727,-2.3517,-2.3101,-1.8368,-1.8035,-1.7783,-1.7783,-1.7783,-1.7783,-1.7783,-1.8865,-1.9778,-1.9968,-2.1164,-2.2076,-2.2279,-2.2427,-2.2548,-2.2587,-2.6039,-2.8766,-3.0098,-3.4001,-3.7181,-3.932,-3.9888,-4.0756,-4.2111,-4.2141,-4.2312,-4.2791,-4.2791,-4.288,-4.306,-4.306,-4.311,-4.329,-4.315,-4.297,-4.2761,-4.2102,-4.1752,-4.1444,-4.0307,-3.89,-3.7275,-3.5836,-3.3891,-3.1577,-2.8999,-2.7982,-2.7811,-2.7497,-2.6565,-2.5895,-2.7989,-2.7122,-2.5059,-2.3371,-2.2669,-2.2719,-2.3973,-2.3948,-2.3973,-2.5661,-2.6751,-2.7454,-2.7605,-2.763,-2.7946,-2.9151,-2.9603,-2.9905,-3.0306,-3.0809,-3.1235,-3.1361,-3.1863,-3.2265,-3.2416,-3.2817,-3.3111,-3.3111,-3.3111,-3.3111,-3.3111,-3.3111,-3.3111,-3.3111,-3.3111,-3.3111,-3.3111,-3.3111,-3.3111,-3.3111,-3.3111,-3.3111,-3.3111,-3.3111,-3.3111,-3.3068,-3.1821,-3.1689,-3.2568,-3.1645,-3.1512,-3.2021,-3.1089,-2.9827,-2.836,-2.7075,-2.5805,-2.459,-2.459,-2.4336,-2.3906,-2.3477,-2.3198,-2.3101,-1.8603,-1.8173,-1.7783,-1.7783,-1.7783,-1.7783,-1.7783,-1.8437,-1.9181,-1.99,-2.0703,-2.1495,-2.2212,-2.2299,-2.2396,-2.2586,-2.4528,-2.6978,-2.9997,-3.216,-3.5123,-3.923,-3.9403,-4.0068,-4.1422,-4.1452,-4.1452,-4.1482,-4.1482,-4.1811,-4.244,-4.244,-4.2731,-4.326,-4.2671,-4.2081,-4.1384,-4.0726,-4.0098,-3.9439,-3.8751,-3.7511,-3.5956,-3.5286,-3.3398,-3.0857,-2.8837,-2.7042,-2.5552,-2.4463,-2.3703,-2.3321,-2.3985,-2.4456,-2.4474,-2.2824,-2.1568,-2.1119,-2.2719,-2.3923,-2.5126,-2.6816,-2.8473,-2.9829,-3.0357,-3.0482,-3.0507,-3.0557,-3.0156,-2.9804,-2.9804,-3.0256,-3.0809,-3.1311,-3.1863,-3.2416,-3.2968,-3.3111,-3.3111,-3.3111,-3.3111,-3.3111,0.0,-3.3111,-3.3111,-3.3111,-3.3111,-3.3111,-3.3111,-3.3111,-3.3111,-3.3111,-3.3111,-3.3111,-3.3111,-3.3111,-3.3111,-3.3068,-3.1821,-3.1223,-3.1267,-3.1223,-3.0574,-2.9487,-2.9442,-2.8751,-2.751,-2.6264,-2.5497,-2.5106,-2.5106,-2.4785,-2.4355,-2.3926,-2.3496,-2.3101,-1.8388,-1.8057,-1.7783,-1.7783,-1.7783,-1.7952,-1.8471,-1.8741,-1.9147,-1.99,-2.113,0.0,0.0,0.0,0.0,0.0,-2.436,-2.5889,-2.6657,-3.1205,-3.4191,-3.4803,-3.743,-3.9009,-3.9415,-3.9858,-4.0277,-4.0726,-4.1175,-4.1542,-4.1752,-4.1752,-4.1594,-4.1384,-4.1145,-4.0696,-4.0038,-3.9349,-3.8931,-3.8601,-3.7075,-3.603,-3.5056,-3.2557,-3.074,-2.9097,0.0,-2.4904,-2.4901,-2.4175,-2.3597,-2.3428,-2.4566,-2.4398,-2.3489,-2.1734,-2.1744,-2.2598,-2.3873,-2.5335,-2.6866,-2.8524,-2.9654,-3.0382,-3.0583,-3.0608,-3.0507,-3.0156,-2.9628,-2.9189,-2.9189,-2.9679,-3.0131,-3.0306,-3.1386,-3.229,-3.2466,-3.2842,-3.3111,-3.3111,-3.3111,0.0,0.0,0.0,0.0,-3.3111,-3.3111,-3.3111,-3.3111,-3.3111,-3.3111,-3.3111,-3.3111,-3.3111,-3.3111,-3.3111,-3.3111,-3.3068,-3.1821,-3.035,-2.8819,-2.9624,-2.9761,-2.9396,-2.9396,-2.8727,-2.76,-2.7125,-2.6396,-2.5508,-2.5508,-2.5234,-2.4824,-2.4687,-2.4355,-2.3861,-1.8418,-1.8142,-1.7905,-1.7839,-1.802,0.0,0.0,0.0,0.0,0.0,0.0,0.0,0.0,0.0,0.0,0.0,0.0,-2.4646,-2.5118,-2.8946,-3.1319,-3.1561,-3.4316,-3.5861,-3.584,-3.6534,-3.7007,-3.7225,-3.8362,-3.905,-3.929,-3.9978,-4.0098,-3.9679,-3.9439,-3.8841,-3.7973,-3.7285,-3.6866,-3.6477,-3.4771,-3.3797,-3.3109,-3.0452,-2.8512,0.0,-2.4502,-2.3364,-2.2884,-2.2352,-2.1974,-2.1925,-2.2846,-2.2761,-2.2253,-2.1708,-2.2447,-2.3822,-2.5728,-2.7067,-2.8323,-3.0181,-3.0783,-3.0934,-3.1135,-3.0884,-3.0507,-3.0156,-2.9302,-2.8587,-2.8587,-2.8624,-2.8674,-2.8875,-2.993,-3.0959,-3.1562,-3.2114,-3.2616,-3.3061,-3.3111,-3.3111,0.0,0.0,0.0,-3.3111,-3.3111,-3.3111,-3.3111,-3.3111,-3.3111,-3.3111,-3.3111,-3.3111,-3.3111,-3.3111,-3.2655,-3.1733,-3.0508,-2.8866,-2.6935,-2.8168,-2.8495,-2.8121,-2.8541,-2.8049,-2.6935,-2.6935,-2.6428,-2.5693,-2.5693,-2.5566,-2.5293,-2.5137,-2.4883,-2.4531,-1.8659,-1.8418,-1.8187,0.0,0.0,0.0,0.0,0.0,0.0,0.0,0.0,0.0,0.0,0.0,0.0,0.0,0.0,0.0,-2.5259,-2.5566,-2.6848,-2.9533,-3.0494,-3.0967,-3.1075,-3.1777,-3.1896,-3.139,-3.3305,-3.4593,-3.528,-3.7135,-3.7973,-3.7973,-3.7345,-3.6357,-3.516,-3.4533,-3.3874,-3.3125,-3.1809,-3.0913,-3.0193,-2.8816,-2.6752,-2.4545,-2.4395,-2.241,-1.9789,-1.9226,-1.9102,-1.9182,-1.9433,-2.0167,-2.1274,-2.2858,-2.3759,-2.4933,-2.8035,-2.8938,-2.9515,-3.1687,-3.1813,-3.1537,-3.2039,-3.1361,-3.0583,-3.0457,-2.9126,-2.7946,0.0,0.0,-2.665,-2.7153,-2.7795,-2.8825,-3.0432,-3.111,-3.1838,0.0,0.0,0.0,0.0,0.0,0.0,-3.3111,0.0,-3.3068,-3.3025,-3.3068,-3.3025,-3.2896,-3.3025,-3.3068,-3.2982,-3.2982,-3.1733,-2.928,-2.8143,-2.6935,-2.5742,-2.6935,-2.6839,-2.5791,-2.6982,-2.6812,-2.5693,-2.5693,-2.5693,-2.5693,-2.5693,-2.5693,-2.5635,-2.5254,-2.5145,-2.5028,0.0,0.0,0.0,0.0,0.0,0.0,0.0,0.0,0.0,0.0,0.0,0.0,0.0,0.0,0.0,0.0,0.0,0.0,-2.2603,-2.5013,-2.6356,-2.6176,-2.879,-3.0014,-2.9498,-3.0161,-3.0283,-2.9798,-3.0803,-3.146,-3.1779,-3.2287,-3.2497,-3.2497,-3.2347,-3.1839,-3.1091,-3.0939,-3.0462,-2.9774,-2.8936,-2.8483,-2.8034,-2.5279,-2.4059,-2.361,-2.1635,-2.0186,-1.9205,-1.9547,-2.0318,-2.1721,-2.5096,-2.5487,-2.4891,-2.5787,-2.6848,-2.7809,-2.8662,-2.9829,-3.0984,-3.1964,-3.1813,-3.1436,-3.1562,-3.1085,-3.0131,-2.8473,-2.7118,-2.5862,-2.46,-2.5536,-2.6399,-2.6063,-2.8574,0.0,-3.1135,-3.1662,0.0,-3.2993,0.0,-3.3111,-3.3111,-3.3111,0.0,0.0,-3.3111,-3.2698,-3.1733,-3.2568,-3.2239,-3.0418,-3.2152,-3.2655,-3.1689,-3.1689,-3.044,-2.8049,-2.7767,-2.6935,-2.5693,-2.6062,-2.6014,-2.5742,-2.6062,-2.6014,-2.5693,-2.5693,-2.5693,-2.5693,-2.5693,-2.5693,-2.5674,-2.5557,-2.5566,-2.5488,0.0,0.0,0.0,0.0,0.0,0.0,0.0,0.0,0.0,0.0,0.0,0.0,0.0,0.0,0.0,0.0,0.0,0.0,0.0,-2.3695,-2.446,-2.3796,-2.591,-2.6798,-2.6154,-2.6826,-2.6957,-2.647,-2.7721,-2.8264,-2.8248,-2.91,-2.9237,-2.8786,-2.8786,-2.8427,-2.7829,-2.7829,-2.7619,0.0,0.0,-2.5698,-2.5189,-2.2763,-2.1844,-2.1695,-2.0247,-2.0061,-2.0753,-2.2055,-2.2813,-2.373,-2.6637,-2.6881,-2.6285,-2.7267,-2.8211,-2.9088,-3.0066,-3.1035,-3.1813,-3.2139,-3.1813,-3.1135,-3.0156,-2.9528,-2.8599,-2.6615,-2.5109,-2.3954,-2.3221,-2.4155,-2.4983,0.0,0.0,0.0,-3.0583,-3.116,-3.1913,0.0,-3.3111,0.0,-3.3111,-3.3111,-3.3111,0.0,-3.3111,-3.2785,-3.204,-3.2698,-3.2481,-3.1045,-3.2394,-3.2481,-3.1223,-3.0124,-2.8958,-2.7579,-2.703,-2.638,-2.5693,-2.5693,-2.5693,-2.5693,-2.5693,-2.5693,-2.5693,-2.5693,-2.5693,-2.5693,-2.5693,-2.5693,-2.5693,-2.5693,-2.5693,-2.5615,0.0,0.0,0.0,0.0,0.0,0.0,0.0,0.0,0.0,-2.2313,-2.2313,-2.2313,0.0,0.0,0.0,0.0,0.0,0.0,0.0,0.0,-2.2313,-2.2313,-2.2902,-2.3029,-2.2583,-2.3192,-2.3292,-2.2812,-2.4506,-2.515,-2.4895,-2.6601,-2.6879,-2.6038,-2.6038,-2.5685,-2.5076,-2.5076,-2.5046,-2.4866,-2.3699,-2.2853,-2.2164,0.0,-2.0198,-1.9708,-1.9708,-2.0996,-2.3029,-2.5198,-2.5686,-2.5596,-2.6737,-2.6934,-2.6924,-2.8237,-2.8937,-2.964,-3.1662,-3.2265,-3.2315,-3.224,-3.1813,-3.0809,-2.8599,-2.762,-2.664,-2.4725,-2.315,-2.2171,-2.2393,-2.2744,-2.3221,-2.3904,0.0,-2.7971,-2.9654,-3.0382,-3.1286,-3.2792,-3.3043,-3.3111,-3.3111,-3.3111,-3.3111,-3.3111,-3.2939,-3.2853,-3.2853,-3.3025,-3.3111,-3.3111,-3.2785,-3.2064,-3.0956,-2.8727,-2.7505,-2.7315,-2.6255,-2.5693,-2.5693,-2.5693,-2.5693,-2.5693,-2.5693,-2.5693,-2.5693,-2.5693,-2.5693,-2.5693,-2.5693,-2.5693,-2.5693,-2.5693,-2.5693,-2.5635,0.0,0.0,0.0,0.0,0.0,0.0,0.0,0.0,0.0,0.0,-2.2313,-2.2313,0.0,0.0,0.0,0.0,0.0,0.0,0.0,0.0,0.0,-2.2313,-2.2415,-2.2454,-2.2334,-2.2469,-2.2312,-2.1853,-2.2181,-2.2409,-2.259,-2.2903,-2.3055,-2.3038,-2.3038,-2.2808,-2.2383,-2.2383,-2.2054,-2.1525,-2.1286,-2.0797,-2.0187,-1.9959,0.0,0.0,-1.9708,-2.0996,-2.3092,-2.561,-2.7144,-2.8419,-3.1065,-3.0936,-3.0011,-3.1024,-3.1151,-3.116,-3.1989,-3.2566,-3.2817,-3.234,-3.1813,-3.0809,-2.8599,-2.7318,0.0,-2.2698,-2.1496,-2.0591,-1.9284,-2.0916,-2.2799,-2.3828,-2.6239,-2.8549,-3.0231,-3.0934,-3.1537,0.0,-3.2792,-3.3111,-3.3111,-3.3111,0.0,0.0,-3.2108,-3.1533,-3.1533,-3.2525,-3.3111,-3.3111,-3.1089,-2.9966,-2.9715,-2.8308,-2.7078,-2.6014,-2.5839,-2.5693,-2.5693,-2.5693,-2.5693,-2.5693,-2.5693,0.0,-2.5693,-2.5693,-2.5693,-2.5693,-2.5693,-2.5693,-2.5693,-2.5693,-2.5693,-2.5674,0.0,0.0,0.0,0.0,0.0,0.0,0.0,-2.246,-2.2313,-2.2313,-2.2313,-2.2313,-2.2313,-2.2313,-2.2313,0.0,0.0,0.0,0.0,0.0,0.0,-2.2313,-2.2313,-2.2313,-2.2313,-2.2313,-2.2194,-2.1974,0.0,-2.19,-2.1794,-2.1794,-2.1729,-2.1621,-2.1375,-2.1142,-2.0971,-2.076,-2.0468,-2.0168,-2.0168,-1.9989,-1.9708,0.0,0.0,0.0,0.0,-2.0996,-2.2942,-2.4507,-2.6632,-2.9134,-3.213,-3.1965,-3.0835,-3.2069,-3.1937,-3.1587,-3.2441,-3.2867,-3.2867,-3.1989,-3.1386,-3.0181,-2.7092,0.0,0.0,-2.084,-1.9535,-1.8831,-1.8304,-1.9736,-2.1368,-2.2498,-2.5259,-2.772,-2.9126,-3.0281,-3.1286,-3.2114,-3.2466,-3.2742,-3.3043,-3.3111,-3.2853,-3.2152,-3.2152,-3.1909,-3.1223,-3.1777,-3.2108,-3.2108,-3.0373,-2.9096,-2.8448,-2.722,-2.6284,-2.5693,-2.5693,-2.5693,-2.5693,-2.5693,-2.5693,-2.5693,-2.5693,-2.5693,-2.5693,-2.5693,-2.5693,-2.5693,-2.5693,-2.5693,-2.5693,-2.5693,-2.5693,-2.5693,0.0,0.0,0.0,0.0,0.0,0.0,0.0,-2.2581,-2.2377,-2.2293,-2.2313,-2.2313,-2.2313,-2.2313,-2.2313,0.0,0.0,0.0,0.0,0.0,0.0,0.0,0.0,0.0,0.0,0.0,0.0,-2.2313,-2.2313,0.0,0.0,0.0,0.0,0.0,-2.0665,-2.0383,-2.0265,-1.9874,-1.9708,0.0,0.0,-1.9708,0.0,0.0,0.0,0.0,0.0,-2.0726,-2.2194,-2.3101,-2.5166,-2.785,-3.0951,-3.1164,-3.0515,-3.1675,-3.1486,-3.1135,-3.2365,-3.2759,-3.2466,-3.1461,-3.0909,-2.9578,-2.5561,-2.3822,-2.2268,-1.9259,-1.7877,-1.7325,-1.7752,-1.8631,-1.9736,0.0,-2.3633,-2.6021,-2.7695,-2.9176,-3.0557,-3.1888,-3.2139,0.0,-3.3061,-3.2853,0.0,-3.1267,-3.1645,-3.1689,-3.1223,-3.0956,-3.0822,-3.0822,-2.9624,-2.8541,-2.7579,-2.6332,-2.5693,-2.5693,-2.5693,-2.5693,-2.5693,-2.5693,-2.5693,-2.5693,-2.5693,-2.5693,-2.5693,-2.5693,-2.5693,-2.5693,-2.5693,-2.5693,-2.5693,-2.5693,-2.5693,-2.5693,0.0,0.0,0.0,0.0,0.0,0.0,0.0,-2.2873,-2.2573,-2.2335,-2.2313,-2.2313,-2.2313,-2.2313,-2.2313,0.0,0.0,0.0,0.0,0.0,0.0,0.0,0.0,0.0,0.0,0.0,0.0,-2.2313,-2.2313,0.0,0.0,0.0,0.0,0.0,0.0,-2.0715,-2.0265,-1.9874,0.0,0.0,0.0,0.0,0.0,0.0,0.0,0.0,0.0,-1.9828,-2.0277,-2.2134,-2.3002,-2.3789,-2.7066,-2.8598,-2.9191,-2.9364,-2.9281,-2.9465,-3.111,-3.1537,-3.1411,-3.0834,-3.0658,-2.9478,-2.5084,-2.3572,-2.2042,-1.8304,-1.7024,-1.66,-1.6651,-1.7174,-1.8303,-2.044,-2.1446,-2.3231,-2.6841,-2.7921,-2.9126,-3.121,0.0,0.0,-3.3061,-3.2064,-3.1311,-3.1223,-2.928,-2.9004,-3.1089,-3.0169,-2.9579,-2.9579,-2.8402,-2.772,-2.76,-2.6332,-2.5693,-2.5693,-2.5693,-2.5693,-2.5693,-2.5693,-2.5693,-2.5693,-2.5693,-2.5693,0.0,-2.5693,-2.5693,-2.5693,-2.5693,-2.5693,-2.5693,-2.5693,-2.5693,-2.5693,0.0,0.0,0.0,0.0,0.0,0.0,-2.3522,-2.3045,-2.2643,-2.2533,-2.2398,-2.2313,-2.2313,-2.2313,-2.2313,-2.2313,0.0,0.0,0.0,0.0,0.0,0.0,0.0,0.0,0.0,0.0,-2.2313,-2.2313,-2.2313,0.0,0.0,0.0,0.0,0.0,0.0,-2.0894,-2.0682,-1.9997,0.0,0.0,0.0,0.0,0.0,0.0,0.0,0.0,0.0,0.0,-1.9887,-2.1096,-2.2024,-2.2853,-2.3781,-2.5097,-2.6778,-2.9212,-2.9504,-2.9346,-3.0954,-3.1386,-3.126,-3.0733,-2.9603,-2.7795,-2.4707,-2.2498,-2.0413,-1.7926,-1.6923,-1.65,-1.65,-1.6697,-1.7275,-1.8504,-2.0013,-2.1798,-2.3979,-2.5611,-2.7544,-3.0131,-3.0633,0.0,0.0,0.0,-3.2021,-3.1267,-2.8958,-2.8002,-2.9004,-2.8588,-2.8308,-2.8308,-2.7861,-2.722,-2.6476,-2.5965,-2.5693,-2.5693,-2.5693,-2.5693,-2.5693,-2.5693,-2.5693,-2.5693,-2.5693,-2.5693,0.0,-2.5693,-2.5693,-2.5693,-2.5693,-2.5693,-2.5693,-2.5693,-2.5898,-2.6133,0.0,0.0,0.0,0.0,0.0,-2.3816,-2.3732,-2.3294,-2.2935,-2.2733,-2.2554,-2.2371,-2.2293,-2.2313,-2.2313,-2.2313,-2.2313,0.0,0.0,0.0,0.0,0.0,0.0,0.0,0.0,0.0,-2.2313,-2.2313,-2.2313,-2.2313,0.0,0.0,-2.2313,-2.2251,0.0,0.0,0.0,0.0,0.0,0.0,0.0,0.0,0.0,0.0,0.0,0.0,0.0,0.0,0.0,0.0,0.0,-2.1774,-2.1485,-2.2317,-2.4028,-2.7343,-2.8258,-2.8412,-2.9631,-3.0281,-3.0583,-3.0206,-2.8574,-2.6499,-2.4255,-2.1694,-1.9284,-1.7501,-1.6798,-1.65,-1.65,-1.65,-1.6697,-1.7297,-1.8831,-2.0465,-2.187,-2.3678,-2.5912,-2.8725,0.0,-3.0156,-3.2365,-3.2543,-3.2021,-3.0777,-2.9096,-2.8002,-2.7647,-2.76,-2.7458,-2.703,-2.703,-2.662,-2.5693,-2.5693,-2.5693,-2.5693,-2.5693,-2.5693,-2.5693,-2.5693,-2.5693,-2.5693,-2.5693,-2.5693,0.0,-2.5693,-2.5693,-2.5693,-2.5693,-2.5771,-2.5937,-2.5937,-2.6211,-2.6582,0.0,0.0,0.0,0.0,0.0,0.0,-2.3764,-2.3674,-2.3466,-2.2879,-2.2742,-2.2599,-2.2321,-2.2313,-2.2313,-2.2313,-2.2313,0.0,0.0,0.0,0.0,0.0,0.0,0.0,0.0,0.0,-2.2313,-2.2313,-2.2313,-2.2313,-2.2313,-2.2313,-2.2313,-2.2265,0.0,0.0,0.0,0.0,0.0,0.0,0.0,0.0,0.0,0.0,0.0,0.0,0.0,0.0,0.0,0.0,0.0,0.0,0.0,-2.0718,-2.1079,-2.2782,-2.4485,-2.5933,-2.6426,-2.7695,-2.8913,-2.8913,-2.7695,-2.5921,-2.3622,-2.139,-1.9183,-1.6951,-1.65,-1.65,-1.65,-1.65,-1.6697,-1.7297,-1.7852,-1.8982,-2.1192,-2.2418,-2.4148,0.0,-2.7795,-2.9001,-3.1185,-3.1277,-3.0732,-2.9487,-2.9396,0.0,-2.7673,-2.76,-2.703,-2.5791,-2.5742,-2.5693,-2.5693,-2.5693,-2.5693,-2.5693,-2.5693,-2.5693,-2.5693,-2.5693,-2.5693,-2.5693,-2.5693,-2.5693,0.0,-2.5693,-2.5693,-2.5693,-2.5693,-2.5996,-2.6387,-2.6387,-2.6641,-2.7012,0.0,0.0,0.0,0.0,0.0,0.0,0.0,-2.3837,-2.3621,-2.3432,-2.3189,-2.2923,-2.2599,-2.256,-2.25,-2.2307,-2.2313,0.0,0.0,0.0,0.0,0.0,0.0,0.0,0.0,-2.2313,-2.2313,-2.2313,-2.2313,-2.2313,-2.2313,-2.2313,-2.2313,-2.2265,-2.1809,-2.1368,0.0,0.0,0.0,0.0,0.0,0.0,0.0,0.0,0.0,0.0,0.0,0.0,0.0,0.0,0.0,0.0,0.0,0.0,0.0,-2.0339,-2.2036,-2.4133,-2.4639,-2.5435,-2.6004,-2.5661,-2.4305,-2.2703,-2.1192,-1.9459,-1.7827,-1.6726,-1.65,-1.65,-1.65,-1.65,-1.655,-1.6748,-1.7576,-1.8706,0.0,0.0,0.0,-2.7469,-3.0005,-3.1788,0.0,0.0,-3.1952,-3.0732,-2.9852,-2.8866,-2.7673,-2.6744,-2.611,-2.5693,-2.5693,-2.5693,-2.5693,-2.5693,-2.5693,-2.5693,-2.5693,-2.5693,-2.5693,-2.5693,-2.5693,-2.5693,-2.5693,-2.5693,-2.5693,-2.5693,-2.5869,-2.6191,-2.6191,-2.6445,-2.6816,-2.6816,-2.709,-2.7422,0.0,0.0,0.0,0.0,0.0,0.0,0.0,-2.4016,-2.3837,-2.3732,-2.3522,-2.3212,-2.2759,-2.2708,-2.2586,-2.2307,-2.2313,0.0,0.0,0.0,0.0,0.0,0.0,0.0,-2.2313,-2.255,-2.2733,-2.2733,-2.3004,-2.3139,-2.3139,-2.3139,-2.297,-2.2671,-2.2222,-2.1644,0.0,0.0,0.0,0.0,0.0,0.0,-1.9708,0.0,0.0,0.0,0.0,0.0,0.0,0.0,0.0,0.0,0.0,0.0,0.0,0.0,-2.0009,-2.1695,-2.2257,-2.3125,-2.3803,-2.3452,-2.2096,-2.0665,-1.9962,-1.838,-1.6948,-1.6575,-1.65,-1.65,-1.65,-1.65,-1.6575,-1.6798,-1.7601,-1.8731,-2.0238,0.0,0.0,-2.772,-3.0683,0.0,0.0,-3.286,-3.2568,-3.1311,-3.0485,-2.935,-2.7673,-2.6839,-2.6207,-2.5742,-2.5693,-2.5693,-2.5693,-2.5693,-2.5693,-2.5693,-2.5693,-2.5693,-2.5693,-2.5693,-2.5693,-2.5693,-2.5693,-2.5791,0.0,-2.5977,-2.623,-2.6621,-2.6621,-2.6894,-2.7266,-2.7266,-2.7539,-2.7832,0.0,0.0,0.0,0.0,0.0,0.0,0.0,-2.419,-2.4102,-2.3785,-2.3696,-2.3466,-2.281,-2.2721,-2.2586,-2.2307,0.0,0.0,0.0,0.0,0.0,0.0,0.0,0.0,-2.2381,-2.3038,-2.3424,-2.3477,-2.4169,-2.4508,-2.4508,-2.4508,-2.4135,-2.3463,-2.2966,-2.2099,-2.0943,0.0,0.0,0.0,-1.9708,-1.9708,0.0,0.0,0.0,0.0,0.0,0.0,0.0,0.0,0.0,0.0,0.0,0.0,0.0,0.0,0.0,0.0,0.0,-2.0765,-2.202,-2.197,-2.079,-1.961,-1.9585,-1.7978,0.0,-1.65,-1.65,-1.65,-1.65,-1.6525,-1.6748,-1.7322,-1.7903,-1.9083,0.0,-2.2719,0.0,0.0,-3.0206,0.0,-3.1461,-3.2441,-3.2568,-3.1311,-3.1134,-3.0033,-2.772,-2.7505,-2.6935,-2.5742,-2.5693,-2.5693,-2.5693,-2.5693,-2.5693,-2.5693,-2.5693,-2.5693,-2.5693,-2.5693,-2.5693,0.0,-2.5693,-2.5977,-2.6348,-2.6387,-2.6641,-2.7012,-2.7051,-2.7324,-2.7767,-2.7767,-2.793,-2.8184,0.0,0.0,0.0,0.0,0.0,0.0,0.0,0.0,0.0,0.0,-2.3847,-2.3544,-2.3129,-2.286,-2.2586,0.0,0.0,0.0,0.0,0.0,0.0,0.0,0.0,0.0,-2.3139,-2.3308,-2.3695,-2.4237,-2.4406,-2.4508,-2.4508,-2.4508,-2.4406,-2.4203,-2.3523,-2.2396,-2.0943,-2.0067,0.0,0.0,-1.9708,-1.9708,0.0,0.0,0.0,0.0,-1.9708,-1.9708,0.0,0.0,0.0,0.0,0.0,0.0,0.0,0.0,-1.8183,-1.8133,-1.7463,0.0,-1.9083,-1.8631,-1.8278,-1.7827,0.0,-1.6876,-1.65,-1.65,-1.65,-1.65,-1.65,-1.6873,-1.7225,-1.7373,-1.853,-2.0062,-2.187,-2.5636,0.0,-2.988,-3.1587,-3.2516,-3.2064,-3.2667,-3.2568,-3.1311,-3.035,-2.9166,-2.7673,-2.6668,-2.6014,-2.5693,-2.5693,-2.5693,-2.5693,-2.5693,-2.5693,-2.5693,-2.5693,-2.5693,-2.5693,-2.5693,-2.5693,-2.5693,-2.5693,-2.5752,-2.5869,-2.625,-2.6641,-2.7051,-2.7383,-2.7773,-2.8144,-2.8144,-2.8008,-2.7806,0.0,0.0,0.0,0.0,0.0,0.0,0.0,0.0,0.0,0.0,0.0,-2.3753,-2.3247,-2.3045,0.0,0.0,0.0,0.0,0.0,0.0,0.0,0.0,0.0,-2.3004,-2.3376,-2.4052,-2.4763,-2.5523,-2.5845,-2.6184,-2.6573,-2.62,-2.5812,-2.5439,-2.3597,-2.1892,-2.0364,-1.9892,-1.9708,-1.9708,-1.9708,0.0,0.0,0.0,0.0,0.0,-1.9708,-1.9708,0.0,-1.9708,-1.9708,-1.9708,0.0,0.0,0.0,0.0,-1.8092,-1.7854,-1.6795,-1.6951,-1.7328,-1.7049,-1.6974,-1.6898,-1.6575,-1.65,-1.65,-1.65,-1.65,-1.6575,-1.6873,-1.7174,-1.7649,-1.838,-1.966,-2.1418,0.0,0.0,-2.9428,-3.0482,-3.1612,-3.239,0.0,-3.2893,-3.2326,-3.0485,-2.9761,-2.8634,-2.6791,-2.662,-2.6284,-2.5742,-2.6304,-2.6304,-2.5693,-2.5693,-2.5693,-2.5693,-2.5693,-2.5693,-2.5693,-2.5693,-2.5693,-2.5693,-2.5957,-2.6152,-2.6317,-2.6797,-2.7226,-2.7617,-2.7871,-2.8086,-2.8301,-2.8301,-2.8027,-2.765,0.0,0.0,0.0,0.0,0.0,0.0,0.0,0.0,0.0,0.0,0.0,0.0,0.0,0.0,0.0,0.0,0.0,0.0,0.0,0.0,0.0,0.0,-2.3004,-2.3444,-2.3594,-2.5,-2.6116,-2.686,-2.7621,-2.8349,-2.8976,-2.8315,-2.7502,-2.6472,-2.3553,-2.1401,-1.9918,-1.9756,-1.9708,-1.9708,-1.9708,0.0,0.0,0.0,0.0,0.0,0.0,0.0,0.0,-1.9708,-1.9708,-1.9708,-1.9708,0.0,0.0,0.0,0.0,0.0,-1.69,-1.6791,-1.6926,-1.6575,-1.65,-1.65,-1.65,-1.65,-1.6525,-1.66,-1.6647,-1.6823,-1.74,-1.7576,-1.8127,-1.956,0.0,0.0,-2.6424,-2.7921,-2.9227,-3.0583,-3.1286,0.0,-3.2628,-3.276,-3.1777,-2.9326,-2.9143,-2.8215,-2.611,-2.703,-2.7125,-2.6014,-2.703,-2.6982,-2.5693,-2.5693,-2.5693,-2.5693,-2.5693,-2.5693,-2.5693,-2.5693,-2.5732,-2.581,-2.623,0.0,-2.7051,-2.748,-2.7871,-2.8203,-2.8262,-2.8301,-2.8301,-2.8301,-2.7988,-2.75,0.0,0.0,0.0,0.0,0.0,0.0,0.0,0.0,0.0,0.0,0.0,0.0,0.0,0.0,0.0,0.0,0.0,0.0,0.0,0.0,0.0,-2.2313,-2.3004,-2.3695,-2.4305,-2.5794,-2.6894,-2.7621,-2.8416,-2.8874,-2.901,-2.8874,-2.7848,-2.6002,-2.397,-2.2301,-2.0975,-2.008,-1.9708,-1.9708,-1.9708,0.0,0.0,0.0,0.0,0.0,0.0,0.0,0.0,-1.9708,-1.9708,-1.9708,-1.9708,0.0,0.0,0.0,0.0,0.0,-1.7353,-1.8221,-1.8857,-1.6951,-1.65,-1.65,-1.65,-1.65,-1.6626,-1.7149,-1.725,-1.7426,-1.7978,-1.8455,-1.8983,-1.9685,0.0,-2.6399,0.0,0.0,-3.1512,-3.1286,0.0,-3.2283,-3.0951,-3.1249,-3.0508,-2.8049,-2.7861,-2.772,-2.7315,-2.7505,-2.7505,-2.7315,-2.7505,-2.6982,-2.5693,-2.5693,-2.5693,-2.5693,-2.5693,-2.5693,-2.5693,-2.5693,-2.5937,-2.6289,0.0,-2.6621,-2.7051,-2.748,-2.7767,-2.7845,-2.8164,-2.8301,-2.8301,-2.8301,-2.7793,-2.6992,0.0,0.0,0.0,0.0,0.0,0.0,0.0,0.0,0.0,0.0,0.0,0.0,0.0,0.0,0.0,0.0,0.0,0.0,0.0,0.0,-2.2482,-2.2868,-2.3579,-2.4135,-2.4474,-2.6353,-2.7672,-2.845,-2.9228,-2.9803,-3.0161,-2.9382,-2.7803,-2.5566,-2.3908,-2.2353,-2.0935,-2.005,-1.9708,-1.9708,0.0,0.0,0.0,0.0,0.0,0.0,0.0,0.0,0.0,0.0,-1.9708,-1.9708,-1.9708,0.0,0.0,0.0,0.0,0.0,-1.7084,-1.7429,-1.8078,-1.8254,-1.8982,-1.961,-1.961,-1.961,-1.956,-1.9258,-1.9183,-1.9158,-1.9083,-1.9268,-2.0302,-2.2982,-2.54,-2.7595,-2.9578,-3.0142,-3.0683,0.0,0.0,-3.1094,-3.0886,-3.0458,-2.9761,-2.868,-2.8588,-2.8588,-2.8588,-2.9189,-2.8958,-2.7626,-2.8215,-2.7673,-2.5742,-2.5693,-2.5693,-2.5693,-2.5693,-2.5693,-2.5693,-2.5693,-2.5791,-2.6055,0.0,-2.6836,-2.707,-2.7734,-2.8008,-2.8027,-2.8223,-2.8301,-2.8242,-2.7773,-2.7344,-2.6894,0.0,0.0,0.0,0.0,0.0,0.0,0.0,0.0,0.0,0.0,0.0,0.0,0.0,0.0,0.0,0.0,0.0,0.0,0.0,-2.2363,-2.2683,-2.3391,-2.4101,-2.4575,-2.4745,-2.6928,-2.8383,-2.901,-2.9905,-3.0649,-3.1157,-2.9687,-2.7859,-2.5715,-2.3979,-2.2371,-2.0868,-2.0049,-1.9708,-1.9708,0.0,0.0,0.0,0.0,0.0,0.0,0.0,0.0,0.0,0.0,0.0,0.0,0.0,0.0,0.0,-1.8521,-1.8112,-1.7713,-1.6921,-1.6961,-1.7702,-1.9384,-2.0489,-2.1368,-2.2146,-2.202,-2.1619,-2.1345,-2.127,-2.1117,-2.0665,-2.0791,-2.2163,-2.5913,-2.7385,-2.875,-3.0708,-3.0317,-3.0238,-3.1241,-3.0821,-3.0386,-3.037,-2.9761,-2.9189,-2.8588,-2.8541,-2.8819,-2.935,-3.0259,-2.9943,-2.8096,-2.8912,-2.8215,-2.5742,-2.5693,-2.5693,-2.5693,-2.5693,-2.5693,-2.5693,-2.5791,-2.5937,-2.6025,-2.6836,-2.7226,-2.7363,-2.8027,-2.8301,-2.8301,-2.8301,-2.8301,-2.8184,-2.7324,-2.7012,-2.6894,0.0,0.0,0.0,0.0,0.0,0.0,0.0,0.0,0.0,0.0,0.0,0.0,0.0,0.0,0.0,0.0,0.0,0.0,0.0,-2.2541,-2.289,-2.3391,-2.4101,-2.4812,-2.5507,-2.7757,-2.8942,-2.901,-3.0431,-3.1157,-3.1157,-2.9687,-2.8372,-2.713,-2.4397,-2.2603,-2.1545,-2.0247,-1.9708,-1.9708,-1.9708,0.0,0.0,0.0,0.0,0.0,0.0,0.0,0.0,0.0,0.0,0.0,0.0,0.0,-1.8949,-1.8874,-1.8131,-1.7353,-1.725,-1.8372,-1.961,-1.9761,-1.8756,-1.853,-2.1619,-2.1117,-2.0539,-2.2518,-2.292,-2.292,-2.2869,-2.3735,-2.4878,-2.6296,-2.8662,-3.0783,-3.1938,0.0,-3.2407,-3.1324,-3.216,-3.1529,-2.8168,-2.8773,-2.8448,-2.6159,-2.5965,-2.6982,-2.928,-2.9487,-2.9442,-2.928,-2.935,-2.8215,-2.5742,-2.5693,-2.5693,-2.5693,-2.5693,-2.5693,-2.5693,-2.6152,-2.6543,-2.6953,-2.7422,-2.7832,-2.8203,-2.8262,-2.8301,-2.8301,-2.8301,-2.8301,-2.8184,-2.7324,-2.7012,-2.6894,0.0,0.0,0.0,0.0,0.0,0.0,0.0,0.0,0.0,0.0,0.0,0.0,0.0,0.0,0.0,0.0,0.0,0.0,0.0,-2.2533,-2.2917,-2.3391,-2.4101,-2.4846,-2.5559,-2.7807,-2.901,-2.901,-3.0499,-3.0954,-3.048,-2.9484,-2.8173,-2.6607,-2.4269,-2.2635,-2.1605,-2.0277,-1.9708,-1.9708,-1.9708,-1.9708,0.0,0.0,0.0,0.0,0.0,0.0,0.0,0.0,-1.9708,-1.9654,-1.9314,-1.9062,-1.8779,-1.8092,-1.7639,-1.7229,-1.69,-1.804,-1.9459,-2.0189,-2.0163,-2.0842,-2.413,-2.4437,-2.4211,-2.5034,-2.5485,-2.5386,-2.4347,-2.5563,-2.6774,-2.6847,-2.9553,-3.1339,-3.0555,-3.128,-3.1444,-3.0214,-2.9829,-2.9143,-2.772,-2.7315,-2.703,-2.6887,-2.7579,-2.8727,-3.044,-3.053,-3.0169,-2.9396,-2.868,-2.7437,-2.5742,-2.5693,-2.5693,-2.5693,-2.6016,-2.6133,-2.6152,-2.6582,-2.6875,-2.7031,-2.748,-2.7806,-2.793,-2.8184,-2.8301,-2.8301,-2.8301,-2.8301,-2.8184,-2.7324,-2.7012,-2.6894,0.0,0.0,0.0,0.0,0.0,0.0,0.0,0.0,0.0,0.0,0.0,0.0,0.0,0.0,0.0,0.0,0.0,0.0,-2.2307,-2.2533,-2.2917,-2.3391,-2.4101,-2.4846,-2.5559,-2.7571,-2.8739,-2.901,-3.0499,-3.0818,-3.0055,-2.9348,-2.804,-2.6202,-2.4122,-2.2635,-2.1605,-2.0277,-1.9708,-1.9708,-1.9708,-1.9708,0.0,0.0,0.0,0.0,0.0,0.0,0.0,0.0,-1.917,-1.888,-1.8841,-1.8501,-1.8056,-1.7659,-1.7312,-1.6985,-1.6607,-1.7478,-1.8857,-2.0339,-2.1094,-2.2397,-2.5946,-2.6474,-2.6371,-2.6829,-2.7225,-2.7016,-2.5494,-2.7159,-2.8407,-2.7217,-2.9763,-3.1428,-3.0123,-3.035,-3.0305,-2.9487,-2.868,-2.7861,-2.7078,-2.6572,-2.6476,-2.6935,-2.8121,-2.935,-3.0598,-3.0619,-3.0259,-2.9442,-2.8236,-2.6982,-2.5693,-2.5693,-2.5693,-2.5693,-2.6309,-2.6523,-2.6406,-2.6973,-2.7226,-2.7246,-2.7676,-2.7871,-2.7891,-2.8184,-2.8301,-2.8301,-2.8301,-2.8301,-2.8203,-2.748,-2.7129,-2.6914,0.0,0.0,0.0,0.0,0.0,0.0,0.0,0.0,-2.419,-2.419,-2.419,0.0,0.0,0.0,0.0,0.0,0.0,0.0,-2.2335,-2.2533,-2.2917,-2.3371,-2.4101,-2.4846,-2.5559,-2.7046,-2.818,-2.901,-3.0465,-3.0784,-3.0055,-2.933,-2.804,-2.6202,-2.4122,-2.2635,-2.1605,-2.0277,-1.9708,-1.9708,-1.9708,-1.9708,-1.9708,0.0,0.0,0.0,0.0,0.0,0.0,0.0,-1.8,-1.7289,-1.8357,-1.7689,-1.6704,-1.7769,-1.7333,-1.65,-1.65,-1.6974,-1.7976,-2.0163,-2.1144,-2.2548,-2.6449,-2.6414,-2.6079,-2.7624,-2.7931,-2.7545,-2.6378,-2.8559,-2.9756,-2.7304,-2.9311,-3.1178,-3.1178,-3.0124,-2.9372,-2.935,-2.935,-2.8402,-2.5917,-2.6839,-2.7078,-2.5771,-2.6887,-2.8143,-2.9326,-2.9396,-2.9396,-2.9396,-2.8215,-2.6982,-2.5693,-2.5693,-2.5693,-2.5713,-2.6602,-2.6797,-2.6426,-2.7337,-2.7728,-2.7748,-2.8105,-2.8301,-2.8301,-2.8301,-2.8301,-2.8301,-2.8301,-2.8301,-2.8242,-2.7865,-2.7383,-2.6953,0.0,0.0,0.0,0.0,0.0,0.0,0.0,0.0,-2.419,-2.419,-2.419,0.0,0.0,0.0,0.0,0.0,0.0,0.0,-2.2335,-2.2533,-2.2676,-2.2646,-2.3342,-2.3831,-2.4052,-2.6015,-2.7672,-2.901,-2.945,-2.9262,-2.8466,-2.7922,-2.6662,-2.4759,-2.3291,-2.2034,-2.0946,-2.0067,-1.9708,-1.9708,-1.9708,-1.9708,-1.9708,0.0,0.0,0.0,0.0,0.0,0.0,0.0,0.0,0.0,-1.7472,-1.7095,-1.6547,-1.6886,-1.6752,-1.6575,-1.7024,-1.8681,-2.044,-2.1119,-2.3155,-2.5519,-2.7419,-2.7293,-2.7362,-2.9361,-2.8491,-2.7727,-2.9044,-2.8592,-2.7855,-2.7543,-2.8835,-2.9304,-2.7579,-2.7814,-2.7814,-2.6887,-2.6791,-2.6524,-2.5791,-2.6839,-2.7078,-2.5771,-2.8448,-2.9897,-2.9442,-2.9396,-2.9396,-2.9396,-2.7342,-2.6062,-2.5693,-2.5693,-2.5898,-2.6211,-2.6758,-2.6953,-2.6855,-2.7715,-2.8105,-2.8125,-2.8242,-2.8301,-2.8301,-2.8301,-2.8301,-2.8301,-2.8301,-2.8301,-2.8242,-2.7865,-2.7383,-2.6953,0.0,0.0,0.0,0.0,0.0,0.0,-2.419,-2.4102,-2.4006,-2.4006,-2.3868,-2.3806,0.0,0.0,0.0,-2.3033,-2.3009,-2.2807,-2.2321,-2.2467,-2.248,-2.2293,-2.3004,-2.356,-2.3831,-2.5151,-2.6268,-2.7216,-2.84,-2.8586,-2.7772,-2.7042,-2.5811,-2.415,-2.2703,-2.1547,-2.0658,-1.9989,-1.9708,-1.9708,-1.9708,-1.9708,-1.9678,0.0,0.0,0.0,0.0,0.0,0.0,0.0,0.0,0.0,-1.6561,-1.6325,-1.5938,-1.6365,-1.649,-1.6751,-1.8003,-1.956,-2.1242,-2.3055,-2.5016,-2.6952,-2.8699,-2.8809,-2.8993,-3.0515,-2.9351,-2.8292,-2.9223,-2.8567,-2.7699,-2.6989,-2.7896,-2.8168,-2.6668,-2.6668,-2.6764,-2.6476,-2.6014,-2.5693,-2.5693,-2.638,-2.6764,-2.6476,-2.8936,-3.0395,-3.0124,-2.967,-2.9396,-2.9396,-2.6982,-2.5693,-2.5693,-2.5693,-2.5957,-2.6387,-2.6816,-2.7109,-2.7305,-2.7988,-2.8301,-2.8301,-2.8301,-2.8301,-2.8301,-2.8301,-2.8301,-2.8301,-2.8301,-2.8301,-2.8262,-2.8008,-2.7637,-2.7226,0.0,0.0,0.0,0.0,0.0,0.0,-2.4122,-2.3847,-2.3642,-2.3642,-2.341,-2.32,0.0,0.0,0.0,-2.2733,-2.2708,-2.2586,-2.2307,-2.2313,-2.2313,-2.2313,-2.2936,-2.3613,-2.4271,-2.4372,-2.4406,-2.4406,-2.7283,-2.8281,-2.7468,-2.641,-2.5237,-2.3907,-2.2214,-2.113,-2.0569,-1.9959,-1.9708,-1.9708,-1.9708,-1.9678,-1.9558,-1.8942,0.0,0.0,0.0,0.0,0.0,0.0,0.0,0.0,-1.5709,-1.5459,-1.505,-1.6101,-1.6566,-1.7177,-1.9309,-2.0062,-2.1267,-2.5519,-2.6751,-2.763,-3.0156,-3.0685,-3.0759,-3.1189,-3.0325,-2.9168,-2.8121,-2.8569,-2.8386,-2.6235,-2.6723,-2.7395,-2.7389,-2.6428,-2.611,-2.7315,-2.638,-2.5693,-2.5693,-2.5771,-2.6304,-2.7363,-2.8773,-2.9988,-3.1,-2.9988,-2.9396,-2.9396,-2.6982,-2.5693,-2.5693,-2.5693,-2.5977,-2.6445,-2.6836,-2.7266,-2.7787,-2.8125,-2.8301,-2.8301,-2.8301,-2.8301,-2.8301,-2.8301,-2.8301,-2.8301,-2.8301,-2.8301,-2.8301,-2.8301,-2.8027,-2.7728,0.0,0.0,0.0,0.0,0.0,0.0,-2.3432,-2.334,-2.3294,-2.3294,-2.3236,-2.32,-2.32,-2.32,0.0,-2.2733,-2.2708,-2.2586,-2.2307,-2.2313,-2.2313,-2.2313,-2.2448,-2.2632,-2.2767,-2.3342,-2.3661,-2.3661,-2.5439,-2.5947,-2.5203,-2.4802,-2.3858,-2.2497,-2.1362,-2.0519,-1.9899,-1.9768,-1.9708,-1.9708,-1.9708,-1.9361,-1.8912,-1.8762,-1.8356,0.0,0.0,0.0,0.0,0.0,0.0,0.0,-1.5286,-1.491,-1.4469,-1.5551,-1.7112,-1.8757,-2.0138,-2.2071,-2.428,-2.654,-2.8762,-3.0608,-3.1637,-3.2179,-3.2425,-3.2059,-3.1105,-3.0352,-3.0415,-2.8544,-2.7037,-2.7191,-2.6317,-2.5742,-2.6051,-2.5868,-2.5771,-2.6062,-2.5868,-2.5693,-2.5693,-2.662,-2.6907,-2.6159,-2.9028,-3.0485,-2.9806,-2.9533,-2.9396,-2.9396,-2.6982,-2.5693,-2.5693,-2.5693,-2.6064,-2.6875,-2.6973,-2.7422,-2.8164,-2.8262,-2.8301,-2.8301,-2.8301,-2.8301,-2.8301,-2.8301,-2.8301,-2.8301,-2.8301,-2.8301,-2.8301,-2.8301,-2.8027,-2.7728,0.0,0.0,0.0,0.0,0.0,0.0,0.0,0.0,-2.3403,-2.2995,-2.2857,-2.2777,-2.2777,-2.2777,0.0,0.0,-2.2514,-2.2467,-2.2293,-2.2313,-2.2313,-2.2313,-2.2313,-2.2313,-2.2313,-2.2699,-2.2868,-2.2868,-2.3985,-2.4526,-2.4492,-2.3586,-2.2788,-2.2048,-2.0793,-2.0019,-1.9708,-1.9708,-1.9708,-1.9708,-1.9708,-1.9498,-1.9121,-1.8463,-1.7997,-1.7579,-1.6622,0.0,0.0,0.0,0.0,0.0,0.0,0.0,-1.3903,-1.5009,-1.6321,-1.8028,-2.0715,-2.2523,-2.4299,-2.7318,-2.9754,-3.1461,-3.1763,-3.2466,-3.2993,-3.2692,-3.1712,-3.0758,-3.0393,-2.8494,-2.681,-2.6472,-2.5821,-2.5391,-2.541,-2.5605,-2.5693,-2.5693,-2.5693,-2.5693,-2.5693,-2.6284,-2.6668,-2.662,-2.8958,-3.0305,-3.0259,-2.9715,-2.9396,-2.9396,-2.6982,-2.5693,-2.5693,-2.5937,-2.6367,-2.7012,-2.7226,-2.7656,-2.8301,-2.8301,-2.8301,-2.8301,-2.8301,-2.8301,-2.8301,-2.8301,-2.8301,-2.8301,-2.8301,-2.8301,-2.8301,-2.8301,-2.8164,-2.7969,0.0,0.0,0.0,0.0,0.0,0.0,0.0,0.0,0.0,-2.2708,-2.244,-2.2313,-2.2313,-2.2313,-2.2313,0.0,0.0,0.0,-2.2313,-2.2313,-2.2313,-2.2313,-2.2313,-2.2313,-2.2313,-2.2313,-2.2313,-2.2313,-2.2902,-2.3482,-2.3979,-2.2688,-2.1984,-2.1739,-2.0329,-1.9708,-1.9708,-1.9708,-1.9708,-1.9708,-1.9708,-1.9618,-1.939,-1.8296,-1.7818,-1.7549,-1.6368,-1.5964,-1.5844,-1.5065,0.0,0.0,0.0,0.0,-1.3265,-1.4287,-1.5316,-1.6948,-2.0715,-2.2297,-2.3853,-2.7885,-3.003,-3.1185,-3.1461,-3.2265,-3.2943,-3.3068,-3.2283,-3.1089,-2.967,-2.8522,-2.7228,-2.55,-2.543,-2.5527,-2.5215,-2.5508,-2.5693,-2.5693,-2.5693,-2.5693,-2.5693,-2.5693,-2.6255,-2.7505,-2.8727,-2.9806,-3.0866,-2.9943,-2.9304,-2.9096,-2.6887,-2.5693,-2.5693,-2.6172,-2.6602,-2.7031,-2.7539,-2.7949,-2.8301,-2.8301,-2.8301,-2.8301,-2.8301,-2.8301,-2.8301,-2.8301,-2.8301,-2.8301,-2.8301,-2.8301,-2.8301,-2.8301,-2.8301,-2.8301,0.0,0.0,0.0,0.0,0.0,0.0,0.0,0.0,0.0,0.0,-2.2307,-2.2313,-2.2313,-2.2313,-2.2313,-2.2313,-2.2313,-2.2313,-2.2313,0.0,0.0,-2.2313,-2.2313,-2.2313,-2.2313,-2.2313,-2.2313,-2.2313,-2.2381,-2.2276,-2.1969,-2.207,-2.1544,-2.0522,-1.994,-1.9708,-1.9708,-1.9708,-1.9708,-1.9708,-1.9708,-1.9331,-1.8822,-1.8625,-1.8207,-1.7593,-1.6846,-1.6577,-1.6398,-1.5201,-1.4311,0.0,0.0,0.0,-1.2638,-1.324,-1.5522,-1.8103,-1.9158,-2.2246,-2.5762,-2.8261,-2.9478,-3.0382,-3.1788,-3.2215,-3.2466,-3.2968,-3.2982,-3.2152,-2.9829,-2.8969,-2.795,-2.5972,-2.5371,-2.5273,-2.5605,-2.5654,-2.5693,-2.5693,-2.5693,-2.5693,-2.5693,-2.5693,-2.6255,-2.7505,-2.8727,-2.9442,-2.9624,-2.951,-2.8912,-2.7861,-2.6428,-2.5693,-2.5693,-2.6172,-2.6602,-2.7031,-2.7832,-2.8242,-2.8301,-2.8301,-2.8301,-2.8301,-2.8301,-2.8301,-2.8301,-2.8301,-2.8301,-2.8301,-2.8301,-2.8301,-2.8301,-2.8301,-2.8301,-2.8301,0.0,0.0,0.0,0.0,0.0,0.0,0.0,0.0,0.0,0.0,0.0,-2.2313,-2.2313,-2.2313,-2.2313,-2.2313,-2.2313,-2.2313,-2.2313,-2.2313,-2.2313,-2.2313,-2.2313,-2.2313,-2.2313,-2.2313,-2.2313,-2.2313,-2.2313,-2.1945,-2.126,-2.1424,-2.1065,-2.0265,-1.9874,-1.9708,-1.9708,-1.9708,-1.9708,-1.9708,-1.9708,-2.0378,-2.1246,-1.942,-1.945,-2.0161,-1.7709,-1.6615,-1.6177,-1.4943,-1.3763,-1.2779,-1.2423,0.0,0.0,0.0,-1.4225,-1.6199,-1.986,-2.2945,-2.5762,-2.8261,-2.9352,-2.998,-3.0683,-3.1562,-3.229,-3.2541,-3.2842,-3.2568,-3.0732,-2.9738,-2.8536,-2.666,-2.5869,-2.543,-2.5371,-2.5586,-2.5693,-2.5693,-2.5693,-2.5693,-2.5693,-2.5693,-2.5917,-2.6476,-2.8308,-2.9074,-2.8402,-2.905,-2.8866,-2.7626,-2.6332,-2.5693,-2.5693,-2.6406,-2.707,-2.7734,-2.8105,-2.8301,-2.8301,-2.8301,-2.8301,-2.8301,-2.8301,-2.8301,-2.8301,-2.8301,-2.8301,-2.8301,-2.8301,-2.8301,-2.8301,-2.8301,-2.8301,-2.8301,0.0,0.0,0.0,0.0,0.0,0.0,0.0,0.0,0.0,0.0,0.0,-2.2313,-2.2313,0.0,0.0,0.0,-2.2313,-2.2313,-2.2313,-2.2313,-2.2212,-2.2023,-2.2023,-2.1921,-2.1705,-2.1705,-2.1806,-2.2023,-2.2023,-2.1657,-2.0991,-2.0991,-2.0698,0.0,-1.9821,-1.9708,0.0,0.0,0.0,-1.975,-2.0182,-2.1521,-2.2966,-2.0372,-2.0644,-2.19,-1.8245,-1.6678,-1.6139,-1.4756,-1.3568,-1.2539,-1.1977,-1.1407,0.0,0.0,0.0,-1.435,-1.961,-2.2071,-2.3873,-2.7057,-2.8222,-2.875,-2.9603,-3.0733,-3.1712,-3.2139,-3.2566,-3.2635,-3.184,-3.044,-2.8872,-2.7349,-2.6302,-2.5625,-2.5293,-2.5527,-2.5693,-2.5693,-2.5693,-2.5693,-2.5693,-2.5693,-2.5965,-2.66,-2.8075,-2.868,-2.8096,-2.8634,-2.8355,-2.7173,-2.6207,-2.5693,-2.5693,-2.6582,-2.7441,-2.8301,-2.8301,-2.8495,-2.8794,-2.8441,-2.8495,-2.8794,-2.8441,-2.8301,-2.8301,-2.8301,-2.8301,-2.8301,-2.8301,-2.8301,-2.8301,-2.8301,-2.8301,-2.8301,0.0,0.0,0.0,0.0,0.0,0.0,0.0,0.0,0.0,0.0,0.0,-2.2313,-2.2313,-2.2313,-2.2313,-2.2313,-2.2313,-2.2313,-2.2313,-2.2313,-2.1989,-2.1292,-2.1258,0.0,-2.0137,-2.0103,-2.0487,-2.1258,-2.1258,-2.1173,-2.0991,-2.0991,-2.0532,-1.9744,-1.9708,-1.9708,-1.9708,0.0,0.0,-1.9844,-2.1427,-2.214,-2.2207,-2.1525,-2.1363,-2.1086,-1.8158,0.0,-1.6775,-1.4916,-1.409,-1.3517,-1.1768,-1.1384,-1.1465,0.0,0.0,0.0,-1.6823,-1.8078,-1.9585,-2.3923,-2.5026,-2.5879,-2.9076,-2.9854,-3.0357,-3.1888,-3.224,-3.2373,-3.2925,-3.1,-2.8982,-2.7746,-2.6504,-2.5674,-2.5654,-2.5674,-2.5693,-2.5693,-2.5693,-2.5693,-2.5693,-2.5693,-2.6696,-2.905,-2.8283,-2.819,-2.928,-2.8262,-2.7125,-2.582,-2.5742,-2.5693,-2.5693,-2.6582,-2.7441,-2.8301,-2.8301,-2.8953,-3.0172,-2.89,-2.9006,-3.012,-2.8847,-2.8301,-2.8301,-2.8301,-2.8301,-2.8301,-2.8301,-2.8301,-2.8301,-2.8301,-2.8301,-2.8301,0.0,0.0,0.0,0.0,0.0,0.0,0.0,0.0,0.0,0.0,0.0,0.0,0.0,-2.2313,-2.2313,-2.2313,-2.2313,-2.2313,-2.2313,-2.1854,-2.1495,-2.1224,-2.0703,-2.0285,-2.0002,-2.0002,-2.0149,-2.0433,-2.0433,-2.0163,-1.9662,-2.0096,-1.9624,-1.8446,-1.9318,-1.9708,-1.9708,-1.9708,0.0,-1.9844,-2.1527,-2.3243,-2.4513,-2.2248,0.0,0.0,0.0,0.0,0.0,-1.7255,-1.5319,-1.3344,-1.2682,-1.1802,-1.0983,-1.0744,-1.1645,-1.329,-1.607,-1.725,-1.848,-2.1845,-2.4004,-2.5636,-2.6816,-2.8775,-3.0482,-3.106,-3.1738,-3.2055,-3.1461,-3.0275,-2.9258,-2.8819,-2.703,-2.5693,-2.5693,-2.5693,-2.5693,-2.5693,-2.5693,-2.5693,-2.5693,-2.5693,-2.6428,-2.8143,-2.7861,-2.7767,-2.8215,-2.7814,-2.703,-2.5742,-2.5693,-2.5947,-2.6543,-2.6855,-2.7441,-2.8301,-2.8301,-2.8548,-2.9059,-2.9408,-2.9355,-2.9059,-2.9408,-2.9112,-2.8301,-2.8301,-2.8301,-2.8388,-2.925,-2.9565,-2.9723,-3.0566,-3.0876,-3.0876,0.0,0.0,0.0,0.0,0.0,0.0,0.0,0.0,0.0,-2.2313,0.0,0.0,0.0,0.0,-2.2313,-2.2313,-2.2313,-2.2178,-2.1955,-2.1461,-2.0953,-2.0446,-1.9925,-1.9507,-1.9258,-1.927,-1.9372,-1.9642,-1.953,-1.926,-1.8925,-1.9242,-1.878,-1.7758,-1.8642,-1.9151,0.0,0.0,0.0,-1.9897,0.0,0.0,-2.5925,0.0,0.0,0.0,0.0,0.0,0.0,0.0,0.0,0.0,-1.465,-1.2647,-1.0694,-1.0694,-1.1234,-1.2312,-1.4519,-1.5542,-1.6697,-1.966,-2.1769,-2.3502,-2.4983,-2.6909,-2.8642,-2.9594,-3.0171,-3.0368,-2.9765,-2.9037,-2.8622,-2.8797,-2.7078,-2.5693,-2.5693,-2.5693,-2.5693,-2.5693,-2.5693,-2.5693,-2.5693,-2.5693,-2.638,-2.8096,-2.7458,0.0,-2.8168,-2.741,-2.6572,-2.5742,-2.583,-2.6289,-2.7012,-2.7168,-2.7598,-2.8301,-2.8301,-2.8741,-2.967,-3.012,-3.0068,-2.965,-3.012,-2.9565,-2.8301,-2.8301,-2.8548,-2.9059,-2.9964,-3.0566,-3.1081,-3.1977,-3.228,-3.228,0.0,0.0,0.0,0.0,0.0,0.0,0.0,0.0,-2.2313,-2.2313,0.0,0.0,0.0,0.0,0.0,-2.2313,-2.2313,-2.1989,-2.1258,-2.119,-2.0479,-1.8978,-1.8877,-1.8538,-1.7817,-1.7783,-1.8155,-1.8831,-1.8527,-1.8528,-1.8815,-1.8511,-1.813,-1.7639,-1.7699,-1.8057,-1.8702,0.0,-1.9678,-2.0009,0.0,-2.5301,-2.6071,0.0,0.0,0.0,-2.2643,-2.0991,0.0,-2.187,0.0,0.0,0.0,-1.3817,-1.0769,-1.0719,-1.0694,0.0,0.0,0.0,0.0,0.0,-1.8154,-1.9359,-2.3647,-2.4293,-2.4732,-2.7466,-2.7602,-2.7417,-2.7914,-2.7408,-2.7012,-2.7427,-2.6504,-2.5693,-2.5693,-2.5742,-2.5791,-2.5791,-2.5791,-2.5791,-2.5839,-2.5791,-2.6791,-2.9258,-2.7173,-2.6839,-2.9258,-2.7078,-2.5693,-2.5693,-2.6172,-2.6582,-2.7012,-2.7441,-2.7871,-2.8301,-2.8301,-2.965,-3.218,-3.0927,-3.103,-3.218,-3.0927,-2.9618,-2.8335,-2.8335,-2.9164,-3.0307,-3.0359,-3.1235,-3.2381,-3.2381,-3.2431,-3.2431,0.0,0.0,0.0,0.0,0.0,-2.2313,-2.2313,-2.2313,-2.2313,0.0,0.0,0.0,-2.2313,-2.2313,-2.2313,-2.2313,-2.2313,-2.1989,-2.1258,-2.067,-1.9913,-1.8944,-1.8403,-1.8031,-1.7783,-1.7783,-1.7782,-1.7738,-1.7653,-1.7403,-1.7027,-1.7413,-1.7164,-1.6383,-1.728,-1.7818,-1.8027,-1.8702,0.0,-2.0065,-2.4127,-2.5522,0.0,0.0,0.0,0.0,0.0,-2.4539,-2.4664,0.0,-2.2472,-1.9033,0.0,0.0,0.0,-1.1044,0.0,0.0,-1.1625,0.0,0.0,0.0,0.0,0.0,0.0,-2.2039,-2.3782,-2.5397,-2.5878,-2.608,-2.6152,-2.6335,-2.6198,-2.5424,-2.5503,-2.5693,-2.5693,-2.6476,-2.7078,-2.7078,-2.7078,-2.7389,-2.8308,-2.7579,-2.8075,0.0,-2.8448,-2.7767,-2.9326,-2.7078,-2.5693,-2.5693,-2.6172,-2.6582,-2.7012,-2.7441,-2.7871,-2.8301,-2.8301,-2.9197,-3.0876,-3.1469,-3.1418,-3.0876,-3.1469,-3.0979,-2.9755,-2.9755,-2.9964,-3.0514,-3.2504,-3.3476,-3.392,-3.4896,-3.5259,-3.5259,0.0,0.0,-2.2313,-2.2313,-2.2313,-2.2313,-2.2313,-2.2564,-2.2767,0.0,0.0,0.0,-2.2801,-2.2767,-2.2632,-2.2313,-2.2313,-2.1989,-2.1258,-2.0467,-1.9676,-1.891,-1.82,-1.7783,-1.7783,-1.749,-1.7244,-1.7064,-1.6492,-1.6032,-1.5625,-1.5787,-1.5513,-1.5005,-1.6039,-1.6802,-1.7324,-1.7997,0.0,0.0,-2.4003,0.0,0.0,-2.7328,-2.8569,0.0,0.0,0.0,-2.6575,-2.7143,-2.4255,0.0,0.0,0.0,0.0,0.0,0.0,0.0,0.0,0.0,0.0,0.0,0.0,0.0,0.0,0.0,0.0,0.0,-2.436,-2.4341,-2.4438,-2.4737,-2.4804,-2.4258,-2.4727,-2.5254,-2.543,-2.6099,-2.6825,-2.751,-2.76,-2.8096,-2.9258,-2.8773,-2.8958,-3.035,-2.868,-2.7673,-2.784,-2.6476,-2.5693,-2.5693,-2.6328,-2.6777,-2.7012,-2.7617,-2.8047,-2.8301,-2.8301,-2.9303,-3.1184,-3.1927,-3.218,-3.205,-3.2855,-3.2404,-3.1184,-3.1796,-3.1999,-3.2151,-3.3773,-3.4727,-3.5331,-3.6121,-3.6405,-3.6405,0.0,0.0,-2.2265,-2.2223,-2.2223,-2.2242,-2.2252,-2.2839,-2.3276,0.0,-2.3961,-2.416,-2.3504,-2.3482,-2.3241,-2.2496,-2.2415,-2.2057,-2.1258,-2.0521,-1.9778,-1.8956,-1.8268,-1.7839,-1.7648,-1.6984,-1.6591,-1.6437,-1.5244,-1.4651,-1.4606,-1.4056,-1.3812,-1.3812,-1.4483,-1.5516,-1.6741,-1.7413,0.0,-2.0292,-2.3614,-2.5411,0.0,0.0,-2.8734,-2.8873,-2.8586,-2.7812,-2.7203,-2.885,-2.6414,0.0,0.0,0.0,0.0,0.0,-1.2689,0.0,0.0,0.0,0.0,0.0,0.0,0.0,0.0,0.0,0.0,0.0,-2.2513,-2.2001,-2.2526,-2.2559,-2.2652,-2.3086,-2.3574,-2.418,-2.4949,-2.5263,-2.592,-2.7296,-2.7666,-2.8272,-2.942,-2.942,-2.9442,-2.9761,-2.8541,-2.7173,-2.5791,-2.5693,-2.5713,-2.5752,-2.6582,-2.7031,-2.709,-2.7891,-2.8301,-2.8301,-2.8301,-2.9702,-3.228,-3.228,-3.3055,-3.4385,-3.4385,-3.3723,-3.2632,-3.3871,-3.4385,-3.4434,-3.4581,-3.5379,-3.6405,-3.6405,-3.6405,-3.6405,-2.2313,-2.2313,-2.218,-2.1794,-2.1749,-2.1827,-2.2021,-2.2166,-2.249,-2.3003,-2.3521,-2.3819,-2.367,-2.4021,-2.4,-2.3241,-2.3173,-2.2632,-2.1292,-2.1055,-2.0344,-1.8956,-1.8741,-1.804,-1.6631,-1.6464,-1.5846,-1.4776,-1.4511,-1.4225,-1.3982,-1.3845,-1.3812,-1.3812,-1.4483,-1.5516,-1.6741,-1.7413,0.0,-2.2016,-2.5256,0.0,-2.5453,-2.9662,-3.0839,-3.0227,-3.0149,-2.9996,-2.9528,-2.7756,-2.6197,-2.433,0.0,0.0,0.0,-1.45,0.0,0.0,0.0,0.0,0.0,0.0,0.0,0.0,0.0,-1.5456,-1.6265,0.0,-1.8115,-1.8019,-1.9451,-1.9306,-1.9043,-1.9121,-2.0078,-2.168,-2.418,-2.6184,-2.7147,-2.6626,-2.812,-2.9526,-3.0296,-2.9394,-2.9755,-3.2215,-3.0328,-2.8075,-2.5839,-2.5693,-2.5849,-2.625,-2.6758,-2.7187,-2.7539,-2.8047,-2.8301,-2.8301,-2.8301,-2.9702,-3.228,-3.228,-3.3055,-3.4385,-3.4385,-3.4239,-3.4019,-3.4288,-3.4385,-3.4532,-3.5571,-3.6168,-3.6405,-3.6405,-3.6405,-3.6405,-2.1645,-2.1645,-2.1584,-2.1337,-2.1583,-2.1843,-2.1966,-2.2603,-2.3266,-2.3832,-2.447,-2.4691,-2.4295,-2.4279,-2.4116,-2.3597,-2.3212,-2.2802,-2.2327,-2.1384,-2.0504,-1.971,-1.8811,-1.792,-1.7052,-1.6047,-1.5164,-1.4494,-1.3655,-1.3166,-1.3004,-1.2866,-1.2987,-1.3316,-1.4004,-1.5187,-1.6741,0.0,-1.9889,-2.3525,-2.5209,0.0,-2.6749,-2.974,-3.0916,-3.0959,-3.0708,-3.0608,-3.0407,-2.9001,-2.6866,0.0,0.0,-2.1543,-1.9987,0.0,-1.6475,-1.6748,0.0,0.0,0.0,-1.3215,0.0,0.0,0.0,0.0,-1.5751,-1.7449,-1.7366,-1.737,-1.8701,-1.8538,-1.8267,-1.8415,-1.9709,-2.0796,-2.1173,-2.3718,-2.5932,-2.6997,0.0,0.0,-3.1229,-3.0567,-3.0228,-3.0818,-2.8629,-2.6831,-2.5771,-2.5693,-2.5937,-2.6387,-2.6797,-2.7226,-2.7708,-2.8086,-2.8301,-2.8301,-2.8301,-2.9702,-3.228,-3.228,-3.3453,-3.5427,-3.5427,-3.5427,-3.5427,-3.5427,-3.5427,-3.5475,-3.6168,-3.6405,-3.6405,-3.6405,-3.6405,-3.6405,-2.0959,-2.0991,-2.0959,-2.0878,-2.1417,-2.1874,-2.1946,-2.3033,-2.4068,-2.4664,-2.5529,-2.5812,-2.519,-2.5214,0.0,0.0,0.0,-2.4193,-2.3712,-2.2321,-2.1186,-2.0414,-1.8847,-1.7836,-1.7513,-1.5729,-1.4669,-1.4327,-1.2986,-1.2241,-1.2107,-1.2048,-1.228,-1.2861,-1.4423,0.0,0.0,0.0,0.0,-2.4626,0.0,-2.6627,-2.9328,-3.0227,-3.1269,-3.2133,-3.1216,-3.0934,-3.0859,-3.0432,-2.7846,-2.4808,-2.4933,-2.3251,0.0,0.0,0.0,0.0,0.0,0.0,0.0,0.0,0.0,-1.3557,0.0,0.0,0.0,0.0,0.0,0.0,0.0,0.0,0.0,0.0,0.0,0.0,0.0,-2.0143,0.0,0.0,0.0,0.0,-3.0786,-3.1038,-3.0306,-2.8388,-2.6451,-2.5451,-2.5703,-2.5615,-2.5879,-2.6484,-2.6836,-2.7266,-2.7826,-2.8125,-2.8301,-2.8301,-2.8548,-2.9964,-3.2331,-3.2582,-3.4044,-3.6405,-3.6405,-3.6405,-3.6405,-3.6405,-3.6405,-3.6405,-3.6405,-3.6405,-3.6405,-3.6405,-3.6405,-3.643,-2.0845,-2.0991,-2.0862,-2.0434,-2.094,-2.1448,-2.1689,-2.2355,-2.3281,-2.448,-2.5641,-2.6318,-2.6234,0.0,0.0,0.0,0.0,-2.916,-2.499,-2.5091,-2.3692,-2.0111,-1.9199,-1.8067,-1.6493,-1.5653,-1.4504,-1.3026,-1.2829,-1.2415,-1.1863,-1.2411,-1.2741,-1.3011,-1.7805,0.0,0.0,0.0,-2.3616,0.0,-2.5282,-2.8643,0.0,-3.3319,-3.4161,-3.5015,-3.281,-3.2039,-3.1738,0.0,-2.8448,-2.7067,0.0,-2.4406,-2.5159,-1.8631,0.0,0.0,0.0,0.0,0.0,0.0,-1.3584,0.0,0.0,0.0,0.0,-1.4425,0.0,0.0,0.0,0.0,0.0,0.0,0.0,0.0,-1.4577,0.0,0.0,0.0,0.0,0.0,0.0,-2.8568,-2.9121,-2.7101,-2.6455,-2.6038,-2.5741,-2.5352,-2.5703,-2.6914,-2.6992,-2.7402,-2.8203,-2.8262,-2.8301,-2.8281,-2.9513,-3.0876,-3.2331,-3.3624,-3.4969,-3.6405,-3.6405,-3.6405,-3.6405,-3.6405,-3.6405,-3.6405,-3.6405,-3.6405,-3.6405,-3.6405,-3.6405,-3.648,-2.0189,-2.0258,-2.0158,-1.9997,-2.0825,-2.1568,-2.1674,-2.3152,-2.4466,-2.4972,-2.5843,-2.6554,-2.6956,0.0,0.0,0.0,0.0,-2.8919,-2.683,-2.6322,-2.45,-2.0862,-1.9834,-1.8666,-1.7137,-1.6104,-1.4853,-1.3376,-1.2999,-1.246,-1.182,-1.249,-1.2999,-1.3585,-1.8506,0.0,-1.9791,0.0,-2.5688,0.0,0.0,0.0,0.0,-3.3105,-3.2978,-3.3604,-3.2954,-3.2491,-3.2064,0.0,-2.9202,0.0,0.0,0.0,0.0,0.0,0.0,0.0,0.0,0.0,0.0,0.0,0.0,0.0,-1.4011,0.0,-1.2814,0.0,0.0,0.0,0.0,0.0,0.0,0.0,-1.3621,0.0,0.0,0.0,0.0,0.0,0.0,0.0,0.0,0.0,0.0,0.0,-2.678,-2.6495,-2.8211,-2.7407,-2.7382,-2.8533,-2.7827,-2.8073,-2.946,-2.946,-2.9859,-3.0618,-3.1184,-3.218,-3.3552,-3.4117,-3.5114,-3.6405,-3.6405,-3.6405,-3.6405,-3.6405,-3.6405,-3.643,-3.6757,-3.6681,-3.6455,-3.6782,-3.6835,-3.691,-1.9708,-1.9708,-1.9708,-1.9708,-2.0816,-2.1874,-2.2413,-2.4195,-2.5531,-2.5715,-2.6459,-2.7194,-2.7684,-2.8082,0.0,0.0,-3.15,-3.0811,-2.908,-2.7994,-2.6054,-2.2906,-2.0793,-1.957,-1.9313,-1.7356,-1.5664,-1.4363,-1.3688,-1.2909,-1.21,-1.2759,-1.3436,-1.429,-1.9121,-2.1515,-2.2143,0.0,-2.7794,-3.0601,-2.9938,-3.1685,-3.4556,-3.3157,-3.2548,-3.2516,-3.2918,-3.2817,-3.239,-3.1938,-2.9804,0.0,-2.8586,0.0,0.0,0.0,0.0,0.0,-1.8606,0.0,0.0,0.0,0.0,0.0,0.0,0.0,0.0,0.0,0.0,0.0,0.0,0.0,0.0,0.0,0.0,0.0,0.0,0.0,0.0,0.0,0.0,0.0,0.0,0.0,0.0,0.0,0.0,-2.6584,-2.9621,-2.8666,-2.8648,-2.9978,-2.8901,-2.9064,-3.0824,-3.0876,-3.1316,-3.228,-3.2682,-3.3403,-3.4434,-3.4775,-3.5475,-3.6405,-3.6405,-3.6405,-3.6405,-3.6405,-3.6505,-3.6681,-3.7036,-3.7036,-3.6908,-3.7262,-3.7412,-3.7487,-1.9708,-1.9708,-1.9708,-1.9708,-2.0816,-2.2323,-2.4216,-2.5136,-2.5818,-2.6477,-2.7705,-2.8543,-2.8573,-3.2527,-3.4951,0.0,-3.7828,-3.7558,-3.1778,-3.076,-2.9202,-2.6537,-2.2104,-2.0857,-2.337,-1.9612,-1.7011,-1.5739,-1.5065,-1.4047,-1.2789,-1.3466,-1.4124,-1.5005,-2.0277,-2.2643,-2.2972,-2.7525,-3.0071,-3.1091,-3.1169,-3.1373,-3.1823,0.0,-3.4578,-3.3043,-3.3111,0.0,0.0,-3.121,-3.0231,0.0,0.0,0.0,0.0,0.0,0.0,0.0,0.0,0.0,0.0,-1.6876,0.0,0.0,0.0,0.0,-1.4065,0.0,0.0,0.0,0.0,0.0,0.0,0.0,0.0,0.0,0.0,0.0,0.0,0.0,0.0,0.0,0.0,0.0,0.0,0.0,0.0,0.0,-2.85,-2.8,-2.864,-3.0778,-3.0056,-3.0456,-3.223,-3.223,-3.228,-3.2331,-3.3674,-3.4337,-3.4434,-3.5763,-3.6358,-3.6405,-3.6405,-3.6405,-3.6405,-3.6405,-3.6732,-3.7161,-3.7186,-3.7487,-3.7965,-3.7965,-3.799,-3.8065,-1.9708,-1.9708,-1.9708,-1.9708,-2.0438,-2.1695,-2.3618,-2.4874,-2.6482,-2.8876,-2.9956,-3.1361,-3.3574,-3.4831,-3.6118,-3.7614,-3.8571,-3.7494,-3.3724,-3.2856,-3.112,-2.8068,-2.4298,-2.2682,-2.358,-2.0587,-1.7971,-1.5799,-1.5589,-1.4766,-1.3466,-1.4154,-1.4826,-1.5664,0.0,-2.3901,0.0,0.0,0.0,0.0,0.0,-3.085,-3.2326,0.0,-3.2504,-3.2064,-3.286,-3.3111,0.0,-3.2441,-3.1386,-3.0256,-2.9854,-2.851,-2.6952,-2.6339,-2.5787,-2.5008,0.0,0.0,-2.3552,-1.966,0.0,0.0,0.0,0.0,0.0,0.0,0.0,0.0,0.0,0.0,0.0,0.0,0.0,0.0,0.0,0.0,0.0,0.0,0.0,0.0,0.0,0.0,0.0,0.0,0.0,0.0,0.0,-3.0876,-3.1111,-3.2554,-3.1838,-3.2124,-3.3674,-3.3723,-3.4166,-3.4993,-3.5523,-3.5715,-3.5715,-3.6216,-3.6405,-3.6405,-3.6405,-3.6405,-3.643,-3.6807,-3.701,-3.7262,-3.8015,-3.8466,-3.8567,-3.8567,-3.8567,-3.8668,-1.9738,-1.9708,-1.9708,-1.9708,-2.0438,-2.1784,-2.3999,-2.5046,-2.6871,-3.0374,-3.1421,-3.3095,-3.6447,-3.7285,-3.8362,-4.0307,-4.0487,-3.908,-3.5729,-3.534,-3.3873,-3.0821,-2.7949,-2.6632,0.0,-2.34,-2.0378,-1.8257,-1.6832,-1.556,-1.4526,-1.4692,-1.5261,0.0,0.0,-2.3541,-2.8034,-2.9142,-3.1661,0.0,0.0,-3.0742,0.0,0.0,-3.1261,-3.196,0.0,-3.3111,-3.3111,-3.3111,-3.224,-3.1235,-3.1587,-3.008,-2.8284,-2.8423,-2.772,-2.6666,-2.5711,-2.6214,0.0,-2.2498,-2.2096,0.0,-1.7978,0.0,0.0,0.0,0.0,0.0,0.0,0.0,0.0,0.0,0.0,0.0,0.0,0.0,0.0,0.0,0.0,0.0,0.0,0.0,0.0,0.0,0.0,0.0,0.0,0.0,-3.2313,-3.3903,-3.3163,-3.3513,-3.5114,-3.5114,-3.5523,-3.6405,-3.6405,-3.6405,-3.6405,-3.6405,-3.6405,-3.6405,-3.6405,-3.6531,-3.6732,-3.7036,-3.7412,-3.7864,-3.8642,-3.9045,-3.917,-3.917,-3.917,-3.922,-1.9869,-1.9738,-1.9798,-1.9887,-2.0946,-2.2652,-2.5166,-2.5621,-2.7116,-3.1182,-3.2288,-3.4023,-3.7375,-4.0038,-4.1871,-4.25,-4.3629,-4.2462,-3.7943,-3.8212,-3.7404,0.0,-3.2766,-3.2258,-3.3574,0.0,0.0,0.0,0.0,-1.6443,-1.5829,-1.5155,-1.5516,0.0,-1.7413,0.0,-2.8487,-2.9116,-3.216,-3.6204,-3.2688,-3.1021,-3.0597,-3.0131,-3.111,-3.275,-3.3005,-3.3111,-3.3111,-3.3111,-3.2717,-3.224,-3.2215,-3.1863,-3.1336,-3.0809,-3.0658,-3.0306,-2.8674,-2.7494,-2.6449,-2.5234,-2.4098,0.0,0.0,0.0,-1.8461,0.0,0.0,0.0,0.0,0.0,0.0,0.0,0.0,0.0,0.0,0.0,0.0,0.0,0.0,0.0,0.0,0.0,0.0,0.0,0.0,0.0,0.0,0.0,-3.2071,-3.4605,-3.3974,-3.4508,-3.6355,-3.6405,-3.6405,-3.6405,-3.6405,-3.6405,-3.6405,-3.6405,-3.6405,-3.6405,-3.6405,-3.6732,-3.7186,-3.7211,-3.7864,-3.8919,-3.8944,-3.922,-3.9697,-3.9697,-3.9697,-3.9697,-2.0498,-2.0438,-2.0917,-2.2353,-2.2862,-2.352,-2.4664,-2.6123,-2.8846,-3.3844,-3.5459,-3.7793,-4.2073,-4.3599,-4.4347,-4.4526,-4.4855,-4.3928,-4.1302,-4.0823,0.0,-3.8931,-3.5549,-3.4113,-3.4981,-2.8667,-2.4687,-2.337,0.0,0.0,-1.6458,-1.583,0.0,0.0,0.0,0.0,-2.6393,-2.6542,-2.8768,-3.2111,-3.1171,-3.1099,-3.163,0.0,-3.2695,-3.3297,-3.3157,-3.3111,-3.3111,-3.3111,-3.2993,-3.2792,-3.234,-3.2114,-3.1888,-3.1361,-3.1185,-3.1009,-3.0181,-3.0055,-2.9553,-2.7243,-2.644,-2.5636,0.0,0.0,0.0,0.0,0.0,0.0,0.0,0.0,0.0,0.0,0.0,0.0,0.0,0.0,0.0,0.0,0.0,0.0,0.0,0.0,0.0,0.0,0.0,0.0,0.0,0.0,0.0,-3.4048,-3.4707,-3.5233,-3.5708,-3.6157,-3.6405,-3.6405,-3.6405,-3.6405,-3.6405,-3.6405,-3.6405,-3.6405,-3.6405,-3.6732,-3.7211,-3.7638,-3.8216,-3.8969,-3.932,-3.9572,-3.9697,-3.9697,-3.9697,-3.9697,-2.1186,-2.1605,-2.2323,-2.34,-2.5285,-2.6752,-2.7116,-2.741,-2.9711,-3.5579,-3.6956,-3.905,-4.3379,-4.5005,-4.5873,-4.6142,-4.6172,-4.5214,-4.294,0.0,0.0,-4.0905,-3.923,-3.8123,-3.7644,-3.2587,0.0,-2.5794,0.0,0.0,-1.7115,0.0,0.0,0.0,0.0,-2.0628,-2.5777,-2.851,-3.0197,-3.113,-3.2031,-3.2412,0.0,-3.2929,-3.347,-3.3982,-3.3568,-3.3294,-3.3111,-3.3111,-3.3111,-3.3061,-3.2692,-3.2591,-3.2491,-3.1913,-3.1763,-3.1687,-3.1386,-3.1185,-3.0733,-2.9402,-2.89,-2.8172,-2.5937,-2.5184,-2.4518,0.0,-2.2471,-2.1759,0.0,0.0,0.0,0.0,0.0,0.0,0.0,0.0,0.0,0.0,0.0,0.0,0.0,0.0,0.0,0.0,0.0,0.0,0.0,0.0,0.0,-3.239,-3.3477,-3.4505,-3.5483,-3.5378,-3.5701,-3.6405,-3.6405,-3.6405,-3.6405,-3.6405,-3.6405,-3.643,-3.6656,-3.7036,-3.7588,-3.814,-3.8718,-3.927,-3.9572,-3.9697,-3.9697,-3.9697,-3.9697,-3.9826,-2.2203,-2.3041,-2.3909,-2.4088,-2.7739,-3.0821,-3.133,-2.9953,-3.1029,-3.7015,-3.8033,-3.9553,-4.329,-4.5323,-4.6681,-4.7249,-4.7309,-4.6322,-4.3977,-4.5352,-4.5035,-4.2162,-4.288,-4.2482,-4.0816,-3.7315,-3.3365,0.0,0.0,0.0,-1.7938,0.0,0.0,0.0,0.0,0.0,0.0,-3.1785,-3.3168,-3.1783,-3.4018,-3.4173,-3.3119,-3.3438,-3.4048,-3.4705,-3.4198,-3.3596,-3.3111,-3.3111,-3.3111,-3.3111,-3.3111,-3.3111,-3.2993,-3.2466,-3.2315,-3.2315,-3.224,-3.1587,-3.1035,-3.1411,-3.116,-3.0306,-2.8373,-2.7907,-2.7126,-2.4679,-2.3758,-2.3149,0.0,0.0,0.0,0.0,0.0,0.0,0.0,0.0,0.0,0.0,0.0,0.0,0.0,0.0,0.0,0.0,0.0,0.0,0.0,0.0,0.0,-3.0758,-3.1938,-3.3326,-3.5056,0.0,-3.4826,-3.6078,-3.6304,-3.6405,-3.6405,-3.6405,-3.6405,-3.643,-3.6983,-3.7487,-3.804,-3.8617,-3.9195,-3.9749,-3.9878,-3.9826,-3.9749,-4.0083,-4.0083,-4.0262,-2.4126,-2.4724,-2.5585,-2.6716,-2.9355,-3.2407,-3.5699,-3.5908,-3.6686,-3.9499,-4.1257,-4.314,-4.5502,-4.6591,-4.7189,-4.7309,-4.7309,-4.71,-4.6651,0.0,0.0,-4.5484,-4.4067,-4.314,-4.2781,-3.8003,-3.4023,0.0,0.0,-2.2143,-1.9301,0.0,0.0,0.0,0.0,0.0,-2.6583,-2.9174,0.0,-3.1838,-3.4406,-3.451,-3.3312,-3.5148,-3.5629,-3.5282,-3.4731,-3.3922,-3.3111,-3.3111,-3.3111,-3.3111,-3.3111,-3.3111,-3.3068,-3.2943,-3.2918,-3.2817,-3.234,-3.2416,-3.2541,-3.2164,-3.2014,-3.1838,-3.1436,-3.1009,-3.0557,-3.0038,-2.9501,-2.8562,-2.6636,0.0,0.0,0.0,0.0,0.0,0.0,0.0,0.0,0.0,0.0,0.0,0.0,0.0,0.0,0.0,0.0,0.0,0.0,0.0,0.0,0.0,-3.347,0.0,0.0,0.0,-3.5449,-3.4349,-3.5751,-3.6405,-3.6405,-3.6405,-3.6405,-3.643,-3.6983,-3.7487,-3.804,-3.8617,-3.9195,-3.98,-4.0844,-4.0642,-3.9929,-4.2084,-4.2181,-4.1319,-2.5644,-2.6452,0.0,-2.9774,-3.2587,-3.5699,-3.896,-4.0935,-4.2013,-4.1923,-4.2722,-4.3798,-4.5125,-4.6501,-4.7309,-4.7309,-4.7309,-4.7309,-4.7309,-4.701,-4.683,-4.683,-4.5532,-4.4515,-4.3828,-4.0696,-3.6596,-3.1511,0.0,-2.432,-1.9678,-1.8702,0.0,-1.8822,0.0,-2.4088,0.0,0.0,0.0,-3.2791,-3.6389,-3.6253,-3.4098,-3.5776,-3.6031,-3.5433,-3.4881,-3.4198,-3.347,-3.3169,-3.3111,-3.3111,-3.3111,-3.3111,-3.3111,-3.3111,-3.3111,-3.3061,-3.2742,-3.2641,-3.2566,-3.229,-3.2441,-3.2667,-3.2667,-3.2667,-3.2616,-3.2315,-3.1587,-3.0156,-2.7404,-2.3979,0.0,0.0,0.0,0.0,0.0,0.0,0.0,0.0,0.0,0.0,0.0,0.0,0.0,0.0,0.0,0.0,0.0,0.0,0.0,0.0,0.0,0.0,0.0,0.0,0.0,-3.5177,-3.6028,-3.6405,-3.6405,-3.6405,-3.6556,-3.681,-3.7362,-3.7939,-3.8492,-3.9069,-3.9829,-4.0693,-4.0642,-4.1019,-4.1739,-4.2301,-4.2544,-4.2593,-2.7949,-2.8697,-3.0193,-3.3245,-3.6028,-3.8721,-4.1384,-4.4377,-4.5711,-4.4127,-4.4037,-4.4336,-4.4885,-4.6352,-4.7309,-4.7309,-4.7309,-4.7309,-4.7309,-4.7189,-4.716,-4.7309,-4.6531,-4.5603,-4.4556,-4.324,-3.9349,0.0,0.0,0.0,-2.0516,-1.972,0.0,0.0,0.0,0.0,0.0,0.0,-3.6193,-3.464,-3.8503,-3.7963,-3.4981,-3.6132,-3.6182,-3.5583,-3.4931,-3.4449,-3.3972,-3.3294,-3.3111,-3.3111,-3.3111,-3.3111,-3.3111,-3.3111,-3.3111,-3.3111,-3.3111,-3.2742,-3.2416,-3.2541,-3.2918,-3.3294,-3.3395,-3.3771,-3.3947,-3.352,-3.2541,-3.0733,-2.7454,-2.5737,0.0,0.0,0.0,0.0,0.0,0.0,0.0,0.0,0.0,0.0,0.0,0.0,0.0,0.0,0.0,0.0,0.0,0.0,0.0,0.0,0.0,-3.2566,-3.3671,0.0,-3.4901,-3.5877,-3.6229,-3.6405,-3.6405,-3.6405,-3.6707,-3.7211,-3.7764,-3.8391,-3.9069,-3.9521,-4.0465,-4.1541,-4.0794,-4.1739,-4.3409,-4.2689,-4.3026,-4.3882,-3.2377,-3.1988,-3.2617,-3.7075,-3.8601,-4.0091,-4.2722,-4.4904,-4.6219,-4.604,-4.6561,-4.695,-4.701,-4.7189,-4.7309,-4.7309,-4.7309,-4.7309,-4.7309,-4.6741,-4.6681,-4.7279,-4.6082,-4.5334,-4.5214,-4.3928,-4.1107,0.0,0.0,-2.8551,0.0,-2.1994,-2.2682,0.0,0.0,0.0,0.0,-3.6656,-3.7469,-3.7731,-3.9814,-3.8549,-3.5533,-3.6684,-3.6807,-3.6157,-3.5102,-3.47,-3.4474,-3.342,-3.3111,-3.3111,-3.3111,-3.3111,-3.3111,-3.3111,-3.3111,-3.3111,-3.3111,-3.3086,-3.3119,-3.3621,-3.3771,-3.3947,-3.4449,-3.46,-3.4625,-3.4575,-3.3696,-3.1888,-2.8574,-2.7821,-2.7042,0.0,0.0,0.0,0.0,0.0,0.0,0.0,0.0,0.0,0.0,0.0,0.0,0.0,0.0,0.0,0.0,0.0,0.0,-2.8813,0.0,-3.1085,-3.0256,-3.4218,-3.5454,-3.4148,-3.5701,-3.6405,-3.6405,-3.6405,-3.6707,-3.7211,-3.7764,-3.8617,-3.9622,-3.9672,-4.0465,-4.169,-4.2738,-4.3313,-4.3646,-4.4627,-4.5115,-4.507,-3.6237,-3.6357,-3.731,-4.0786,-4.1594,-4.2632,-4.5304,-4.6381,-4.692,-4.692,-4.713,-4.7309,-4.7309,-4.7309,-4.7309,-4.7309,-4.7309,-4.7309,-4.7309,-4.707,-4.704,-4.7309,-4.68,-4.6322,-4.5933,-4.4616,-4.2154,0.0,0.0,0.0,-2.6572,-2.5668,-2.6632,-2.9209,0.0,-3.3484,-3.6264,-3.873,-3.9139,-3.8186,-3.9591,-3.8286,-3.5658,-3.7136,-3.7136,-3.6304,-3.5479,-3.4956,-3.455,-3.3445,-3.3111,-3.3111,-3.3111,-3.3111,-3.3111,-3.3111,-3.3111,-3.3144,-3.347,-3.3345,-3.3219,-3.3771,-3.4148,-3.4449,-3.4675,-3.5228,-3.5604,-3.5232,-3.4073,-3.2667,-3.1336,-2.9729,-2.8624,-2.875,0.0,0.0,0.0,0.0,0.0,0.0,0.0,0.0,0.0,0.0,0.0,0.0,0.0,0.0,0.0,0.0,0.0,-2.6892,0.0,-3.2692,-3.126,-3.4695,-3.6078,-3.5424,-3.6103,-3.6405,-3.6405,-3.6405,-3.6883,-3.7739,-3.8617,-3.9702,-4.0844,-4.0844,-4.2035,-4.3882,-4.3598,-4.4442,-4.5734,-4.5508,-4.5869,-4.6462,-3.9709,-3.9768,-4.0726,-4.3988,-4.4018,-4.4426,-4.692,-4.7309,-4.7309,-4.7309,-4.7309,-4.7309,-4.7309,-4.7309,-4.7309,-4.7309,-4.7309,-4.7309,-4.7309,-4.7309,-4.7309,-4.7309,-4.7309,0.0,-4.6279,-4.5394,-4.3439,-4.0539,-3.6503,0.0,-3.0313,-2.9052,-3.0163,-3.3304,-3.522,-3.6985,-3.865,-4.0572,-4.052,-3.9192,-3.9794,-3.8415,-3.6182,-3.7688,-3.7563,-3.6556,-3.5759,-3.5257,-3.4731,-3.3495,-3.3111,-3.3111,-3.3111,-3.3111,-3.3111,-3.3111,-3.3111,-3.3169,-3.3545,-3.337,-3.3244,-3.3972,-3.4424,-3.4801,-3.5127,-3.5805,-3.6207,-3.5608,-3.4625,-3.3746,-3.3596,-3.1964,-3.0809,-3.1311,0.0,0.0,0.0,0.0,0.0,0.0,0.0,0.0,0.0,0.0,0.0,0.0,0.0,0.0,0.0,0.0,0.0,0.0,0.0,0.0,-3.2215,-3.4977,-3.6405,-3.6405,-3.6405,-3.6405,-3.6405,-3.6757,-3.7362,-3.8366,-3.9652,-4.0794,-4.164,-4.1985,-4.3456,-4.5298,-4.4396,-4.5389,-4.7222,-4.6299,-4.655,-4.7309,-4.2821,-4.1743,-4.1833,-4.6441,-4.5633,-4.4975,-4.701,-4.7309,-4.7309,-4.7309,-4.7309,-4.7309,-4.7309,-4.7309,-4.7309,-4.7309,-4.7309,-4.7309,-4.7309,-4.7309,-4.7309,0.0,0.0,-4.701,-4.6279,-4.6279,-4.5263,-4.323,0.0,0.0,-3.4384,-3.1719,-3.2916,-3.7345,-3.7375,-3.9559,-4.3121,-4.1918,-4.1466,-4.1571,-4.0867,-3.9243,-3.7287,-3.8466,-3.8165,-3.7036,-3.5884,-3.5483,-3.5232,-3.3646,-3.3111,-3.3111,-3.3111,-3.3111,-3.3111,-3.3111,-3.3111,-3.3111,-3.3136,-3.3093,-3.3345,-3.4424,-3.4726,-3.5002,-3.6128,-3.6405,-3.6207,-3.5608,-3.5483,-3.5307,-3.4756,-3.4675,-3.3947,-3.1738,0.0,0.0,0.0,0.0,0.0,0.0,-2.6455,-2.6079,-2.9402,0.0,0.0,0.0,0.0,0.0,0.0,0.0,0.0,-2.9679,-3.1361,0.0,-3.2215,-3.4977,-3.6405,-3.6405,-3.6405,-3.6405,-3.6455,-3.7487,-3.8316,-3.8995,-4.0785,-4.1591,-4.169,-4.2978,-4.4256,-4.5389,-4.5389,-4.6166,-4.7309,-4.7266,-4.7309,-4.7309,-4.5903,-4.5544,-4.5574,-4.704,-4.677,-4.6561,-4.7219,-4.7309,-4.7309,-4.7309,-4.7309,-4.7309,-4.7309,-4.7309,-4.7309,-4.7309,-4.7309,-4.7309,0.0,-4.7309,-4.7309,-4.7309,-4.7309,-4.701,-4.6279,-4.6279,-4.5741,-4.4676,0.0,0.0,-3.9206,-3.7853,-3.899,-4.2102,-4.1654,-4.1873,-4.2615,-4.179,-4.105,-4.0381,-4.0098,-3.9069,-3.7864,-3.8994,-3.8492,-3.7086,-3.6383,-3.5583,-3.4806,-3.3947,-3.3646,-3.3646,-3.3646,-3.337,-3.3111,-3.3111,-3.3111,-3.3244,-3.3997,-3.3922,-3.3897,-3.4956,-3.5232,-3.5332,-3.573,-3.6081,-3.6355,-3.6132,-3.5805,-3.5433,-3.5282,-3.4931,-3.45,-3.3771,-3.4123,0.0,-3.2767,0.0,0.0,0.0,-2.4867,-2.4078,0.0,-2.4114,0.0,0.0,0.0,0.0,0.0,0.0,0.0,0.0,-3.2064,0.0,-3.2215,-3.4977,-3.6405,-3.6405,-3.6405,-3.6606,-3.6983,-3.7688,-3.8316,-3.8995,-4.0835,-4.2084,-4.2978,-4.4256,-4.5553,-4.6682,-4.6682,-4.6931,-4.7309,-4.7309,-4.7309,-4.7309,-4.7309,-4.7309,-4.7309,-4.7309,-4.7309,-4.7309,-4.7309,-4.7309,-4.7309,-4.7309,-4.7309,-4.7309,-4.7309,-4.7309,-4.7309,-4.7309,-4.7309,-4.7309,-4.7309,-4.7309,-4.7309,-4.7309,-4.7309,-4.701,-4.6279,-4.6561,0.0,-4.4915,-4.3299,-4.2491,-4.2462,-4.2073,-4.288,-4.4646,-4.3708,-4.3482,-4.3759,-4.1976,-4.1186,-4.109,-3.9903,-3.8843,-3.814,-3.927,-3.8768,-3.7412,-3.6885,-3.6107,-3.5203,-3.4223,-3.3771,-3.3596,-3.3596,-3.3345,-3.3111,-3.3111,-3.337,-3.3796,-3.4274,-3.4299,-3.4424,-3.5282,-3.5508,-3.5558,-3.5805,-3.6107,-3.6405,-3.6405,-3.6081,-3.5855,-3.5855,-3.5579,-3.5328,-3.5328,-3.5328,-3.4926,-3.3746,0.0,0.0,0.0,0.0,0.0,0.0,-2.6445,-2.6202,0.0,0.0,0.0,0.0,0.0,0.0,-2.9553,-3.3401,0.0,-3.3427,-3.5378,-3.6405,-3.6405,-3.6405,-3.6807,-3.7561,-3.8352,-3.9135,-4.0053,-4.2118,-4.3504,-4.4303,-4.5598,-4.6594,-4.7309,-4.7309,-4.7309,-4.7309,-4.7309,-4.7309,-4.7309,-4.7309,-4.7309,-4.7309,-4.7309,-4.7309,-4.7309,-4.7309,-4.7309,-4.7279,-4.7249,-4.7279,-4.7279,-4.7189,-4.7219,-4.7249,-4.7249,0.0,0.0,-4.7309,-4.7309,-4.7309,-4.7309,-4.7309,-4.698,-4.6262,-4.689,-4.6292,-4.4377,-4.4466,-4.4496,-4.4466,-4.4496,-4.4855,-4.5364,-4.4047,-4.4445,-4.5905,-4.2273,-4.1672,-4.3006,-3.9997,-3.8517,-3.8165,-3.9195,-3.8919,-3.7939,-3.7337,-3.6782,-3.6053,-3.4474,-3.3596,-3.3187,-3.3187,-3.3237,-3.3219,-3.3119,-3.3822,-3.455,-3.4098,-3.4349,-3.4881,-3.5433,-3.5558,-3.5683,-3.6279,-3.6405,-3.6405,-3.6405,-3.6405,-3.6405,-3.6405,-3.6405,-3.6405,-3.6405,-3.6304,-3.55,-3.337,-3.3011,-3.2139,0.0,0.0,0.0,0.0,-3.1009,-3.1562,0.0,0.0,0.0,0.0,0.0,-3.0331,-3.46,-3.5257,-3.5533,-3.5508,-3.6081,-3.6405,-3.6405,-3.6455,-3.7008,-3.8187,-3.9425,-4.0605,-4.1887,-4.4303,-4.5389,-4.5508,-4.677,-4.7309,-4.7309,-4.7309,-4.7309,-4.7309,-4.7309,-4.7309,-4.7309,-4.7309,-4.7309,-4.7309,-4.7309,-4.7309,-4.7309,-4.7309,-4.7309,-4.713,-4.6621,-4.698,-4.692,-4.5873,-4.6232,-4.6561,-4.6561,-4.701,-4.7309,-4.7309,-4.7309,-4.7309,-4.7309,-4.7309,-4.6741,-4.5574,-4.6202,-4.6052,-4.5065,-4.6082,-4.6352,-4.5831,-4.6352,-4.6681,-4.677,-4.5424,-4.4832,-4.4646,-4.1847,-4.0704,-4.0558,-3.8883,-3.8391,-3.8642,-3.8467,-3.8241,-3.7889,-3.6958,-3.5931,-3.5052,-3.465,-3.4148,-3.3696,-3.3696,-3.4274,-3.468,-3.3445,-3.3571,-3.4148,-3.4449,-3.4881,-3.5433,-3.6031,-3.6182,-3.6207,-3.638,-3.6405,-3.6405,-3.6405,-3.6405,-3.6405,-3.6405,-3.6405,-3.6405,-3.6405,-3.5349,-3.4148,-3.3219,-3.1989,-3.0859,0.0,-2.9679,-3.0231,-3.1863,-3.1913,-3.2064,0.0,0.0,0.0,0.0,-3.2064,-3.2315,-3.465,-3.5655,-3.5981,-3.5508,-3.6081,-3.6405,-3.6405,-3.6784,-3.7891,-3.9494,-4.0228,-4.1486,-4.3122,-4.472,-4.5389,-4.5508,-4.677,-4.7309,-4.7309,-4.7309,-4.7309,-4.7309,-4.7309,-4.7309,-4.7309,-4.7309,-4.7309,-4.7219,-4.692,-4.686,-4.6741,-4.6441,-4.6381,-4.6262,-4.5903,-4.6172,-4.6112,-4.5364,-4.5633,-4.5843,-4.5843,-4.6471,-4.686,-4.686,-4.686,-4.6711,-4.6411,-4.6381,-4.6052,-4.5304,-4.5663,-4.5514,-4.4855,-4.6202,-4.6501,-4.5873,-4.6531,-4.6572,-4.6005,-4.468,-4.3776,-4.3048,-4.0539,-3.9658,-3.9707,-3.8225,-3.7814,-3.809,-3.804,-3.7839,-3.7563,-3.696,-3.6031,-3.5006,-3.4756,-3.4198,-3.352,-3.352,-3.3922,-3.4248,-3.3345,-3.3822,-3.463,-3.47,-3.5082,-3.5633,-3.6279,-3.6405,-3.6405,-3.6405,-3.6405,-3.6405,-3.6405,-3.6405,-3.6405,-3.6405,-3.6405,-3.6405,-3.6405,-3.4977,-3.3796,-3.3495,-3.2014,-3.1135,-3.1612,-3.1662,-3.2215,-3.3552,-3.3702,-3.3702,-3.3702,-3.3702,0.0,-3.4595,-3.4274,-3.4525,-3.5454,-3.5805,-3.6081,-3.6307,-3.6835,-3.7236,-3.7561,-3.7538,-3.8674,-4.0689,-4.1367,-4.2642,-4.4442,-4.5734,-4.6255,-4.6299,-4.7019,-4.7309,-4.7309,-4.7309,-4.7309,-4.7309,-4.7309,-4.7309,-4.7309,-4.713,-4.716,-4.698,-4.6369,-4.6279,-4.6082,-4.5394,-4.5304,-4.5244,-4.5155,-4.5244,-4.5214,-4.5035,-4.5095,-4.5155,-4.5155,-4.5693,-4.601,-4.613,-4.6219,-4.6022,-4.5334,-4.5304,-4.5304,-4.5304,-4.5304,-4.4975,-4.4317,-4.5622,-4.5963,-4.5304,-4.6112,-4.5782,-4.4542,-4.3286,-4.235,-4.1477,-3.9104,-3.8662,-3.9485,-3.7789,-3.7111,-3.7236,-3.7613,-3.7513,-3.7186,-3.7086,-3.6408,-3.5408,-3.4856,-3.4048,-3.3237,-3.3136,-3.3187,-3.3194,-3.3194,-3.4198,-3.5157,-3.468,-3.5006,-3.5633,-3.6279,-3.6405,-3.6405,-3.6405,-3.6405,-3.6405,-3.6405,-3.6405,-3.6405,-3.6405,-3.6405,-3.6329,-3.6078,-3.46,-3.352,-3.352,-3.229,-3.2014,-3.3696,-3.4123,-3.465,-3.5533,-3.5633,-3.5633,-3.5633,-3.5633,-3.5881,-3.638,-3.6405,-3.6455,-3.6531,-3.5956,-3.6207,-3.7287,-3.7764,-3.8291,-3.8919,-3.8641,-3.9713,-4.1777,-4.2689,-4.4054,-4.5734,-4.6814,-4.7309,-4.7309,-4.7309,-4.7309,-4.7309,-4.7309,-4.7309,-4.7309,-4.7309,-4.7309,-4.7309,-4.6352,-4.6471,-4.6399,-4.6352,-4.6279,-4.6082,-4.5394,-4.5304,-4.5095,-4.4526,-4.4945,-4.4855,-4.3708,-4.4137,-4.4466,-4.4466,-4.4556,-4.4855,-4.5424,-4.5992,-4.6022,-4.5334,-4.5304,-4.5304,-4.5304,-4.5304,-4.4975,-4.4317,-4.5622,-4.5963,-4.5334,-4.6561,-4.6239,-4.4571,-4.3777,-4.252,-4.0852,-3.8916,-3.8213,-3.828,-3.7002,-3.6807,-3.7136,-3.6807,-3.6908,-3.7136,-3.6707,-3.6081,-3.5408,-3.4856,-3.4299,-3.3696,-3.3219,-3.3395,-3.3771,-3.3771,-3.3947,-3.4148,-3.4048,-3.4731,-3.5633,-3.6279,-3.6405,-3.6405,-3.6405,-3.6405,-3.6405,-3.6405,-3.6405,-3.6405,-3.6405,-3.6405,-3.5952,-3.45,-3.2867,-3.1788,-3.1788,-3.1562,-3.2014,-3.3696,-3.5127,-3.6103,-3.6254,-3.6279,-3.6279,-3.6279,-3.6279,-3.6329,-3.6405,-3.6405,-3.6631,-3.7036,-3.6581,-3.6759,-3.7864,-3.7965,-3.8291,-3.8919,-4.0329,-4.1533,-4.2571,-4.4242,-4.5737,-4.7019,-4.7222,-4.7309,-4.7309,-4.7309,-4.7309,-4.7309,-4.7309,-4.7309,-4.7309,-4.7309,-4.7309,-4.7309,-4.5693,-4.5783,-4.5663,-4.5304,-4.5244,-4.5005,-4.4347,-4.4227,-4.4137,-4.3798,-4.4047,-4.4018,-4.3349,-4.3559,-4.3738,-4.3738,-4.4107,-4.4287,-4.4257,-4.4855,-4.4945,-4.4257,-4.4227,-4.4227,-4.4227,-4.4915,-4.4796,-4.3738,-4.5442,-4.5783,-4.4796,-4.6501,-4.5943,-4.3517,-4.289,-4.1424,-3.9222,-3.7782,-3.7196,-3.715,-3.6615,-3.6556,-3.6757,-3.6505,-3.6556,-3.6757,-3.6505,-3.6006,-3.5408,-3.4856,-3.4349,-3.3796,-3.3244,-3.3244,-3.3445,-3.3445,-3.3671,-3.3972,-3.4248,-3.468,-3.5303,-3.6204,-3.6405,-3.6405,-3.6405,-3.6405,-3.6405,-3.6405,-3.6405,-3.6405,-3.6405,-3.6405,-3.5877,-3.4173,-3.3244,-3.2742,-3.2742,-3.2742,-3.337,-3.5027,-3.5952,-3.6405,-3.6405,-3.6405,-3.6405,-3.6405,-3.6681,-3.6857,-3.6857,-3.7086,-3.7362,-3.7613,-3.7737,-3.8014,-3.8467,-3.9468,-4.0382,-4.1311,-4.2195,-4.3506,-4.5147,-4.5333,-4.6121,-4.7309,-4.7309,-4.7309,-4.7309,-4.7309,-4.7309,-4.7309,-4.7309,-4.7309,-4.7309,-4.7309,-4.7309,-4.7309,-4.5035,-4.5065,-4.4915,-4.4407,-4.4317,-4.4077,-4.3379,-4.329,-4.329,-4.329,-4.329,-4.329,-4.329,-4.329,-4.329,-4.329,-4.3768,-4.3828,-4.3319,-4.3768,-4.3828,-4.3319,-4.3439,-4.3529,-4.3529,-4.4556,-4.4646,-4.3738,-4.5334,-4.5544,-4.4586,-4.6441,-4.5618,-4.2566,-4.2048,-4.0586,-3.8424,-3.701,-3.6546,-3.6756,-3.6499,-3.6405,-3.6405,-3.6405,-3.6405,-3.6405,-3.6405,-3.6081,-3.5608,-3.5056,-3.455,-3.3997,-3.3445,-3.3194,-3.3111,-3.3111,-3.337,-3.3822,-3.4374,-3.4525,-3.4801,-3.5906,-3.6182,-3.6207,-3.638,-3.6405,-3.6405,-3.6405,-3.6405,-3.6405,-3.6405,-3.6405,-3.5877,-3.4173,-3.3897,-3.3897,-3.3897,-3.3897,-3.45,-3.6204,-3.6405,-3.6405,-3.6405,-3.6531,-3.6606,-3.6606,-3.7061,-3.7387,-3.7387,-3.7789,-3.8065,-3.8191,-3.8517,-3.8793,-3.9069,-4.0891,-4.2301,-4.3173,-4.3965,-4.5232,-4.6753,-4.6123,-4.6388,-4.7309,-4.7309,-4.7309,-4.7309,-4.7309,-4.7309,-4.7309,-4.7309,-4.7309,-4.7309,-4.7309,-4.7309,-4.7309,-4.4257,-4.4377,-4.4377,-4.4317,-4.4317,-4.4077,-4.3379,-4.329,-4.329,-4.329,-4.329,-4.329,-4.329,-4.329,-4.329,-4.329,-4.3349,-4.3349,-4.329,-4.3349,-4.3349,-4.329,-4.3888,-4.4257,-4.4257,-4.4347,-4.4646,-4.5155,-4.5304,-4.5304,-4.5244,-4.6651,-4.5618,-4.2566,-4.2048,-4.1035,-3.9623,-3.7335,-3.701,-3.788,-3.6849,-3.6405,-3.6405,-3.6405,-3.6405,-3.6405,-3.6405,-3.638,-3.6254,-3.5633,-3.5082,-3.4575,-3.4022,-3.3495,-3.3111,-3.3111,-3.3136,-3.3269,-3.3796,-3.3947,-3.4223,-3.5282,-3.5558,-3.5683,-3.6279,-3.6405,-3.6405,-3.6405,-3.6405,-3.6405,-3.6405,-3.6405,-3.5877,-3.4173,-3.3897,-3.3897,-3.3897,-3.3897,-3.45,-3.6204,-3.6405,-3.6405,-3.6405,-3.6883,-3.7136,-3.7136,-3.7638,-3.7939,-3.7939,-3.799,-3.8241,-3.8844,-3.8316,-3.8567,-3.9622,-4.159,-4.2486,-4.2541,-4.5476,-4.6429,-4.5578,-4.6668,-4.7222,-4.7309,-4.7309,-4.7309,-4.7309,-4.7309,-4.7309,-4.7309,-4.7309,-4.7309,-4.7309,-4.7309,-4.7309,-4.7309,-4.3618,-4.3977,-4.4197,-4.3738,-4.4007,-4.4077,-4.3379,-4.329,-4.329,-4.329,-4.329,-4.329,-4.329,-4.329,-4.329,-4.329,-4.329,-4.329,-4.329,-4.329,-4.329,-4.329,-4.3529,-4.3678,-4.3678,-4.4107,-4.4436,-4.4676,-4.5514,-4.5514,-4.4706,-4.6052,-4.4984,-4.199,-4.221,-4.1405,-3.9798,-3.8179,-3.7723,-3.7971,-3.6849,-3.6405,-3.6405,-3.6405,-3.6405,-3.6405,-3.6405,-3.6405,-3.6329,-3.5683,-3.5357,-3.5031,-3.4173,-3.3746,-3.352,-3.3212,-3.3111,-3.3119,-3.3345,-3.3646,-3.4173,-3.5232,-3.5508,-3.5633,-3.6279,-3.6405,-3.6405,-3.6405,-3.6405,-3.6405,-3.6405,-3.6405,-3.5877,-3.4173,-3.4751,-3.5077,-3.4048,-3.4776,-3.5701,-3.6329,-3.6707,-3.6933,-3.6933,-3.7362,-3.7688,-3.7688,-3.8216,-3.8542,-3.8542,-3.962,-4.0324,-4.0558,-4.1086,-4.1448,-4.1489,-4.3791,-4.5112,-4.5552,-4.7097,-4.7657,-4.7229,-4.7241,-4.7309,-4.7309,-4.7309,-4.7309,-4.7309,-4.7309,-4.7309,-4.7309,-4.7309,-4.7309,-4.7309,-4.7309,-4.7309,-4.7309,-4.329,-4.3648,-4.3828,-4.3379,-4.3678,-4.3798,-4.3349,-4.329,-4.329,-4.329,-4.329,-4.329,-4.329,-4.329,-4.329,-4.329,-4.329,-4.329,-4.329,-4.329,-4.329,-4.329,-4.329,-4.3379,-4.3589,-4.4077,-4.4526,-4.4945,-4.5663,-4.5544,-4.4646,-4.5574,-4.459,-4.214,-4.246,-4.198,-4.0831,-3.889,-3.8334,-3.8514,-3.7036,-3.6405,-3.6405,-3.6405,-3.6405,-3.6405,-3.6405,-3.6405,-3.6355,-3.5931,-3.5633,-3.5357,-3.4605,-3.4173,-3.3796,-3.3244,-3.3111,-3.3111,-3.3111,-3.3345,-3.3897,-3.4956,-3.5232,-3.5433,-3.6229,-3.6405,-3.6405,-3.6405,-3.6405,-3.6405,-3.6405,-3.6405,-3.6028,-3.4851,-3.5676,-3.6003,-3.4826,-3.5852,-3.6656,-3.6656,-3.7111,-3.7437,-3.7437,-3.7939,-3.8266,-3.8266,-3.8818,-3.912,-3.912,-4.0711,-4.1591,-4.1591,-4.3218,-4.397,-4.3803,-4.5515,-4.6501,-4.6778,-4.7821,-4.8177,-4.7967,-4.7519,-4.7309,-4.7309,-4.7309,-4.7309,-4.7309,-4.7309,-4.7309,-4.7309,-4.7309,-4.7309,-4.7309,-4.7309,-4.7309,-4.7309,-4.329,-4.329,-4.329,-4.329,-4.329,-4.329,-4.329,-4.329,-4.329,-4.329,-4.329,-4.329,-4.329,-4.329,-4.329,-4.329,-4.329,-4.329,-4.329,-4.329,-4.329,-4.329,-4.329,-4.3589,-4.4317,-4.4317,-4.4975,-4.6279,-4.5633,-4.5304,-4.5304,-4.5274,-4.4586,-4.328,-4.2823,-4.2889,-4.3061,-3.9596,-3.8827,-3.9694,-3.7335,-3.6405,-3.6405,-3.6405,-3.6405,-3.6405,-3.6405,-3.6405,-3.6405,-3.6405,-3.6006,-3.5508,-3.5508,-3.4731,-3.3796,-3.3244,-3.3111,-3.3111,-3.3111,-3.3111,-3.3345,-3.4449,-3.468,-3.5002,-3.6153,-3.6405,-3.6405,-3.6405,-3.6405,-3.6405,-3.6405,-3.6405,-3.6405,-3.6405,-3.6405,-3.6405,-3.6405,-3.6835,-3.7186,-3.7186,-3.7688,-3.8015,-3.8015,-3.8542,-3.8919,-3.8919,-3.9371,-3.9697,-3.9697,-4.0945,-4.1591,-4.164,-4.4069,-4.5751,-4.6431,-4.6431,-4.6068,-4.5463,-4.7407,-4.7938,-4.7309,-4.7309,-4.7309,-4.7309,-4.7309,-4.7309,-4.7309,-4.7309,-4.7309,-4.7309,-4.7309,-4.7309,-4.7309,-4.7309,-4.7309,-4.7309,-4.329,-4.3678,-4.3828,-4.3379,-4.3678,-4.3828,-4.3349,-4.329,-4.329,-4.329,-4.329,-4.329,-4.329,-4.329,-4.329,-4.329,-4.329,-4.329,-4.329,-4.329,-4.329,-4.329,-4.329,-4.3589,-4.4317,-4.4317,-4.4975,-4.6279,-4.5633,-4.5304,-4.5274,-4.4825,-4.3701,-4.2111,-4.2795,-4.2725,-4.1988,-4.0145,-3.9579,-3.9694,-3.7335,-3.6405,-3.6405,-3.6405,-3.6405,-3.6405,-3.6405,-3.6405,-3.6405,-3.6405,-3.6304,-3.6056,-3.5608,-3.4731,-3.3872,-3.3696,-3.337,-3.3111,-3.3111,-3.3111,-3.3244,-3.3972,-3.4424,-3.4901,-3.5629,-3.6081,-3.6405,-3.6405,-3.6405,-3.6405,-3.6405,-3.6405,-3.6405,-3.6405,-3.6405,-3.6531,-3.6885,-3.7086,-3.7337,-3.7713,-3.8266,-3.8617,-3.8617,-3.912,-3.9446,-3.9446,-3.9597,-4.0083,-4.0969,-4.223,-4.3361,-4.4256,-4.5869,-4.6815,-4.7022,-4.7511,-4.7659,-4.7451,-4.8,-4.7938,-4.7309,-4.7309,-4.7309,-4.7309,-4.7309,-4.7309,-4.7309,-4.7309,-4.7309,-4.7309,-4.7309,-4.7309,-4.7309,-4.7309,-4.7309,-4.7309,-4.329,-4.3618,-4.3768,-4.3349,-4.3618,-4.3738,-4.3349,-4.329,-4.329,-4.329,-4.329,-4.329,-4.329,-4.329,-4.329,-4.329,-4.329,-4.329,-4.329,-4.329,-4.329,-4.329,-4.329,-4.3738,-4.4676,-4.4706,-4.5364,-4.6711,-4.5753,-4.5304,-4.5274,-4.4347,-4.3326,-4.2275,-4.2981,-4.29,-4.2152,-4.0575,-3.9913,-3.9694,-3.7335,-3.6405,-3.6405,-3.6405,-3.6405,-3.6405,-3.6405,-3.6405,-3.6405,-3.6405,-3.6405,-3.6304,-3.5683,-3.5031,-3.45,-3.4299,-3.3847,-3.3395,-3.3395,-3.3244,-3.3169,-3.3495,-3.4148,-3.4831,-3.5382,-3.5981,-3.6405,-3.6405,-3.6405,-3.6405,-3.6405,-3.6405,-3.648,-3.6707,-3.6732,-3.6885,-3.7437,-3.7713,-3.7965,-3.8316,-3.8843,-3.9195,-3.9195,-3.9496,-3.9929,-4.0415,-4.0465,-4.1019,-4.2252,-4.3551,-4.4581,-4.5389,-4.6638,-4.7309,-4.7309,-4.7698,-4.7908,-4.7908,-4.7908,-4.7698,-4.7309,-4.7309,-4.7309,-4.7309,-4.7309,-4.7309,-4.7309,-4.7309,-4.7309,-4.7309,-4.7309,-4.7309,-4.7309,-4.7309,-4.7309,-4.7309,-4.329,-4.329,-4.329,-4.329,-4.329,-4.329,-4.329,-4.329,-4.329,-4.329,-4.329,-4.329,-4.329,-4.329,-4.329,-4.329,-4.329,-4.329,-4.329,-4.329,-4.329,-4.329,-4.329,-4.3888,-4.5185,-4.5214,-4.5903,-4.7309,-4.5903,-4.5244,-4.5274,-4.3958,-4.329,-4.329,-4.329,-4.329,-4.317,-4.0986,-3.9972,-3.9711,-3.7474,-3.6499,-3.6405,-3.6405,-3.6405,-3.6405,-3.6405,-3.6405,-3.6405,-3.6405,-3.6405,-3.6329,-3.578,-3.5533,-3.5408,-3.4906,-3.4488,-3.4149,-3.4149,-3.377,-3.3391,-3.3391,-3.4136,-3.4931,-3.5332,-3.5931,-3.6405,-3.6405,-3.6455,-3.648,-3.648,-3.6531,-3.6707,-3.7354,-3.7358,-3.7486,-3.8138,-3.8642,-3.8944,-3.8994,-3.9473,-3.9878,-3.9878,-3.9981,-4.0516,-4.169,-4.1789,-4.2301,-4.3598,-4.4794,-4.5434,-4.5598,-4.6682,-4.7309,-4.7309,-4.7309,-4.7309,-4.7309,-4.7309,-4.7309,-4.7309,-4.7309,-4.7309,-4.7309,-4.7309,-4.7309,-4.7309,-4.7309,-4.7309,-4.7309,-4.7309,-4.7309,-4.7309,-4.7309,-4.7309,-4.7309,-4.329,-4.329,-4.329,-4.329,-4.329,-4.329,-4.329,-4.329,-4.329,-4.329,-4.329,-4.329,-4.329,-4.329,-4.329,-4.329,-4.329,-4.329,-4.329,-4.329,-4.329,-4.329,-4.329,-4.3678,-4.4496,-4.4526,-4.5454,-4.7309,-4.5454,-4.4796,-4.5274,-4.3958,-4.329,-4.329,-4.329,-4.329,-4.321,-4.1823,-4.0703,-3.9754,-3.8289,-3.7196,-3.6405,-3.6405,-3.6405,-3.6405,-3.6405,-3.6405,-3.6405,-3.6405,-3.6405,-3.638,-3.6279,-3.5881,-3.5483,-3.5357,-3.5603,-3.5948,-3.5948,-3.5869,-3.5765,-3.5765,-3.5923,-3.5805,-3.5077,-3.5655,-3.6405,-3.6405,-3.6757,-3.7059,-3.7059,-3.7362,-3.8005,-3.9116,-3.8472,-3.8409,-3.995,-3.9444,-3.907,-3.9471,-4.0515,-4.1169,-4.1169,-4.2084,-4.2786,-4.3074,-4.3074,-4.3646,-4.4932,-4.5252,-4.5869,-4.6887,-4.7149,-4.7309,-4.7309,-4.7309,-4.7309,-4.7309,-4.7309,-4.7309,-4.7309,-4.7309,-4.7309,-4.7309,-4.7309,-4.7309,-4.7309,-4.7309,-4.7309,-4.7309,-4.7309,-4.7309,-4.7309,-4.7309,-4.7309,-4.7309,-4.3828,-4.4007,-4.4257,-4.4257,-4.4257,-4.4167,-4.3798,-4.3768,-4.3648,-4.3319,-4.329,-4.329,-4.329,-4.329,-4.329,-4.329,-4.329,-4.329,-4.329,-4.329,-4.329,-4.329,-4.3589,-4.3958,-4.4317,-4.4945,-4.5783,-4.683,-4.5454,-4.4975,-4.5274,-4.3958,-4.329,-4.329,-4.329,-4.329,-4.325,-4.207,-4.0958,-3.9842,-3.9227,-3.8243,-3.7196,-3.7196,-3.7196,-3.7196,-3.7196,-3.7196,-3.715,-3.6593,-3.6405,-3.6405,-3.6405,-3.6157,-3.6024,-3.6575,-3.6817,-3.7006,-3.7542,-3.7524,-3.7308,-3.7308,-3.7721,-3.7813,-3.6677,-3.7263,-3.823,-3.8833,-3.921,-3.9374,-3.9374,-3.9638,-4.0118,-4.1093,-4.0674,-4.0648,-4.1908,-4.1533,-4.1225,-4.1465,-4.2133,-4.2496,-4.2496,-4.3122,-4.374,-4.4349,-4.4396,-4.4978,-4.6255,-4.6299,-4.6594,-4.7266,-4.7608,-4.7788,-4.7788,-4.7788,-4.7788,-4.7758,-4.7459,-4.7309,-4.7309,-4.7309,-4.7309,-4.7309,-4.7309,-4.7309,-4.7309,-4.7309,-4.7309,-4.7309,-4.7309,-4.7309,-4.7309,-4.7309,-4.7309,-4.7309,-4.4796,-4.5095,-4.5424,-4.5304,-4.5304,-4.5095,-4.4556,-4.4496,-4.4257,-4.3559,-4.3469,-4.3409,-4.329,-4.329,-4.329,-4.329,-4.329,-4.329,-4.329,-4.329,-4.329,-4.329,-4.3958,-4.4317,-4.4317,-4.5592,-4.6279,-4.6279,-4.5633,-4.5304,-4.5274,-4.3958,-4.329,-4.329,-4.329,-4.329,-4.325,-4.2275,-4.1211,-4.0189,-4.0189,-3.9492,-3.8379,-3.8153,-3.8243,-3.8379,-3.8153,-3.8107,-3.7926,-3.6803,-3.6546,-3.6662,-3.6662,-3.6849,-3.715,-3.788,-3.8078,-3.8206,-3.8941,-3.8963,-3.881,-3.8894,-3.9632,-4.0145,-3.95,-3.9792,-4.0502,-4.1562,-4.1872,-4.1955,-4.1955,-4.2038,-4.2334,-4.3046,-4.299,-4.3064,-4.3704,-4.3646,-4.3504,-4.3504,-4.3693,-4.3929,-4.4116,-4.4163,-4.4581,-4.5644,-4.5734,-4.6211,-4.7266,-4.7309,-4.7309,-4.7309,-4.7848,-4.8117,-4.8117,-4.8117,-4.8117,-4.8117,-4.7578,-4.7309,-4.7309,-4.7309,-4.7309,-4.7309,-4.7309,-4.7309,-4.7309,-4.7309,-4.7309,-4.7309,-4.7309,-4.7309,-4.7309,-4.7309,-4.7309,-4.7309,-4.613,-4.607,-4.5992,-4.5394,-4.5304,-4.5274,-4.5185,-4.5155,-4.4915,-4.4257,-4.4167,-4.3917,-4.3349,-4.329,-4.329,-4.329,-4.329,-4.329,-4.329,-4.329,-4.329,-4.329,-4.3958,-4.4317,-4.4317,-4.5592,-4.6279,-4.6279,-4.5633,-4.5304,-4.5274,-4.3958,-4.329,-4.329,-4.329,-4.329,-4.329,-4.317,-4.2426,-4.1378,-4.1378,-4.0703,-3.9536,-3.8514,-3.8738,-3.9492,-3.8469,-3.8107,-3.7926,-3.6803,-3.7057,-3.7861,-3.7861,-3.8604,-3.9227,-3.8379,-3.9497,-4.0816,-4.0006,-4.0421,-4.1277,-4.1893,-4.1731,-4.1869,-4.3389,-4.261,-4.1607,-4.1744,-4.2232,-4.2574,-4.2574,-4.2943,-4.3659,-4.4835,-4.4097,-4.377,-4.4949,-4.421,-4.3504,-4.3504,-4.4442,-4.5598,-4.6682,-4.677,-4.6887,-4.7019,-4.7019,-4.7106,-4.7309,-4.7309,-4.7309,-4.7309,-4.7399,-4.7429,-4.7429,-4.7429,-4.7429,-4.7429,-4.7339,-4.7309,-4.7309,-4.7309,-4.7309,-4.7309,-4.7309,-4.7309,-4.7309,-4.7309,-4.7309,-4.7309,-4.7309,-4.7309,-4.7309,-4.7309,-4.7309,-4.7309,-4.7549,-4.7429,-4.7429,-4.7489,-4.689,-4.6411,-4.6411,-4.6112,-4.5633,-4.4945,-4.4556,-4.4197,-4.3858,-4.3499,-4.329,-4.329,-4.329,-4.329,-4.329,-4.329,-4.329,-4.329,-4.3958,-4.4317,-4.4317,-4.5592,-4.6279,-4.6279,-4.6022,-4.5663,-4.5274,-4.4317,-4.3648,-4.329,-4.329,-4.329,-4.329,-4.329,-4.2629,-4.167,-4.2275,-4.1864,-4.0788,-4.0247,-4.0376,-4.0703,-3.9536,-3.9094,-3.8917,-3.7769,-3.7678,-3.8107,-3.8107,-3.8917,-3.9929,-4.0031,-4.0802,-4.1629,-4.1782,-4.2181,-4.2695,-4.3384,-4.3653,-4.4037,-4.53,-4.5215,-4.4864,-4.4864,-4.5051,-4.5283,-4.5283,-4.5441,-4.5824,-4.6344,-4.5958,-4.5824,-4.6388,-4.5958,-4.5644,-4.5644,-4.6121,-4.6682,-4.7266,-4.7309,-4.7309,-4.7309,-4.7309,-4.7309,-4.7309,-4.7309,-4.7309,-4.7309,-4.8027,-4.8237,-4.7848,-4.8207,-4.8207,-4.7848,-4.7489,-4.7309,-4.7309,-4.7309,-4.7309,-4.7309,-4.7309,-4.7309,-4.7309,-4.7309,-4.7309,-4.7309,-4.7309,-4.7309,-4.7309,-4.7309,-4.7309,-4.7309]},{"header":{"parameterUnit":"m.s-1","parameterCategory":1,"la1":30.6,"la2":28.766,"lo1":-90.7593,"lo2":-88.6598,"dx":0.0162,"dy":0.0183,"nx":116,"ny":114,"refTime":"2023-01-07T06:00:00:Z","depth":0,"parameterNumber":3,"parameterNumberName":"V-component_of_WINDS"},"data":[0.0,0.0,0.0,0.0,0.0,0.0,0.0,0.0,0.0,0.0,0.0,0.0,0.0,0.0,0.0,0.0,0.0,0.0,0.0,0.0,0.0,0.0,0.0,0.0,0.0,0.0,0.0,0.0,0.0,0.0,0.0,0.0,0.0,0.0,0.0,0.0,0.0,0.0,0.0,0.0,0.0,0.0,0.0,0.0,0.0,0.0,0.0,0.0,0.0,0.0,0.0,0.0,0.0,0.0,0.0,0.0,0.0,0.0,0.0,0.0,0.0,0.0,0.0,0.0,0.0,0.0,0.0,0.0,0.0,0.0,0.0,0.0,0.0,0.0,0.0,0.0,0.0,0.0,0.0,0.0,0.0,0.0,0.0,0.0,0.0,0.0,0.0,0.0,0.0,0.0,0.0,0.0,0.0,0.0,0.0,0.0,0.0,0.0,0.0,0.0,0.0,0.0,0.0,0.0,0.0,0.0,0.0,0.0,0.0,0.0,0.0,0.0,0.0,0.0,0.0,0.0,0.0,0.0,0.0,0.0,0.0,0.0,0.0,0.0,0.0,0.0,0.0,0.0,0.0,0.0,0.0,0.0,0.0,0.0,0.0,0.0,0.0,0.0,0.0,0.0,0.0,0.0,0.0,0.0,0.0,0.0,0.0,0.0,0.0,0.0,0.0,0.0,0.0,0.0,0.0,0.0,0.0,0.0,0.0,0.0,0.0,0.0,0.0,0.0,0.0,0.0,0.0,0.0,0.0,0.0,0.0,0.0,0.0,0.0,0.0,0.0,0.0,0.0,0.0,0.0,0.0,0.0,0.0,0.0,0.0,0.0,0.0,0.0,0.0,0.0,0.0,0.0,0.0,0.0,0.0,0.0,0.0,0.0,0.0,0.0,0.0,0.0,0.0,0.0,0.0,0.0,0.0,0.0,0.0,0.0,0.0,0.0,0.0,0.0,0.0,0.0,0.0,0.0,0.0,0.0,0.0,0.0,0.0,0.0,0.0,0.0,0.0,0.0,0.0,0.0,0.0,0.0,0.0,0.0,0.0,0.0,0.0,0.0,0.0,0.0,0.0,0.0,0.0,0.0,0.0,0.0,0.0,0.0,0.0,0.0,0.0,0.0,0.0,0.0,0.0,0.0,0.0,0.0,0.0,0.0,0.0,0.0,0.0,0.0,0.0,0.0,0.0,0.0,0.0,0.0,0.0,0.0,0.0,0.0,0.0,0.0,0.0,0.0,0.0,0.0,0.0,0.0,0.0,0.0,0.0,0.0,0.0,0.0,0.0,0.0,0.0,0.0,0.0,0.0,0.0,0.0,0.0,0.0,0.0,0.0,0.0,0.0,0.0,0.0,0.0,0.0,0.0,0.0,0.0,0.0,0.0,0.0,0.0,0.0,0.0,0.0,0.0,0.0,0.0,0.0,0.0,0.0,0.0,0.0,0.0,0.0,0.0,0.0,0.0,0.0,0.0,0.0,0.0,0.0,0.0,0.0,0.0,0.0,0.0,0.0,0.0,0.0,0.0,0.0,0.0,0.0,0.0,0.0,0.0,0.0,0.0,0.0,0.0,0.0,0.0,0.0,0.0,0.0,0.0,0.0,0.0,0.0,0.0,0.0,0.0,0.0,0.0,0.0,0.0,0.0,0.0,0.0,0.0,0.0,0.0,0.0,0.0,0.0,0.0,0.0,0.0,0.0,0.0,0.0,0.0,0.0,0.0,0.0,0.0,0.0,0.0,0.0,0.0,0.0,0.0,0.0,0.0,0.0,0.0,0.0,0.0,0.0,0.0,0.0,0.0,0.0,0.0,0.0,0.0,0.0,0.0,0.0,0.0,0.0,0.0,0.0,0.0,0.0,0.0,0.0,0.0,0.0,0.0,0.0,0.0,0.0,0.0,0.0,0.0,0.0,0.0,0.0,0.0,0.0,0.0,0.0,0.0,0.0,0.0,0.0,0.0,0.0,0.0,0.0,0.0,0.0,0.0,0.0,0.0,0.0,0.0,0.0,0.0,0.0,0.0,0.0,0.0,0.0,0.0,0.0,0.0,0.0,0.0,0.0,0.0,0.0,0.0,0.0,0.0,0.0,0.0,0.0,0.0,0.0,0.0,0.0,0.0,0.0,0.0,0.0,0.0,0.0,0.0,0.0,0.0,0.0,0.0,0.0,0.0,0.0,0.0,0.0,0.0,0.0,0.0,0.0,0.0,0.0,0.0,0.0,0.0,0.0,0.0,0.0,0.0,0.0,0.0,0.0,0.0,0.0,0.0,0.0,0.0,0.0,0.0,0.0,0.0,0.0,0.0,0.0,0.0,0.0,0.0,0.0,0.0,0.0,0.0,0.0,0.0,0.0,0.0,0.0,0.0,0.0,0.0,0.0,0.0,0.0,0.0,0.0,0.0,0.0,0.0,0.0,0.0,0.0,0.0,0.0,0.0,0.0,0.0,0.0,0.0,0.0,0.0,0.0,0.0,0.0,0.0,0.0,0.0,0.0,0.0,0.0,0.0,0.0,0.0,0.0,0.0,0.0,0.0,0.0,0.0,0.0,0.0,0.0,0.0,0.0,0.0,0.0,0.0,0.0,0.0,0.0,0.0,0.0,0.0,0.0,0.0,0.0,0.0,0.0,0.0,0.0,0.0,0.0,0.0,0.0,0.0,0.0,0.0,0.0,0.0,0.0,0.0,0.0,0.0,0.0,0.0,0.0,0.0,0.0,0.0,0.0,0.0,0.0,0.0,0.0,0.0,0.0,0.0,0.0,0.0,0.0,0.0,0.0,0.0,0.0,0.0,0.0,0.0,0.0,0.0,0.0,0.0,0.0,0.0,0.0,0.0,0.0,0.0,0.0,0.0,0.0,0.0,0.0,0.0,0.0,0.0,0.0,0.0,0.0,0.0,0.0,0.0,0.0,0.0,0.0,0.0,0.0,0.0,0.0,0.0,0.0,0.0,0.0,0.0,0.0,0.0,0.0,0.0,0.0,0.0,0.0,0.0,0.0,0.0,0.0,0.0,0.0,0.0,0.0,0.0,0.0,0.0,0.0,0.0,0.0,0.0,0.0,0.0,0.0,0.0,0.0,0.0,0.0,0.0,0.0,0.0,0.0,0.0,0.0,0.0,0.0,0.0,0.0,0.0,0.0,0.0,0.0,0.0,0.0,0.0,0.0,0.0,0.0,0.0,0.0,0.0,0.0,0.0,0.0,0.0,0.0,0.0,0.0,0.0,0.0,0.0,0.0,0.0,0.0,0.0,0.0,0.0,0.0,0.0,0.0,0.0,0.0,0.0,0.0,0.0,0.0,0.0,0.0,0.0,0.0,0.0,0.0,0.0,0.0,0.0,0.0,0.0,0.0,0.0,0.0,0.0,0.0,0.0,0.0,0.0,0.0,0.0,0.0,0.0,0.0,0.0,0.0,0.0,0.0,0.0,0.0,0.0,0.0,0.0,0.0,0.0,0.0,0.0,0.0,0.0,0.0,0.0,0.0,0.0,0.0,0.0,0.0,0.0,0.0,0.0,0.0,0.0,0.0,0.0,0.0,0.0,0.0,0.0,0.0,0.0,0.0,0.0,0.0,0.0,0.0,0.0,0.0,0.0,0.0,0.0,0.0,0.0,0.0,0.0,0.0,0.0,0.0,0.0,0.0,0.0,0.0,0.0,0.0,0.0,0.0,0.0,0.0,0.0,0.0,0.0,0.0,0.0,0.0,0.0,0.0,0.0,0.0,0.0,0.0,0.0,0.0,0.0,0.0,0.0,0.0,0.0,0.0,0.0,0.0,0.0,0.0,0.0,0.0,0.0,0.0,0.0,0.0,0.0,0.0,0.0,0.0,0.0,0.0,0.0,0.0,0.0,0.0,0.0,0.0,0.0,0.0,0.0,0.0,0.0,0.0,0.0,0.0,0.0,0.0,0.0,0.0,0.0,0.0,0.0,0.0,0.0,0.0,0.0,0.0,0.0,0.0,0.0,0.0,0.0,0.0,0.0,0.0,0.0,0.0,0.0,0.0,0.0,0.0,0.0,0.0,0.0,0.0,0.0,0.0,0.0,0.0,0.0,0.0,0.0,0.0,0.0,0.0,0.0,0.0,0.0,0.0,0.0,0.0,0.0,0.0,0.0,0.0,0.0,0.0,0.0,0.0,0.0,0.0,0.0,0.0,0.0,0.0,0.0,0.0,0.0,0.0,0.0,0.0,0.0,0.0,0.0,0.0,0.0,0.0,0.0,0.0,0.0,0.0,0.0,0.0,0.0,0.0,0.0,0.0,0.0,0.0,0.0,0.0,0.0,0.0,0.0,0.0,0.0,0.0,0.0,0.0,0.0,0.0,0.0,0.0,0.0,0.0,0.0,0.0,0.0,0.0,0.0,0.0,0.0,0.0,0.0,0.0,0.0,0.0,0.0,0.0,0.0,0.0,0.0,0.0,0.0,0.0,0.0,0.0,0.0,0.0,0.0,0.0,0.0,0.0,0.0,0.0,0.0,0.0,0.0,0.0,0.0,0.0,0.0,0.0,0.0,0.0,0.0,0.0,0.0,0.0,0.0,0.0,0.0,0.0,0.0,0.0,0.0,0.0,0.0,0.0,0.0,0.0,0.0,0.0,0.0,0.0,0.0,0.0,0.0,0.0,0.0,0.0,0.0,0.0,0.0,0.0,0.0,0.0,0.0,0.0,0.0,0.0,0.0,0.0,0.0,0.0,0.0,0.0,0.0,0.0,0.0,0.0,0.0,0.0,0.0,0.0,0.0,0.0,0.0,0.0,0.0,0.0,0.0,0.0,0.0,0.0,0.0,0.0,0.0,0.0,0.0,0.0,0.0,0.0,0.0,0.0,0.0,0.0,0.0,0.0,0.0,0.0,0.0,0.0,0.0,0.0,0.0,0.0,0.0,0.0,0.0,0.0,0.0,0.0,0.0,0.0,0.0,0.0,0.0,0.0,0.0,0.0,0.0,0.0,0.0,0.0,0.0,0.0,0.0,0.0,0.0,0.0,0.0,0.0,0.0,0.0,0.0,0.0,0.0,0.0,0.0,0.0,0.0,0.0,0.0,0.0,0.0,0.0,0.0,0.0,0.0,0.0,0.0,0.0,0.0,0.0,0.0,0.0,0.0,0.0,0.0,0.0,0.0,0.0,0.0,0.0,0.0,0.0,0.0,0.0,0.0,0.0,0.0,0.0,0.0,0.0,0.0,0.0,0.0,0.0,0.0,0.0,0.0,0.0,0.0,0.0,0.0,0.0,0.0,0.0,0.0,0.0,0.0,0.0,0.0,0.0,0.0,0.0,0.0,0.0,0.0,0.0,0.0,0.0,0.0,0.0,0.0,0.0,0.0,0.0,0.0,0.0,0.0,0.0,0.0,0.0,0.0,0.0,0.0,0.0,0.0,0.0,0.0,0.0,0.0,0.0,0.0,0.0,0.0,0.0,0.0,0.0,0.0,0.0,0.0,0.0,0.0,0.0,0.0,0.0,0.0,0.0,0.0,0.0,0.0,0.0,0.0,0.0,0.0,0.0,0.0,0.0,0.0,0.0,0.0,0.0,0.0,0.0,0.0,0.0,0.0,0.0,0.0,0.0,0.0,0.0,0.0,0.0,0.0,0.0,0.0,0.0,0.0,0.0,0.0,0.0,0.0,0.0,0.0,0.0,0.0,0.0,0.0,0.0,0.0,0.0,0.0,0.0,0.0,0.0,0.0,0.0,0.0,0.0,0.0,0.0,0.0,0.0,0.0,0.0,0.0,0.0,0.0,0.0,0.0,0.0,0.0,0.0,0.0,0.0,0.0,0.0,0.0,0.0,0.0,0.0,0.0,0.0,0.0,0.0,0.0,0.0,0.0,0.0,0.0,0.0,0.0,0.0,0.0,0.0,0.0,0.0,0.0,0.0,0.0,0.0,0.0,0.0,0.0,0.0,0.0,0.0,0.0,0.0,0.0,0.0,0.0,0.0,0.0,0.0,0.0,0.0,0.0,0.0,0.0,0.0,0.0,0.0,0.0,0.0,0.0,0.0,0.0,0.0,0.0,0.0,0.0,0.0,0.0,0.0,0.0,0.0,0.0,0.0,0.0,0.0,0.0,0.0,0.0,0.0,0.0,0.0,0.0,0.0,0.0,0.0,1.448,0.0,0.0,0.0,0.0,0.0,0.0,0.0,0.0,0.0,0.0,0.0,0.0,0.0,0.0,0.0,0.0,0.0,0.0,0.0,0.0,0.0,0.0,0.0,0.0,0.0,0.0,0.0,0.0,0.0,0.0,0.0,0.0,0.0,0.0,0.0,0.0,0.0,1.2196,1.2789,1.4419,1.6045,1.7649,1.73,1.6024,1.4011,0.0,0.0,0.0,0.0,0.0,0.0,0.0,0.0,0.0,0.0,0.0,0.0,0.0,0.0,0.0,0.0,0.0,0.0,0.0,0.0,0.0,0.0,0.0,0.0,0.0,0.0,0.0,0.0,0.0,0.0,0.0,0.0,0.0,0.0,0.0,0.0,0.0,0.0,0.0,0.0,0.0,0.0,0.0,0.0,0.0,0.0,0.0,0.0,0.0,0.0,0.0,0.0,0.0,0.0,0.0,0.0,0.0,0.0,0.0,0.0,0.0,0.0,0.0,0.0,0.0,0.0,0.0,0.0,0.0,0.0,0.0,1.5918,0.0,0.0,0.0,0.0,0.0,0.0,0.0,0.0,0.0,0.0,0.0,0.0,0.0,0.0,0.0,0.0,0.0,0.0,0.0,0.0,0.0,0.0,0.0,0.9841,1.0499,1.1073,1.12,1.1366,0.0,0.0,0.0,0.0,0.0,0.0,1.1876,1.2839,1.3591,1.4074,1.6873,1.951,2.1945,2.2397,2.0413,1.6468,1.6166,0.0,0.0,0.0,0.0,0.0,0.0,0.0,0.0,0.0,0.0,0.0,0.0,0.0,0.0,0.0,0.0,0.0,0.0,0.0,0.0,0.0,0.0,0.0,0.0,0.0,0.0,0.0,0.0,0.0,0.0,0.0,0.0,0.0,0.0,0.0,0.0,0.0,0.0,0.0,0.0,0.0,0.0,0.0,0.0,0.0,0.0,0.0,0.0,0.0,0.0,0.0,0.0,0.0,0.0,0.0,0.0,0.0,0.0,0.0,0.0,0.0,0.0,0.0,2.2658,2.3331,2.3818,2.4046,2.4156,2.407,2.2626,2.0584,1.8219,1.7955,0.0,0.0,0.0,0.0,0.0,0.0,0.0,0.0,0.0,0.0,0.0,0.0,0.0,0.0,0.0,0.0,0.0,0.0,0.0,0.0,0.0,0.9986,1.0603,1.1604,1.1957,1.219,1.228,0.0,0.0,0.0,0.0,1.2513,1.2989,1.3652,1.5135,1.7551,2.0313,2.2347,2.3678,2.3728,2.3427,2.2723,2.1267,1.951,1.7576,0.0,0.0,0.0,0.0,0.0,0.0,0.0,0.0,0.0,0.0,0.0,0.0,0.0,0.0,0.0,0.0,0.0,0.0,0.0,0.0,0.0,0.0,0.0,0.0,0.0,0.0,0.0,0.0,0.0,0.0,0.0,0.0,0.0,0.0,0.0,0.0,0.0,0.0,0.0,0.0,0.0,2.0575,1.8902,0.0,0.0,0.0,0.0,0.0,0.0,0.0,0.0,0.0,0.0,0.0,0.0,0.0,2.1771,2.2958,2.3189,2.3673,2.4341,2.6056,2.6907,2.7025,2.8185,2.872,2.872,2.8479,0.0,2.0633,1.941,0.0,0.0,0.0,0.0,0.0,0.0,0.0,0.0,0.0,0.0,0.0,0.0,0.0,0.0,0.0,0.0,0.0,0.0,0.0,0.0,0.0,1.2131,1.3593,1.4315,1.5709,1.6142,1.5271,1.5216,0.0,0.0,1.3677,1.391,1.4136,1.5919,1.8832,2.2879,2.4086,2.5711,2.772,2.772,2.772,2.7695,2.6942,2.4531,2.0813,1.8782,0.0,0.0,0.0,0.0,0.0,0.0,0.0,0.0,0.0,0.0,0.0,0.0,0.0,0.0,0.0,0.0,0.0,0.0,0.0,0.0,0.0,0.0,0.0,0.0,0.0,0.0,0.0,0.0,0.0,0.0,0.0,0.0,0.0,0.0,0.0,0.0,0.0,0.0,0.0,1.8683,1.9675,1.8355,1.8899,1.8851,0.0,0.0,0.0,0.0,0.0,0.0,0.0,0.0,0.0,2.3409,2.3484,2.4283,2.5928,2.6232,2.6928,2.8024,2.9217,2.9983,3.0372,3.0971,3.124,3.121,3.0851,2.905,2.6264,2.4168,2.2875,2.2026,0.0,0.0,0.0,0.0,1.9109,1.9109,0.0,0.0,0.0,0.0,0.0,0.0,0.0,0.0,0.0,0.0,0.0,0.0,1.1737,1.4185,1.6053,1.6702,1.8488,1.8949,1.733,1.7462,1.6794,1.4984,1.5035,1.516,1.5311,1.8581,2.2397,2.67,2.7404,2.8963,3.126,3.1386,3.1461,3.1461,3.1461,2.8674,2.3853,2.1794,2.0412,1.9384,0.0,0.0,0.0,0.0,0.0,0.0,0.0,0.0,0.0,0.0,0.0,0.0,0.0,0.0,0.0,0.0,0.0,0.0,0.0,0.0,0.0,0.0,0.0,0.0,0.0,0.0,0.0,0.0,0.0,0.0,0.0,0.0,0.0,0.0,0.0,0.0,0.0,1.9435,2.0317,1.9054,2.012,2.0527,0.0,0.0,0.0,0.0,0.0,0.0,2.3392,2.4463,2.5418,2.6338,2.6393,2.7205,2.8816,2.9248,3.0072,3.127,3.175,3.2258,3.2766,3.2766,3.2766,3.2736,3.2228,3.1749,3.1031,2.8068,2.6273,2.5255,2.3939,2.3452,2.3392,2.2862,2.2682,2.2703,0.0,0.0,0.0,0.0,0.0,0.0,0.0,0.0,0.0,0.0,0.0,1.2586,1.3891,1.5275,1.6516,1.7528,1.8533,1.847,1.6844,1.7629,1.7174,1.4984,1.5387,1.5894,1.64,2.1242,2.4908,2.7278,2.9854,3.1763,3.3011,3.3495,3.3721,3.3721,3.3721,3.0959,2.6323,2.6172,2.4287,2.1217,1.9459,0.0,0.0,0.0,0.0,0.0,0.0,0.0,0.0,0.0,0.0,0.0,0.0,0.0,0.0,0.0,0.0,0.0,0.0,0.0,0.0,0.0,0.0,0.0,0.0,0.0,0.0,0.0,0.0,0.0,0.0,0.0,0.0,0.0,0.0,0.0,0.0,0.0,0.0,2.3575,2.447,0.0,0.0,0.0,0.0,2.5149,2.5322,2.5382,2.5465,2.7295,2.8401,2.8457,3.0199,3.1512,3.2258,3.2258,3.2647,3.3335,3.3395,3.3425,3.3455,3.3455,3.3455,3.3455,3.3395,3.3365,3.3036,2.9142,2.7495,2.7315,2.5974,2.5465,2.5465,2.5435,2.5405,2.5498,0.0,0.0,0.0,0.7705,0.7705,0.7798,0.8105,0.8516,0.9082,0.9941,1.1775,1.3312,1.4063,1.7134,1.9535,2.0628,2.265,2.3455,2.2506,2.1745,2.0539,1.8705,1.7777,1.8731,2.1766,2.4657,2.7756,3.1009,3.1989,3.3043,3.4148,3.4349,3.4424,3.4424,3.4424,3.3244,3.111,2.895,2.6967,2.5066,2.3025,2.0589,0.0,0.0,0.0,0.0,0.0,0.0,0.0,0.0,0.0,0.0,0.0,0.0,0.0,0.0,0.0,0.0,0.0,0.0,0.0,0.0,0.0,0.0,0.0,0.0,0.0,0.0,0.0,0.0,0.0,0.0,0.0,0.0,0.0,0.0,0.0,0.0,0.0,2.4956,2.6063,0.0,2.5016,2.4896,2.5255,2.6183,2.7051,2.7889,2.8727,3.0253,3.13,3.1749,3.2018,3.2467,3.3155,3.3155,3.3484,3.4174,3.4592,3.4801,3.4801,3.4801,3.4801,3.4771,3.4322,3.4144,3.3993,3.2167,3.0881,3.0043,2.9116,2.8517,2.8158,2.8158,2.8427,2.8862,0.0,0.0,0.0,0.7705,0.7837,0.8047,0.8356,0.9001,0.9844,1.1036,1.3052,1.4746,1.5762,1.8899,2.145,2.265,2.4731,2.5512,2.4362,2.3542,2.2117,1.9962,1.9685,2.1594,2.5803,2.757,2.993,3.3111,3.3646,3.4274,3.4956,3.5203,3.5278,3.5278,3.5278,3.4977,3.4299,3.2047,3.0206,2.8448,2.6063,2.3351,2.0512,0.0,0.0,0.0,0.0,0.0,0.0,0.0,0.0,0.0,0.0,0.0,0.0,0.0,0.0,0.0,0.0,0.0,0.0,0.0,0.0,0.0,0.0,0.0,0.0,0.0,0.0,0.0,0.0,0.0,0.0,0.0,0.0,0.0,0.0,2.4388,2.5794,2.6213,2.7465,2.8068,2.7624,2.7594,2.7979,2.8846,2.9744,3.0612,3.148,3.2557,3.3365,3.3814,3.3634,3.3724,3.4173,3.4173,3.4382,3.4831,3.528,3.5519,3.5519,3.5519,3.5519,3.5489,3.5011,3.4863,3.4801,3.4352,3.3514,3.2467,3.1779,3.127,3.0939,3.0939,3.115,3.1682,0.0,0.0,0.7705,0.7705,0.8086,0.8395,0.8414,0.9491,1.0939,1.27,1.4774,1.6926,1.9043,2.0469,2.187,2.3442,2.4517,2.4186,2.2052,2.2708,2.1741,1.853,2.1041,2.4305,2.8097,2.9829,3.1512,3.3144,3.4731,3.5508,3.5533,3.6107,3.6405,3.6405,3.6405,3.6081,3.5533,3.5508,3.3953,3.1286,2.8549,2.6113,2.3778,0.0,0.0,0.0,0.0,0.0,0.0,0.0,0.0,0.0,0.0,0.0,0.0,0.0,0.0,0.0,0.0,0.0,0.0,0.0,0.0,0.0,0.0,0.0,0.0,0.0,0.0,0.0,0.0,0.0,0.0,0.0,0.0,0.0,2.2912,2.5668,2.7675,2.7764,2.8933,3.0193,3.1451,3.157,3.2108,3.3425,3.3514,3.3544,3.3544,3.4173,3.4533,3.4533,3.516,3.5519,3.5519,3.5519,3.5519,3.5519,3.5519,3.5519,3.5519,3.5519,3.5519,3.5519,3.5519,3.5519,3.5519,3.5519,3.513,3.4474,3.3784,3.3514,3.3484,3.3484,3.3545,3.3789,0.7705,0.7705,0.7705,0.7705,0.8086,0.8493,0.8789,0.9667,1.1036,1.3066,1.495,1.6926,1.9043,2.1422,2.3503,2.5036,2.6456,2.699,2.636,2.5453,2.418,2.2472,2.5402,2.796,2.988,3.1562,3.3219,3.4831,3.5282,3.5708,3.6132,3.6329,3.6405,3.6405,3.6405,3.6329,3.6107,3.5683,3.5056,3.4179,3.2265,2.9679,2.6886,0.0,0.0,0.0,0.0,0.0,0.0,0.0,0.0,0.0,0.0,0.0,0.0,0.0,0.0,0.0,0.0,0.0,0.0,0.0,0.0,0.0,0.0,0.0,0.0,0.0,0.0,0.0,0.0,0.0,0.0,0.0,2.5398,2.7705,2.7705,2.8483,2.9771,3.1629,3.2198,3.2557,3.2916,3.2946,3.3305,3.4174,3.4234,3.4412,3.4921,3.513,3.522,3.522,3.54,3.5519,3.5519,3.5519,3.5519,3.5519,3.5519,3.5519,3.5519,3.5519,3.5519,3.5519,3.5519,3.5519,3.5519,3.5519,3.54,3.516,3.4472,3.3903,3.3484,3.3484,3.4152,3.5212,0.7705,0.7705,0.7705,0.7705,0.8227,0.873,0.8965,1.0058,1.1682,1.4004,1.5488,1.7383,2.0078,2.2244,2.4199,2.595,2.6697,2.7059,2.7047,2.5711,2.5485,2.6716,2.8562,3.0442,3.229,3.3495,3.4575,3.5508,3.578,3.6056,3.6405,3.6405,3.6405,3.6405,3.6405,3.6405,3.638,3.6031,3.5708,3.5408,3.45,3.1989,2.8774,2.8296,2.7123,2.5556,2.4421,2.4669,2.5209,2.2942,0.0,0.0,0.0,0.0,0.0,0.0,0.0,0.0,0.0,0.0,0.0,0.0,0.0,0.0,0.0,0.0,0.0,0.0,0.0,0.0,0.0,0.0,0.0,0.0,2.7495,3.0101,3.1478,3.1419,3.1898,3.3694,3.3903,3.4023,3.4322,3.4352,3.4502,3.4891,3.516,3.5489,3.5908,3.6178,3.6297,3.6297,3.6297,3.6297,3.6297,3.6297,3.6297,3.6297,3.6297,3.6178,3.5908,3.5908,3.5759,3.5519,3.5519,3.5683,3.5943,3.5943,3.6164,0.0,0.0,0.0,0.0,0.0,3.582,3.6697,0.7705,0.7705,0.7725,0.7763,0.8461,0.9023,0.9062,1.0508,1.2524,1.5137,1.618,1.8013,2.1504,2.2839,2.4285,2.6222,2.5908,2.5636,2.5695,2.5109,2.6515,3.0532,3.0884,3.219,3.4705,3.5257,3.5533,3.5583,3.6132,3.6405,3.6405,3.6405,3.6405,3.6405,3.6405,3.6405,3.6405,3.6405,3.6081,3.5583,3.5458,3.3326,3.0119,2.8596,2.7635,2.6953,2.5687,2.6222,2.741,2.6952,0.0,0.0,0.0,0.0,0.0,0.0,0.0,0.0,0.0,0.0,0.0,0.0,0.0,0.0,0.0,0.0,0.0,0.0,0.0,0.0,0.0,0.0,0.0,0.0,2.9082,3.1209,3.4204,3.4174,3.4023,3.4563,3.4623,3.4861,3.5549,3.5609,3.5639,3.5729,3.6267,3.6596,3.6596,3.7105,0.0,0.0,0.0,3.7404,3.7404,3.7404,3.7404,3.7404,3.7404,3.7135,3.6596,3.6596,3.6267,3.5729,3.5639,3.6032,3.6723,3.6631,3.7054,3.7648,3.6196,3.6101,3.6813,3.7411,3.7735,3.7908,0.7705,0.7705,0.7817,0.8199,0.8672,0.9104,0.9435,1.0704,1.2641,1.5576,1.6406,1.8013,2.1504,2.2839,2.4156,2.5771,2.5738,2.5805,2.6305,2.8197,2.9905,3.1185,3.2541,3.3922,3.5307,3.5433,3.5755,3.6207,3.6355,3.6405,3.6405,3.6405,3.6405,3.6405,3.6405,3.6405,3.6405,3.6405,3.6355,3.6132,3.5228,3.4173,3.3054,3.2651,3.2566,3.2541,3.0942,3.1495,3.2437,2.9112,2.8368,2.8483,2.6477,2.432,0.0,0.0,0.0,0.0,0.0,0.0,0.0,0.0,0.0,0.0,0.0,0.0,0.0,0.0,0.0,0.0,0.0,0.0,0.0,2.8218,3.1299,3.3964,3.513,3.5639,3.5759,3.537,3.531,3.5579,3.6237,3.6297,3.6507,3.7015,3.7165,3.7225,3.7225,3.7345,3.7404,3.7404,3.7404,3.7404,3.7404,3.7404,3.7404,3.7404,0.0,0.0,3.7225,3.7225,3.7165,3.7015,3.6507,3.673,3.7343,3.6847,3.7054,3.7706,3.6783,3.6874,3.7531,3.6994,3.7233,3.7908,0.8296,0.8188,0.8125,0.8356,0.8906,0.9377,0.9554,1.0723,1.2367,1.4539,1.5352,1.6738,1.9355,2.0596,2.1898,2.3458,2.4826,2.5861,2.6465,2.88,3.106,3.2968,3.3872,3.4826,3.5931,3.5956,3.6081,3.6405,3.6405,3.6405,3.6405,3.6405,3.6405,3.6405,3.6405,3.6405,3.6405,3.6405,3.6405,3.6355,3.5755,3.5052,3.4237,3.3908,3.4124,3.4502,3.3331,3.3583,3.4201,3.2076,3.1249,3.0761,2.9086,2.72,2.5315,0.0,0.0,0.0,0.0,0.0,0.0,0.0,0.0,0.0,0.0,0.0,0.0,0.0,0.0,2.4859,2.5525,0.0,2.9774,3.0462,3.3036,3.522,3.5908,3.6537,3.6836,3.6507,3.6447,3.6596,3.6926,3.6956,3.7075,3.7375,3.7704,3.7913,3.7913,3.8242,3.8422,3.8422,3.8422,3.8422,3.8422,3.8422,3.8422,3.8422,3.8422,3.8242,3.7913,3.7913,3.7734,3.7404,3.7075,3.763,3.8746,3.8853,3.8907,3.8887,3.8044,3.7987,3.8358,3.8358,3.8608,3.8995,0.8765,0.8723,0.8649,0.8649,0.9162,0.9631,0.9728,1.0802,1.2074,1.3457,1.4297,1.5449,1.722,1.8168,1.9265,2.0804,2.3881,2.5961,2.6474,2.885,3.1587,3.46,3.468,3.5228,3.638,3.6405,3.6405,3.6405,3.6405,3.6405,3.6405,3.6405,3.6405,3.6405,3.6405,3.6405,3.6405,3.6405,3.6405,3.638,3.6179,3.5704,3.5058,3.4345,3.441,3.4803,3.4232,3.4145,3.4324,3.4324,3.3484,3.2318,3.139,3.0103,2.8278,2.4837,2.4597,0.0,0.0,0.0,0.0,0.0,0.0,0.0,0.0,2.4388,2.5016,2.6632,2.7525,2.8184,2.8846,3.0554,3.2108,3.2796,3.4562,3.6118,3.6776,3.7285,3.7644,3.7793,3.7554,3.7464,3.7584,3.7584,3.7644,3.7793,3.8302,3.8571,3.8571,3.911,3.9373,3.9373,3.9373,3.9373,3.9373,3.9373,3.9373,3.9373,3.9373,3.914,3.8571,3.8571,3.8302,3.7793,3.802,3.8769,3.9989,4.1021,4.0967,4.024,3.9601,3.9255,3.9209,3.9688,3.9952,4.0113,0.828,0.8923,0.9474,0.9474,0.9534,0.9747,1.0156,1.0997,1.2191,1.3821,1.4492,1.5449,1.722,1.7514,1.8002,1.9108,2.356,2.6364,2.649,2.9905,3.2767,3.465,3.468,3.5228,3.638,3.6405,3.6405,3.6405,3.6405,3.6405,3.6405,3.6405,3.6405,3.6405,3.6405,3.6405,3.6405,3.6405,3.6405,3.6329,3.5303,3.5626,3.6552,3.5511,3.4826,3.4344,3.4098,3.382,3.3604,3.3604,3.3125,3.2587,3.3036,3.1839,2.9983,2.8397,2.6422,2.4246,2.2084,2.2622,2.3789,2.364,2.4926,2.6243,0.0,2.7171,2.8098,2.8338,2.8906,2.9535,3.0163,3.1928,3.3484,3.4174,3.5908,3.7434,3.8093,3.8242,3.8512,3.914,3.8123,3.7644,3.8212,3.8272,3.8542,3.914,3.926,3.932,3.932,3.9379,3.9373,3.9373,3.9373,3.9373,3.9373,3.9373,3.9373,3.9373,3.9373,3.9379,3.932,3.932,3.926,3.9242,4.0119,4.026,4.0021,4.1555,4.1745,4.1068,4.0991,4.056,3.9901,3.9262,3.9506,4.0113,0.8888,0.9526,1.002,1.002,1.002,1.0078,1.0273,1.1036,1.1839,1.2539,1.3267,1.3972,1.4715,1.5383,1.5925,1.6369,2.1354,2.4627,2.496,2.9211,3.234,3.3696,3.4073,3.4751,3.5855,3.5881,3.6031,3.6405,3.6405,3.6405,3.6405,3.6405,3.6405,3.6405,3.6405,3.6405,3.638,3.6031,3.5881,3.578,3.47,3.4719,3.5492,3.5374,3.5012,3.4561,3.3951,3.3008,0.0,3.2092,3.2018,3.208,3.2983,3.1988,3.0163,2.8513,2.72,2.6333,2.6327,2.6117,2.6207,2.732,2.8547,2.9448,2.9448,2.9866,3.0642,3.1779,3.2557,3.3215,3.3873,3.4981,3.5848,3.6148,3.7195,3.8063,3.8362,3.8751,3.911,3.9379,3.8931,3.8691,3.896,3.899,3.911,3.9409,3.9373,3.9373,3.9373,3.9373,3.9373,3.9373,3.9373,3.9373,3.9373,3.9373,3.9373,3.9409,3.992,3.9884,3.9409,3.992,3.9884,3.9481,4.0377,4.0672,4.0571,4.177,4.2076,4.1847,4.1847,4.1373,4.0637,3.9882,3.9825,4.0113,0.9208,0.9843,1.0293,1.0293,1.0293,1.0293,1.0293,1.0919,1.1447,1.1587,1.225,1.2778,1.2895,1.3642,1.4261,1.4563,1.8788,2.2123,2.3781,2.7718,3.0923,3.2993,3.347,3.4198,3.5257,3.5282,3.5504,3.5906,3.5906,3.5981,3.6132,3.6132,3.6254,3.6405,3.6207,3.6056,3.5881,3.5328,3.4956,3.4776,3.3822,3.3666,3.4082,3.4305,3.3891,3.3202,3.3433,3.2403,3.0887,3.0539,3.0425,3.0589,3.1566,3.1132,2.9864,2.7914,2.7076,2.7136,2.8633,2.8603,2.8633,3.0582,3.1809,3.2647,3.2826,3.2856,3.3305,3.4741,3.528,3.5639,3.6118,3.6716,3.7225,3.7375,3.7973,3.8452,3.8631,3.911,3.9373,3.9373,3.9373,3.9373,3.9373,3.9373,3.9373,3.9373,3.9373,3.9373,3.9373,3.9373,3.9373,3.9373,3.9373,3.9373,3.9373,3.9373,3.9373,3.9409,4.0274,4.0378,3.9773,4.0413,4.0516,4.0165,4.0792,4.1243,4.1652,4.2499,4.2735,4.2591,4.2591,4.2151,4.1407,4.0663,4.0282,4.0113,0.8724,0.9587,1.0293,1.0293,1.0293,1.0293,1.0293,1.0645,1.1074,1.1547,1.1953,1.2379,1.2856,1.2939,1.339,1.4493,1.6235,1.9154,2.3594,2.5581,2.8505,3.2918,3.3136,3.3621,3.468,3.4705,3.4705,3.4731,3.4731,3.5006,3.5533,3.5533,3.5855,3.638,3.5805,3.5232,3.4726,3.4173,3.3646,3.3093,3.2516,3.2465,3.2804,3.2263,3.0738,2.9282,3.238,3.2228,3.0317,2.9089,2.8248,2.7854,2.8521,2.9146,2.9232,2.72,2.5704,2.5113,2.7136,2.8573,3.0011,3.1958,3.3933,3.5549,3.6178,3.6327,3.6357,3.6417,3.5938,3.5519,3.5519,3.6058,3.6716,3.7315,3.7973,3.8631,3.929,3.9373,3.9373,3.9373,3.9373,3.9373,0.0,3.9373,3.9373,3.9373,3.9373,3.9373,3.9373,3.9373,3.9373,3.9373,3.9373,3.9373,3.9373,3.9373,3.9373,3.9409,4.0274,4.069,4.0656,4.069,4.1131,4.1917,4.1949,4.2425,4.3287,4.4145,4.4051,4.3375,4.3375,4.2929,4.2185,4.1441,4.0696,4.0113,0.9168,0.9804,1.0293,1.0293,1.0293,1.0391,1.0664,1.082,1.1055,1.1547,1.223,0.0,0.0,0.0,0.0,0.0,1.5706,1.7918,1.9861,2.3302,2.6474,2.9139,3.0311,3.1589,3.3,3.3445,3.3796,3.4173,3.455,3.4781,3.4956,3.4956,3.4901,3.4726,3.4525,3.4148,3.3596,3.3018,3.2667,3.239,3.111,3.1252,3.2052,3.0095,2.9235,2.8907,0.0,2.6823,2.6183,2.5309,2.5584,2.6422,2.7343,2.7336,2.6784,2.5616,2.5914,2.6931,2.8513,3.0193,3.2018,3.3993,3.534,3.6207,3.6447,3.6477,3.6357,3.5938,3.531,3.4863,3.4863,3.537,3.5908,3.6118,3.7404,3.8482,3.8691,3.914,3.9373,3.9373,3.9373,0.0,0.0,0.0,0.0,3.9373,3.9373,3.9373,3.9373,3.9373,3.9373,3.9373,3.9373,3.9373,3.9373,3.9373,3.9373,3.9409,4.0274,4.1297,4.2426,4.182,4.1723,4.1981,4.1981,4.2489,4.3323,4.3621,4.393,4.4181,4.4181,4.3707,4.2997,4.276,4.2185,4.1433,0.9108,0.9646,1.0079,1.0273,1.043,0.0,0.0,0.0,0.0,0.0,0.0,0.0,0.0,0.0,0.0,0.0,0.0,1.6197,1.7588,2.0362,2.3017,2.533,2.6631,2.8017,2.9479,3.005,3.0642,3.1235,3.219,3.2767,3.2968,3.3545,3.3646,3.3294,3.3093,3.2591,3.1863,3.1286,3.0934,3.0608,2.9176,2.9057,2.9486,2.7359,2.6414,0.0,2.3662,2.276,2.2635,2.245,2.3359,2.4674,2.5317,2.5446,2.5375,2.5586,2.6752,2.8453,3.073,3.2258,3.3754,3.5968,3.6686,3.6866,3.7105,3.6806,3.6357,3.5938,3.4921,3.4144,3.4144,3.4113,3.4173,3.4412,3.5669,3.6896,3.7614,3.8272,3.8871,3.9313,3.9373,3.9373,0.0,0.0,0.0,3.9373,3.9373,3.9373,3.9373,3.9373,3.9373,3.9373,3.9373,3.9373,3.9373,3.9373,3.9702,4.0343,4.1229,4.2395,4.3739,4.2862,4.2645,4.2892,4.2614,4.2986,4.3739,4.3739,4.4093,4.4615,4.4615,4.4282,4.3809,4.3538,4.3098,4.2489,0.8602,0.9108,0.9645,0.0,0.0,0.0,0.0,0.0,0.0,0.0,0.0,0.0,0.0,0.0,0.0,0.0,0.0,0.0,1.6758,1.7002,1.8452,2.1753,2.2359,2.3229,2.4498,2.4995,2.5599,2.6339,2.7885,2.8963,2.9603,3.116,3.1863,3.1863,3.1336,3.0507,2.9503,2.8913,2.8361,2.7795,2.6751,2.5996,2.5335,2.418,2.2447,2.0641,2.0515,2.0178,1.9875,2.0527,2.1591,2.2658,2.2804,2.3769,2.5186,2.7121,2.8252,2.9714,3.3485,3.4563,3.5252,3.7764,3.7913,3.7584,3.8182,3.7375,3.6447,3.6297,3.4711,3.3305,0.0,0.0,3.169,3.2288,3.3125,3.4352,3.6267,3.7075,3.7943,0.0,0.0,0.0,0.0,0.0,0.0,3.9373,0.0,3.9409,3.9445,3.9409,3.9445,3.9553,3.9445,3.9409,3.9481,3.9481,4.0343,4.2109,4.2925,4.3739,4.4587,4.3739,4.3798,4.4559,4.371,4.386,4.4615,4.4615,4.4615,4.4615,4.4615,4.4615,4.4513,4.3741,4.3443,4.324,0.0,0.0,0.0,0.0,0.0,0.0,0.0,0.0,0.0,0.0,0.0,0.0,0.0,0.0,0.0,0.0,0.0,0.0,1.4539,1.5403,1.6791,1.8931,1.9972,2.1016,2.2128,2.2676,2.329,2.3969,2.4777,2.5704,2.6666,2.7092,2.7268,2.7268,2.7143,2.6716,2.6088,2.5904,2.5561,2.4983,2.428,2.3847,2.3471,2.1164,2.0188,1.9811,1.8154,1.7742,1.8066,1.8671,2.023,2.2249,2.4341,2.6106,2.7523,2.8451,3.0749,3.3216,3.4234,3.5549,3.6926,3.8093,3.7913,3.7464,3.7614,3.7045,3.5908,3.3933,3.2317,3.0821,2.9382,3.0432,3.1391,3.1061,3.4053,0.0,3.7105,3.7734,0.0,3.932,0.0,3.9373,3.9373,3.9373,0.0,0.0,3.9373,3.9666,4.0343,3.9773,3.999,4.1295,4.006,3.9702,4.0378,4.0378,4.1231,4.2986,4.3169,4.3739,4.4615,4.4355,4.4384,4.4587,4.4355,4.4384,4.4615,4.4615,4.4615,4.4615,4.4615,4.4615,4.4581,4.4378,4.4282,4.4147,0.0,0.0,0.0,0.0,0.0,0.0,0.0,0.0,0.0,0.0,0.0,0.0,0.0,0.0,0.0,0.0,0.0,0.0,0.0,1.3957,1.4733,1.5713,1.6546,1.7403,1.8356,1.8827,1.9451,2.0174,2.1175,2.2132,2.3028,2.3776,2.4101,2.4155,2.4155,2.3853,2.3351,2.3351,2.3175,0.0,0.0,2.1515,2.1089,1.9058,1.8329,1.8204,1.6951,1.7171,1.828,1.9815,2.1414,2.3167,2.5949,2.7474,2.8685,3.0483,3.2669,3.4743,3.5911,3.6985,3.7913,3.8302,3.7913,3.7105,3.5938,3.519,3.4083,3.1719,2.9924,2.8547,2.7735,2.8786,2.9774,0.0,0.0,0.0,3.6447,3.7135,3.8033,0.0,3.9373,0.0,3.9373,3.9373,3.9373,0.0,3.9373,3.9595,4.01,3.9666,3.9844,4.0826,3.9915,3.9844,4.069,4.1462,4.2332,4.329,4.368,4.4121,4.4615,4.4615,4.4615,4.4615,4.4615,4.4615,4.4615,4.4615,4.4615,4.4615,4.4615,4.4615,4.4615,4.4615,4.4615,4.4479,0.0,0.0,0.0,0.0,0.0,0.0,0.0,0.0,0.0,1.2915,1.2915,1.2915,0.0,0.0,0.0,0.0,0.0,0.0,0.0,0.0,1.2915,1.2915,1.3223,1.3701,1.4352,1.4704,1.5271,1.6047,1.744,1.8483,1.9146,2.0643,2.1428,2.1656,2.1656,2.1409,2.1041,2.1041,2.1016,2.0865,1.9886,1.9133,1.8556,0.0,1.6948,1.65,1.65,1.7578,1.9409,2.2098,2.3486,2.461,2.7506,2.8507,2.9318,3.2698,3.4258,3.5402,3.7734,3.8452,3.8512,3.8422,3.7913,3.6716,3.4083,3.2916,3.1749,2.9532,2.759,2.6422,2.6746,2.7165,2.7735,2.8487,0.0,3.3335,3.534,3.6207,3.7285,3.908,3.9379,3.9373,3.9373,3.9373,3.9373,3.9373,3.9517,3.9589,3.9589,3.9445,3.9373,3.9373,3.9595,4.013,4.0894,4.2489,4.3383,4.3502,4.4241,4.4615,4.4615,4.4615,4.4615,4.4615,4.4615,4.4615,4.4615,4.4615,4.4615,4.4615,4.4615,4.4615,4.4615,4.4615,4.4615,4.4513,0.0,0.0,0.0,0.0,0.0,0.0,0.0,0.0,0.0,0.0,1.2915,1.2915,0.0,0.0,0.0,0.0,0.0,0.0,0.0,0.0,0.0,1.2915,1.2974,1.3062,1.3189,1.3268,1.3606,1.4259,1.4543,1.5186,1.6225,1.6525,1.7177,1.8162,1.8162,1.8387,1.8781,1.8781,1.8505,1.8102,1.7901,1.7451,1.6901,1.6748,0.0,0.0,1.65,1.7578,1.9334,2.168,2.3132,2.4705,2.8716,3.0269,3.1078,3.3931,3.5756,3.7135,3.8123,3.8811,3.911,3.8542,3.7913,3.6716,3.4083,3.2557,0.0,2.7051,2.5561,2.4485,2.2981,2.4926,2.7171,2.8397,3.127,3.4023,3.6028,3.6866,3.7584,0.0,3.908,3.9373,3.9373,3.9373,0.0,0.0,4.0095,4.0451,4.0451,3.9809,3.9373,3.9373,4.0792,4.1625,4.1756,4.2769,4.3651,4.4384,4.453,4.4615,4.4615,4.4615,4.4615,4.4615,4.4615,0.0,4.4615,4.4615,4.4615,4.4615,4.4615,4.4615,4.4615,4.4615,4.4615,4.4581,0.0,0.0,0.0,0.0,0.0,0.0,0.0,1.2418,1.2915,1.2915,1.2915,1.2915,1.2915,1.2915,1.2915,0.0,0.0,0.0,0.0,0.0,0.0,1.2915,1.2915,1.2915,1.2915,1.2915,1.3041,1.3334,0.0,1.3751,1.4631,1.4631,1.5074,1.5962,1.6291,1.6592,1.6869,1.719,1.7174,1.6923,1.6923,1.6773,1.65,0.0,0.0,0.0,0.0,1.7578,1.9208,2.0564,2.2347,2.4773,2.9057,3.0667,3.1584,3.4616,3.6417,3.7644,3.8661,3.917,3.917,3.8123,3.7404,3.5968,3.2287,0.0,0.0,2.4837,2.3281,2.2392,2.1814,2.352,2.5465,2.6811,3.0103,3.3036,3.4711,3.6088,3.7285,3.8272,3.8691,3.902,3.9379,3.9373,3.9589,4.006,4.006,4.0205,4.069,4.0309,4.0095,4.0095,4.1329,4.2237,4.2676,4.3562,4.4179,4.4615,4.4615,4.4615,4.4615,4.4615,4.4615,4.4615,4.4615,4.4615,4.4615,4.4615,4.4615,4.4615,4.4615,4.4615,4.4615,4.4615,4.4615,4.4615,0.0,0.0,0.0,0.0,0.0,0.0,0.0,1.2197,1.2725,1.2871,1.2915,1.2915,1.2915,1.2915,1.2915,0.0,0.0,0.0,0.0,0.0,0.0,0.0,0.0,0.0,0.0,0.0,0.0,1.2915,1.2915,0.0,0.0,0.0,0.0,0.0,1.5152,1.5465,1.562,1.6238,1.65,0.0,0.0,1.65,0.0,0.0,0.0,0.0,0.0,1.7353,1.8581,1.9384,2.1117,2.3629,2.7564,2.9639,3.1188,3.4341,3.5982,3.7105,3.8571,3.8955,3.8691,3.7494,3.6836,3.525,3.0462,2.8453,2.6596,2.3002,2.1306,2.0647,2.1156,2.2203,2.352,0.0,2.8102,3.0943,3.3006,3.4771,3.6417,3.8003,3.8302,0.0,3.9313,3.9589,0.0,4.0656,4.0413,4.0378,4.069,4.0894,4.0995,4.0995,4.182,4.2614,4.329,4.415,4.4615,4.4615,4.4615,4.4615,4.4615,4.4615,4.4615,4.4615,4.4615,4.4615,4.4615,4.4615,4.4615,4.4615,4.4615,4.4615,4.4615,4.4615,4.4615,4.4615,0.0,0.0,0.0,0.0,0.0,0.0,0.0,1.1466,1.2129,1.2798,1.2915,1.2915,1.2915,1.2915,1.2915,0.0,0.0,0.0,0.0,0.0,0.0,0.0,0.0,0.0,0.0,0.0,0.0,1.2915,1.2915,0.0,0.0,0.0,0.0,0.0,0.0,1.5085,1.562,1.6238,0.0,0.0,0.0,0.0,0.0,0.0,0.0,0.0,0.0,1.66,1.6977,1.8531,1.9259,1.9962,2.2862,2.6263,2.964,3.2115,3.3758,3.5192,3.7075,3.7584,3.7434,3.6746,3.6537,3.513,2.9894,2.8154,2.6327,2.1814,2.0288,1.9828,1.9887,2.0468,2.1764,2.4306,2.5501,2.7624,3.1988,3.3275,3.4711,3.7195,0.0,0.0,3.9313,4.013,4.0622,4.069,4.2109,4.23,4.0792,4.1429,4.1853,4.1853,4.2707,4.3199,4.3323,4.415,4.4615,4.4615,4.4615,4.4615,4.4615,4.4615,4.4615,4.4615,4.4615,4.4615,0.0,4.4615,4.4615,4.4615,4.4615,4.4615,4.4615,4.4615,4.4615,4.4615,0.0,0.0,0.0,0.0,0.0,0.0,1.0167,1.1116,1.1913,1.2203,1.2608,1.2915,1.2915,1.2915,1.2915,1.2915,0.0,0.0,0.0,0.0,0.0,0.0,0.0,0.0,0.0,0.0,1.2915,1.2915,1.2915,0.0,0.0,0.0,0.0,0.0,0.0,1.4835,1.513,1.6086,0.0,0.0,0.0,0.0,0.0,0.0,0.0,0.0,0.0,0.0,1.6651,1.7702,1.848,1.9133,1.991,2.2449,2.6029,3.0383,3.241,3.3908,3.6645,3.7404,3.7255,3.6626,3.528,3.3125,2.9445,2.6811,2.4328,2.1316,2.0168,1.9708,1.9708,1.9899,2.0587,2.2004,2.3797,2.592,2.8577,3.0522,3.2826,3.5908,3.6507,0.0,0.0,0.0,4.0165,4.0656,4.2332,4.3017,4.23,4.2583,4.2769,4.2769,4.3108,4.3562,4.4064,4.4412,4.4615,4.4615,4.4615,4.4615,4.4615,4.4615,4.4615,4.4615,4.4615,4.4615,0.0,4.4615,4.4615,4.4615,4.4615,4.4615,4.4615,4.4615,4.4857,4.5263,0.0,0.0,0.0,0.0,0.0,0.9562,0.9769,1.0585,1.1341,1.174,1.2246,1.2657,1.2871,1.2915,1.2915,1.2915,1.2915,0.0,0.0,0.0,0.0,0.0,0.0,0.0,0.0,0.0,1.2915,1.2915,1.2915,1.2915,0.0,0.0,1.2915,1.2944,0.0,0.0,0.0,0.0,0.0,0.0,0.0,0.0,0.0,0.0,0.0,0.0,0.0,0.0,0.0,0.0,0.0,1.823,1.8028,1.94,2.2115,2.7403,3.0105,3.1973,3.4847,3.6088,3.6447,3.5998,3.4053,3.1511,2.8906,2.5854,2.2981,2.0857,2.0019,1.9708,1.9708,1.9708,1.9899,2.0569,2.2392,2.4335,2.6063,2.8218,3.0881,3.4233,0.0,3.5938,3.8571,3.939,4.0165,4.1028,4.2237,4.3017,4.3292,4.3323,4.3413,4.368,4.368,4.3977,4.4615,4.4615,4.4615,4.4615,4.4615,4.4615,4.4615,4.4615,4.4615,4.4615,4.4615,4.4615,0.0,4.4615,4.4615,4.4615,4.4615,4.475,4.4925,4.4925,4.5399,4.6041,0.0,0.0,0.0,0.0,0.0,0.0,0.9692,0.9806,1.0295,1.1626,1.1807,1.208,1.2822,1.2915,1.2915,1.2915,1.2915,0.0,0.0,0.0,0.0,0.0,0.0,0.0,0.0,0.0,1.2915,1.2915,1.2915,1.2915,1.2915,1.2915,1.2915,1.292,0.0,0.0,0.0,0.0,0.0,0.0,0.0,0.0,0.0,0.0,0.0,0.0,0.0,0.0,0.0,0.0,0.0,0.0,0.0,1.7423,1.8323,2.2683,2.6199,2.9055,3.1009,3.3006,3.4533,3.4533,3.3006,3.0823,2.8214,2.5548,2.2862,2.0247,1.9708,1.9708,1.9708,1.9708,1.9899,2.0569,2.1276,2.2622,2.5255,2.6776,2.8843,0.0,3.3125,3.4562,3.7165,3.9409,4.1062,4.1917,4.1981,0.0,4.3229,4.3323,4.368,4.4559,4.4587,4.4615,4.4615,4.4615,4.4615,4.4615,4.4615,4.4615,4.4615,4.4615,4.4615,4.4615,4.4615,4.4615,0.0,4.4615,4.4615,4.4615,4.4615,4.5026,4.5703,4.5703,4.6143,4.6786,0.0,0.0,0.0,0.0,0.0,0.0,0.0,0.951,0.9935,1.0372,1.0813,1.1366,1.208,1.2153,1.2344,1.2847,1.2915,0.0,0.0,0.0,0.0,0.0,0.0,0.0,0.0,1.2915,1.2915,1.2915,1.2915,1.2915,1.2915,1.2915,1.2915,1.292,1.3529,1.4143,0.0,0.0,0.0,0.0,0.0,0.0,0.0,0.0,0.0,0.0,0.0,0.0,0.0,0.0,0.0,0.0,0.0,0.0,0.0,1.9987,2.2869,2.5993,2.8785,3.0313,3.1059,3.0582,2.8966,2.6996,2.5255,2.3191,2.1246,1.9977,1.9708,1.9708,1.9708,1.9708,1.9768,1.9959,2.0946,2.2293,0.0,0.0,0.0,3.2736,3.5759,3.7883,0.0,0.0,4.017,4.1062,4.1658,4.2395,4.3229,4.3856,4.4327,4.4615,4.4615,4.4615,4.4615,4.4615,4.4615,4.4615,4.4615,4.4615,4.4615,4.4615,4.4615,4.4615,4.4615,4.4615,4.4615,4.4615,4.4919,4.5365,4.5365,4.5805,4.6447,4.6447,4.6921,4.7496,0.0,0.0,0.0,0.0,0.0,0.0,0.0,0.9159,0.951,0.9769,1.0167,1.0762,1.169,1.1789,1.2104,1.2847,1.2915,0.0,0.0,0.0,0.0,0.0,0.0,0.0,1.2915,1.3052,1.3125,1.3125,1.3281,1.3359,1.3359,1.3359,1.3262,1.3155,1.3751,1.4292,0.0,0.0,0.0,0.0,0.0,0.0,1.65,0.0,0.0,0.0,0.0,0.0,0.0,0.0,0.0,0.0,0.0,0.0,0.0,0.0,2.0317,2.2762,2.5888,2.756,2.8368,2.7949,2.6333,2.4627,2.3789,2.1904,2.0198,1.9798,1.9708,1.9708,1.9708,1.9708,1.9798,2.0019,2.0976,2.2323,2.4118,0.0,0.0,3.3036,3.6567,0.0,0.0,3.9074,3.9773,4.0622,4.1198,4.2013,4.3229,4.3798,4.427,4.4587,4.4615,4.4615,4.4615,4.4615,4.4615,4.4615,4.4615,4.4615,4.4615,4.4615,4.4615,4.4615,4.4615,4.4784,0.0,4.4993,4.5432,4.6109,4.6109,4.6583,4.7225,4.7225,4.7699,4.8206,0.0,0.0,0.0,0.0,0.0,0.0,0.0,0.8804,0.9041,0.964,0.9755,1.0295,1.1591,1.1765,1.2104,1.2847,0.0,0.0,0.0,0.0,0.0,0.0,0.0,0.0,1.2954,1.3301,1.349,1.3555,1.3919,1.4114,1.4114,1.4114,1.3899,1.358,1.4108,1.4454,1.4766,0.0,0.0,0.0,1.65,1.65,0.0,0.0,0.0,0.0,0.0,0.0,0.0,0.0,0.0,0.0,0.0,0.0,0.0,0.0,0.0,0.0,0.0,2.4747,2.6243,2.6183,2.4777,2.337,2.334,2.1425,0.0,1.9708,1.9708,1.9708,1.9708,1.9738,1.9959,2.0598,2.1335,2.2742,0.0,2.7136,0.0,0.0,3.5998,0.0,3.7494,3.8661,3.9773,4.0622,4.0758,4.1528,4.3199,4.3383,4.3739,4.4587,4.4615,4.4615,4.4615,4.4615,4.4615,4.4615,4.4615,4.4615,4.4615,4.4615,4.4615,0.0,4.4615,4.4993,4.5635,4.5703,4.6143,4.6786,4.6853,4.7327,4.7973,4.7973,4.8376,4.8815,0.0,0.0,0.0,0.0,0.0,0.0,0.0,0.0,0.0,0.0,0.9484,1.0115,1.0939,1.1491,1.2104,0.0,0.0,0.0,0.0,0.0,0.0,0.0,0.0,0.0,1.3359,1.3457,1.3646,1.3958,1.4055,1.4114,1.4114,1.4114,1.4055,1.3938,1.3787,1.4063,1.4766,1.5998,0.0,0.0,1.65,1.65,0.0,0.0,0.0,0.0,1.65,1.65,0.0,0.0,0.0,0.0,0.0,0.0,0.0,0.0,1.8222,1.8655,2.0222,0.0,2.2742,2.2203,2.1734,2.1246,0.0,2.0157,1.9708,1.9708,1.9708,1.9708,1.9708,2.0109,2.0528,2.0658,2.2084,2.3909,2.6063,3.0552,0.0,3.5609,3.7644,3.8751,3.8212,3.8931,3.9773,4.0622,4.1297,4.2141,4.3229,4.3948,4.4384,4.4615,4.4615,4.4615,4.4615,4.4615,4.4615,4.4615,4.4615,4.4615,4.4615,4.4615,4.4615,4.4615,4.4615,4.4716,4.4919,4.5466,4.6143,4.6853,4.7428,4.8105,4.8748,4.8748,4.8511,4.8041,0.0,0.0,0.0,0.0,0.0,0.0,0.0,0.0,0.0,0.0,0.0,0.9718,1.0686,1.1116,0.0,0.0,0.0,0.0,0.0,0.0,0.0,0.0,0.0,1.3281,1.3496,1.3887,1.4297,1.4699,1.4922,1.5117,1.5303,1.5089,1.4902,1.4687,1.4425,1.4766,1.5555,1.6216,1.65,1.65,1.65,0.0,0.0,0.0,0.0,0.0,1.65,1.65,0.0,1.65,1.65,1.65,0.0,0.0,0.0,0.0,1.8092,1.8327,1.9406,2.0247,2.0696,2.0318,2.0228,2.0139,1.9798,1.9708,1.9708,1.9708,1.9708,1.9798,2.0109,2.0468,2.0987,2.1904,2.343,2.5525,0.0,0.0,3.507,3.6327,3.7674,3.8601,0.0,3.92,3.992,4.1198,4.1723,4.2552,4.3827,4.3977,4.4179,4.4587,4.4212,4.4212,4.4615,4.4615,4.4615,4.4615,4.4615,4.4615,4.4615,4.4615,4.4615,4.4615,4.4959,4.5297,4.5698,4.6413,4.7158,4.7834,4.8274,4.8646,4.9018,4.9018,4.8545,4.777,0.0,0.0,0.0,0.0,0.0,0.0,0.0,0.0,0.0,0.0,0.0,0.0,0.0,0.0,0.0,0.0,0.0,0.0,0.0,0.0,0.0,0.0,1.3281,1.3535,1.3588,1.4434,1.5078,1.5508,1.5987,1.6367,1.6687,1.6348,1.5958,1.5554,1.5442,1.58,1.6492,1.6504,1.65,1.65,1.65,0.0,0.0,0.0,0.0,0.0,0.0,0.0,0.0,1.65,1.65,1.65,1.65,0.0,0.0,0.0,0.0,0.0,1.9314,1.9922,2.0217,1.9798,1.9708,1.9708,1.9708,1.9708,1.9738,1.9828,1.9839,2.0049,2.0737,2.0946,2.1555,2.331,0.0,0.0,3.1421,3.3275,3.4831,3.6447,3.7285,0.0,3.9319,3.9565,4.0309,4.2078,4.2205,4.2831,4.4327,4.368,4.3621,4.4384,4.368,4.371,4.4615,4.4615,4.4615,4.4615,4.4615,4.4615,4.4615,4.4615,4.4682,4.4818,4.5432,0.0,4.6853,4.7597,4.8274,4.8849,4.8951,4.9018,4.9018,4.9018,4.8477,4.7631,0.0,0.0,0.0,0.0,0.0,0.0,0.0,0.0,0.0,0.0,0.0,0.0,0.0,0.0,0.0,0.0,0.0,0.0,0.0,0.0,0.0,1.2915,1.3281,1.3646,1.3997,1.4855,1.5527,1.5987,1.6406,1.6629,1.6707,1.6629,1.6527,1.6327,1.6016,1.6091,1.6424,1.6479,1.65,1.65,1.65,0.0,0.0,0.0,0.0,0.0,0.0,0.0,0.0,1.65,1.65,1.65,1.65,0.0,0.0,0.0,0.0,0.0,1.8855,2.0961,2.2473,2.0247,1.9708,1.9708,1.9708,1.9708,1.9857,2.0438,2.0557,2.0767,2.1425,2.1994,2.2673,2.346,0.0,3.1391,0.0,0.0,3.7554,3.7285,0.0,3.9249,3.9616,4.0177,4.1229,4.2986,4.3108,4.3199,4.3502,4.3383,4.3383,4.3502,4.3383,4.371,4.4615,4.4615,4.4615,4.4615,4.4615,4.4615,4.4615,4.4615,4.4925,4.5534,0.0,4.6109,4.6853,4.7597,4.7973,4.8108,4.8781,4.9018,4.9018,4.9018,4.8139,4.6752,0.0,0.0,0.0,0.0,0.0,0.0,0.0,0.0,0.0,0.0,0.0,0.0,0.0,0.0,0.0,0.0,0.0,0.0,0.0,0.0,1.3013,1.3203,1.3613,1.3899,1.4094,1.5215,1.5977,1.6426,1.6875,1.7207,1.7369,1.6921,1.683,1.7002,1.6317,1.6352,1.6915,1.6638,1.65,1.65,0.0,0.0,0.0,0.0,0.0,0.0,0.0,0.0,0.0,0.0,1.65,1.65,1.65,0.0,0.0,0.0,0.0,0.0,1.9099,2.0406,2.1545,2.1754,2.2622,2.3422,2.3422,2.3422,2.331,2.29,2.2811,2.2781,2.2742,2.3954,2.5927,2.9087,3.0951,3.2886,3.525,3.6001,3.6567,0.0,0.0,3.9355,4.0161,4.0974,4.1723,4.252,4.2583,4.2583,4.2583,4.2173,4.2332,4.3259,4.2831,4.3229,4.4587,4.4615,4.4615,4.4615,4.4615,4.4615,4.4615,4.4615,4.4784,4.5128,0.0,4.6481,4.6887,4.8037,4.8511,4.8545,4.8883,4.9018,4.8917,4.8105,4.7361,4.6583,0.0,0.0,0.0,0.0,0.0,0.0,0.0,0.0,0.0,0.0,0.0,0.0,0.0,0.0,0.0,0.0,0.0,0.0,0.0,1.2749,1.2899,1.3471,1.388,1.4153,1.425,1.5547,1.6387,1.6707,1.7266,1.7695,1.7988,1.7096,1.7114,1.7756,1.6558,1.6591,1.7549,1.6823,1.65,1.65,0.0,0.0,0.0,0.0,0.0,0.0,0.0,0.0,0.0,0.0,0.0,0.0,0.0,0.0,0.0,1.7653,1.8072,1.8463,1.9295,2.0035,2.1096,2.3101,2.4418,2.5465,2.6393,2.6243,2.5764,2.5382,2.5292,2.5166,2.4627,2.6138,2.8883,3.3242,3.3667,3.4262,3.6596,3.6211,3.6277,3.7982,3.8574,3.951,4.1137,4.1723,4.2173,4.2583,4.2614,4.2426,4.2013,4.1363,4.1593,4.2956,4.2363,4.2831,4.4587,4.4615,4.4615,4.4615,4.4615,4.4615,4.4615,4.4784,4.4925,4.519,4.6481,4.7158,4.7394,4.8545,4.9018,4.9018,4.9018,4.9018,4.8815,4.7327,4.6786,4.6583,0.0,0.0,0.0,0.0,0.0,0.0,0.0,0.0,0.0,0.0,0.0,0.0,0.0,0.0,0.0,0.0,0.0,0.0,0.0,1.227,1.2364,1.3471,1.388,1.4289,1.4727,1.5985,1.6668,1.6707,1.7525,1.7988,1.7988,1.7096,1.7472,1.8733,1.6846,1.6802,1.8078,1.6951,1.65,1.65,1.65,0.0,0.0,0.0,0.0,0.0,0.0,0.0,0.0,0.0,0.0,0.0,0.0,0.0,1.725,1.7333,1.8052,1.8855,1.8949,2.1088,2.337,2.355,2.2353,2.2084,2.5764,2.5166,2.4477,2.6896,2.7375,2.7375,2.7315,2.8475,2.9913,3.1477,3.4234,3.6686,3.8063,0.0,3.94,4.0365,3.9803,4.0355,4.2862,4.2458,4.2676,4.4298,4.4412,4.371,4.2109,4.1917,4.1949,4.2109,4.2013,4.2831,4.4587,4.4615,4.4615,4.4615,4.4615,4.4615,4.4615,4.5297,4.5974,4.6684,4.7496,4.8206,4.8849,4.8951,4.9018,4.9018,4.9018,4.9018,4.8815,4.7327,4.6786,4.6583,0.0,0.0,0.0,0.0,0.0,0.0,0.0,0.0,0.0,0.0,0.0,0.0,0.0,0.0,0.0,0.0,0.0,0.0,0.0,1.2203,1.2314,1.3471,1.388,1.4309,1.4793,1.6055,1.6707,1.6707,1.7564,1.7871,1.7598,1.698,1.7349,1.8458,1.6758,1.6825,1.8129,1.6977,1.65,1.65,1.65,1.65,0.0,0.0,0.0,0.0,0.0,0.0,0.0,0.0,1.65,1.6565,1.69,1.7126,1.7435,1.8092,1.8588,1.8968,1.9314,2.1168,2.3242,2.4007,2.3977,2.4784,2.8757,2.9059,2.879,2.9834,3.0372,3.0659,3.0746,3.2573,3.4502,3.5871,3.6987,3.8357,4.0364,4.0399,4.0519,4.1396,4.1723,4.2205,4.3199,4.3502,4.368,4.3768,4.329,4.2489,4.1231,4.1164,4.1429,4.1981,4.252,4.338,4.4587,4.4615,4.4615,4.4615,4.506,4.5263,4.5297,4.6041,4.6549,4.6819,4.7597,4.8041,4.8376,4.8815,4.9018,4.9018,4.9018,4.9018,4.8815,4.7327,4.6786,4.6583,0.0,0.0,0.0,0.0,0.0,0.0,0.0,0.0,0.0,0.0,0.0,0.0,0.0,0.0,0.0,0.0,0.0,0.0,1.2847,1.2203,1.2314,1.3471,1.388,1.4309,1.4793,1.5918,1.6551,1.6707,1.7564,1.7793,1.7396,1.6902,1.7267,1.8219,1.6695,1.6825,1.8129,1.6977,1.65,1.65,1.65,1.65,0.0,0.0,0.0,0.0,0.0,0.0,0.0,0.0,1.6229,1.6268,1.6669,1.7103,1.7628,1.8407,1.8893,1.924,1.9617,2.0876,2.2473,2.4186,2.5083,2.6692,3.0853,3.1481,3.1567,3.2911,3.3545,3.3964,3.4297,3.5635,3.7188,3.869,3.9052,3.9688,4.1366,4.1297,4.133,4.1917,4.252,4.3108,4.3651,4.4006,4.4064,4.3739,4.2892,4.2013,4.1162,4.1098,4.1363,4.1949,4.2863,4.371,4.4615,4.4615,4.4615,4.4615,4.5568,4.594,4.5737,4.6718,4.7158,4.7192,4.7936,4.8274,4.8308,4.8815,4.9018,4.9018,4.9018,4.9018,4.8849,4.7597,4.6989,4.6616,0.0,0.0,0.0,0.0,0.0,0.0,0.0,0.0,0.8804,0.8804,0.8804,0.0,0.0,0.0,0.0,0.0,0.0,0.0,1.2798,1.2203,1.2314,1.3426,1.388,1.4309,1.4793,1.5654,1.6269,1.6707,1.7545,1.7773,1.7396,1.6934,1.7267,1.8219,1.6695,1.6825,1.8129,1.6977,1.65,1.65,1.65,1.65,1.65,0.0,0.0,0.0,0.0,0.0,0.0,0.0,1.5613,1.5533,1.5678,1.6713,1.7912,1.8082,1.8874,1.9708,1.9708,2.0228,2.1376,2.3977,2.5143,2.6871,3.1451,3.148,3.1707,3.5919,3.6814,3.7055,3.7847,3.7219,3.7075,3.8724,3.9976,4.0724,4.0724,4.1462,4.2046,4.2013,4.2013,4.2707,4.444,4.3798,4.3651,4.4525,4.3768,4.2925,4.2078,4.1981,4.1981,4.1981,4.2831,4.371,4.4615,4.4615,4.4615,4.4649,4.6075,4.6413,4.5771,4.7229,4.7906,4.7939,4.868,4.9018,4.9018,4.9018,4.9018,4.9018,4.9018,4.9018,4.8917,4.8142,4.7428,4.6684,0.0,0.0,0.0,0.0,0.0,0.0,0.0,0.0,0.8804,0.8804,0.8804,0.0,0.0,0.0,0.0,0.0,0.0,0.0,1.2798,1.2203,1.2184,1.3042,1.3477,1.3724,1.3887,1.5019,1.5977,1.6707,1.696,1.6894,1.6476,1.686,1.7109,1.7216,1.6922,1.7099,1.7576,1.6801,1.65,1.65,1.65,1.65,1.65,0.0,0.0,0.0,0.0,0.0,0.0,0.0,0.0,0.0,1.6544,1.732,1.8057,1.8961,1.9442,1.9798,2.0288,2.2263,2.4306,2.5113,2.7534,3.0345,3.2677,3.2527,3.2826,3.5937,3.7468,3.7989,3.7091,3.8905,4.0341,3.9796,4.08,4.2045,4.329,4.3139,4.3139,4.3768,4.3827,4.4035,4.4559,4.3798,4.3651,4.4525,4.2676,4.1626,4.1949,4.1981,4.1981,4.1981,4.3439,4.4355,4.4615,4.4615,4.4857,4.5399,4.6346,4.6684,4.6515,4.8003,4.868,4.8714,4.8917,4.9018,4.9018,4.9018,4.9018,4.9018,4.9018,4.9018,4.8917,4.8142,4.7428,4.6684,0.0,0.0,0.0,0.0,0.0,0.0,0.8804,0.9041,0.9185,0.9185,0.9432,0.9588,0.0,0.0,0.0,1.1141,1.1191,1.1683,1.2822,1.2486,1.2461,1.2871,1.3281,1.3568,1.3724,1.4484,1.5128,1.5673,1.6356,1.6504,1.6115,1.6652,1.6842,1.6792,1.6799,1.7024,1.7373,1.6773,1.65,1.65,1.65,1.65,1.6475,0.0,0.0,0.0,0.0,0.0,0.0,0.0,0.0,0.0,1.6028,1.6979,1.7975,1.8744,1.9307,2.0007,2.1455,2.331,2.5315,2.7415,2.9747,3.2049,3.4203,3.5026,3.5883,3.7767,3.9217,3.994,3.9313,4.0798,4.2048,4.1858,4.2246,4.2862,4.3948,4.3948,4.3889,4.4064,4.4384,4.4615,4.4615,4.4121,4.3889,4.4064,4.23,4.1264,4.1462,4.1788,4.1981,4.1981,4.371,4.4615,4.4615,4.4615,4.4959,4.5703,4.6447,4.6955,4.7293,4.8477,4.9018,4.9018,4.9018,4.9018,4.9018,4.9018,4.9018,4.9018,4.9018,4.9018,4.8951,4.8511,4.7868,4.7158,0.0,0.0,0.0,0.0,0.0,0.0,0.8989,0.9484,0.9884,0.9884,1.0423,1.0788,0.0,0.0,0.0,1.174,1.1789,1.2104,1.2847,1.2915,1.2915,1.2915,1.3242,1.3633,1.3977,1.4036,1.4055,1.4055,1.5712,1.6328,1.5939,1.6263,1.6507,1.6662,1.6475,1.6733,1.7297,1.6748,1.65,1.65,1.65,1.6475,1.6375,1.5894,0.0,0.0,0.0,0.0,0.0,0.0,0.0,0.0,1.4713,1.6078,1.766,1.7882,1.8932,2.0516,2.3011,2.3909,2.5345,3.0345,3.1809,3.2856,3.5938,3.8233,3.9815,4.0371,4.117,4.2045,4.2892,4.2454,4.2483,4.4207,4.3823,4.3314,4.341,4.4093,4.4327,4.3502,4.4121,4.4615,4.4615,4.4525,4.4212,4.3472,4.2458,4.156,4.086,4.156,4.1981,4.1981,4.371,4.4615,4.4615,4.4615,4.4993,4.5805,4.6481,4.7225,4.8007,4.8714,4.9018,4.9018,4.9018,4.9018,4.9018,4.9018,4.9018,4.9018,4.9018,4.9018,4.9018,4.9018,4.8545,4.7906,0.0,0.0,0.0,0.0,0.0,0.0,1.0372,1.0483,1.0585,1.0585,1.0712,1.0788,1.0788,1.0788,0.0,1.174,1.1789,1.2104,1.2847,1.2915,1.2915,1.2915,1.2993,1.3066,1.3145,1.3477,1.3627,1.3627,1.4687,1.498,1.4551,1.603,1.6321,1.5679,1.669,1.699,1.6697,1.655,1.65,1.65,1.65,1.6245,1.5869,1.5743,1.5437,0.0,0.0,0.0,0.0,0.0,0.0,0.0,1.5153,1.6059,1.7129,1.8208,2.0214,2.2403,2.3947,2.6303,2.8936,3.1629,3.4201,3.6477,3.7704,3.8777,3.9335,3.8978,3.9545,4.037,4.1103,4.1242,4.1734,4.3304,4.3476,4.3592,4.4226,4.4468,4.4525,4.4355,4.4468,4.4615,4.4615,4.3977,4.3802,4.4298,4.2236,4.1198,4.1691,4.1885,4.1981,4.1981,4.371,4.4615,4.4615,4.4615,4.5258,4.6549,4.6718,4.7496,4.8781,4.8951,4.9018,4.9018,4.9018,4.9018,4.9018,4.9018,4.9018,4.9018,4.9018,4.9018,4.9018,4.9018,4.8545,4.7906,0.0,0.0,0.0,0.0,0.0,0.0,0.0,0.0,1.1541,1.1309,1.1584,1.1825,1.1825,1.1825,0.0,0.0,1.232,1.2486,1.2871,1.2915,1.2915,1.2915,1.2915,1.2915,1.2915,1.3105,1.3203,1.3203,1.3848,1.416,1.4141,1.5464,1.5808,1.5367,1.6466,1.6798,1.65,1.65,1.65,1.65,1.65,1.6325,1.6045,1.5492,1.5135,1.4783,1.3979,0.0,0.0,0.0,0.0,0.0,0.0,0.0,1.6533,1.7848,1.945,2.1485,2.4687,2.6841,2.9022,3.2557,3.5459,3.7494,3.7853,3.8691,3.932,3.896,3.9512,4.0357,4.1168,4.175,4.2389,4.3198,4.3726,4.3978,4.4012,4.435,4.4615,4.4615,4.4615,4.4615,4.4615,4.4179,4.3948,4.3977,4.2332,4.133,4.1363,4.1756,4.1981,4.1981,4.371,4.4615,4.4615,4.4925,4.5669,4.6786,4.7158,4.7902,4.9018,4.9018,4.9018,4.9018,4.9018,4.9018,4.9018,4.9018,4.9018,4.9018,4.9018,4.9018,4.9018,4.9018,4.8781,4.8443,0.0,0.0,0.0,0.0,0.0,0.0,0.0,0.0,0.0,1.2042,1.2535,1.2915,1.2915,1.2915,1.2915,0.0,0.0,0.0,1.2915,1.2915,1.2915,1.2915,1.2915,1.2915,1.2915,1.2915,1.2915,1.2915,1.3223,1.3625,1.409,1.491,1.5322,1.5399,1.6171,1.65,1.65,1.65,1.65,1.65,1.65,1.6425,1.6271,1.5387,1.4984,1.4758,1.3735,1.3366,1.3265,1.2613,0.0,0.0,0.0,0.0,1.5844,1.7026,1.8253,2.0198,2.4687,2.6572,2.8427,3.3305,3.5789,3.7165,3.7494,3.8452,3.926,3.9409,3.9955,4.0792,4.1788,4.2486,4.3049,4.3507,4.4045,4.4215,4.3673,4.4181,4.4615,4.4615,4.4615,4.4615,4.4615,4.4615,4.4241,4.3383,4.2489,4.1691,4.0961,4.1593,4.2045,4.2237,4.3768,4.4615,4.4615,4.5331,4.6075,4.6819,4.7699,4.8409,4.9018,4.9018,4.9018,4.9018,4.9018,4.9018,4.9018,4.9018,4.9018,4.9018,4.9018,4.9018,4.9018,4.9018,4.9018,4.9018,0.0,0.0,0.0,0.0,0.0,0.0,0.0,0.0,0.0,0.0,1.2847,1.2915,1.2915,1.2915,1.2915,1.2915,1.2915,1.2915,1.2915,0.0,0.0,1.2915,1.2915,1.2915,1.2915,1.2915,1.2915,1.2915,1.2954,1.3286,1.3861,1.4851,1.5403,1.5605,1.6219,1.65,1.65,1.65,1.65,1.65,1.65,1.622,1.5793,1.5663,1.5311,1.4828,1.4198,1.3972,1.3821,1.2755,1.2886,0.0,0.0,0.0,1.5095,1.5814,1.854,2.1575,2.2882,2.6512,3.0702,3.3755,3.513,3.6207,3.7883,3.8392,3.8691,3.929,3.9481,4.006,4.1723,4.1565,4.1929,4.4091,4.3944,4.3775,4.435,4.4547,4.4615,4.4615,4.4615,4.4615,4.4615,4.4615,4.4241,4.3383,4.2489,4.1949,4.182,4.1949,4.2363,4.3108,4.4093,4.4615,4.4615,4.5331,4.6075,4.6819,4.8206,4.8917,4.9018,4.9018,4.9018,4.9018,4.9018,4.9018,4.9018,4.9018,4.9018,4.9018,4.9018,4.9018,4.9018,4.9018,4.9018,4.9018,0.0,0.0,0.0,0.0,0.0,0.0,0.0,0.0,0.0,0.0,0.0,1.2915,1.2915,1.2915,1.2915,1.2915,1.2915,1.2915,1.2915,1.2915,1.2915,1.2915,1.2915,1.2915,1.2915,1.2915,1.2915,1.2915,1.2915,1.3382,1.4306,1.4759,1.52,1.562,1.6238,1.65,1.65,1.65,1.65,1.65,1.65,1.7099,1.7827,1.6296,1.6321,1.6992,1.5531,1.4764,1.4375,1.3874,1.3525,1.3291,1.3091,0.0,0.0,0.0,1.7028,1.9348,2.3721,2.7405,3.0702,3.3755,3.4981,3.5729,3.6567,3.7614,3.8482,3.8781,3.914,3.9773,4.1062,4.1404,4.1911,4.3082,4.3698,4.4045,4.3944,4.4316,4.4615,4.4615,4.4615,4.4615,4.4615,4.4615,4.444,4.4064,4.2769,4.2205,4.2707,4.2269,4.2395,4.3259,4.415,4.4615,4.4615,4.5737,4.6887,4.8037,4.868,4.9018,4.9018,4.9018,4.9018,4.9018,4.9018,4.9018,4.9018,4.9018,4.9018,4.9018,4.9018,4.9018,4.9018,4.9018,4.9018,4.9018,0.0,0.0,0.0,0.0,0.0,0.0,0.0,0.0,0.0,0.0,0.0,1.2915,1.2915,0.0,0.0,0.0,1.2915,1.2915,1.2915,1.2915,1.2856,1.2715,1.2715,1.2656,1.2563,1.2563,1.2621,1.2715,1.2715,1.3402,1.4698,1.4698,1.5107,0.0,1.6303,1.65,0.0,0.0,0.0,1.6572,1.739,1.8708,1.9964,1.8063,1.8345,1.946,1.6977,1.5792,1.5282,1.4853,1.4266,1.3624,1.3185,1.3065,0.0,0.0,0.0,1.7178,2.3422,2.6303,2.8513,3.2317,3.3634,3.4262,3.528,3.6626,3.7793,3.8302,3.8811,3.9414,4.0209,4.1231,4.2107,4.2416,4.3667,4.4384,4.3809,4.4215,4.4615,4.4615,4.4615,4.4615,4.4615,4.4615,4.4412,4.3943,4.2923,4.252,4.2956,4.2552,4.2738,4.3591,4.427,4.4615,4.4615,4.6041,4.753,4.9018,4.9018,4.8861,4.8639,4.8892,4.8861,4.8639,4.8892,4.9018,4.9018,4.9018,4.9018,4.9018,4.9018,4.9018,4.9018,4.9018,4.9018,4.9018,0.0,0.0,0.0,0.0,0.0,0.0,0.0,0.0,0.0,0.0,0.0,1.2915,1.2915,1.2915,1.2915,1.2915,1.2915,1.2915,1.2915,1.2915,1.2695,1.2262,1.2242,0.0,1.1685,1.1665,1.1858,1.2242,1.2242,1.3071,1.4698,1.4698,1.5332,1.6457,1.65,1.65,1.65,0.0,0.0,1.6762,1.9807,2.1102,2.1259,2.1619,2.1834,2.1504,1.8357,0.0,1.6922,1.5245,1.4847,1.4687,1.2899,1.2981,1.3633,0.0,0.0,0.0,2.0049,2.1545,2.334,2.8573,2.9891,3.0909,3.4651,3.5579,3.6178,3.8003,3.8422,3.8667,3.9326,4.086,4.2268,4.3136,4.4001,4.4581,4.4547,4.4581,4.4615,4.4615,4.4615,4.4615,4.4615,4.4615,4.3885,4.2269,4.2833,4.2894,4.2109,4.28,4.3621,4.4497,4.4587,4.4615,4.4615,4.6041,4.753,4.9018,4.9018,4.8545,4.7704,4.8576,4.8513,4.7737,4.8608,4.9018,4.9018,4.9018,4.9018,4.9018,4.9018,4.9018,4.9018,4.9018,4.9018,4.9018,0.0,0.0,0.0,0.0,0.0,0.0,0.0,0.0,0.0,0.0,0.0,0.0,0.0,1.2915,1.2915,1.2915,1.2915,1.2915,1.2915,1.2617,1.2379,1.2223,1.1953,1.1741,1.1606,1.1606,1.1663,1.1797,1.1797,1.2477,1.3735,1.4137,1.472,1.5512,1.6174,1.65,1.65,1.65,0.0,1.6762,1.9987,2.2153,2.3312,2.2443,0.0,0.0,0.0,0.0,0.0,1.9418,1.7583,1.5418,1.4751,1.391,1.3118,1.2861,1.394,1.5874,1.9151,2.0557,2.2024,2.6033,2.8607,3.0552,3.1958,3.4292,3.6327,3.7015,3.7823,3.8627,3.9463,4.0915,4.2077,4.2426,4.368,4.4615,4.4615,4.4615,4.4615,4.4615,4.4615,4.4615,4.4615,4.4615,4.4093,4.2925,4.3108,4.3169,4.2831,4.3139,4.368,4.4587,4.4615,4.5055,4.5974,4.6515,4.753,4.9018,4.9018,4.8829,4.8482,4.8225,4.8257,4.8482,4.8225,4.845,4.9018,4.9018,4.9018,4.8923,4.8321,4.8129,4.8032,4.7406,4.7205,4.7205,0.0,0.0,0.0,0.0,0.0,0.0,0.0,0.0,0.0,1.2915,0.0,0.0,0.0,0.0,1.2915,1.2915,1.2915,1.2837,1.2676,1.2359,1.2067,1.1775,1.1504,1.1291,1.1175,1.1154,1.1213,1.1369,1.1561,1.2152,1.3221,1.3788,1.4346,1.4934,1.5643,1.607,0.0,0.0,0.0,1.6881,0.0,0.0,2.4548,0.0,0.0,0.0,0.0,0.0,0.0,0.0,0.0,0.0,1.7537,1.5139,1.2801,1.2801,1.3418,1.4706,1.7342,1.8523,1.9899,2.343,2.5944,2.8008,2.9774,3.2643,3.5213,3.6302,3.7593,3.8782,3.959,4.0992,4.2136,4.2394,4.3651,4.4615,4.4615,4.4615,4.4615,4.4615,4.4615,4.4615,4.4615,4.4615,4.4121,4.2956,4.3413,0.0,4.2862,4.3443,4.4006,4.4587,4.4852,4.5534,4.6786,4.7056,4.78,4.9018,4.9018,4.8671,4.8064,4.7737,4.777,4.8031,4.7737,4.8129,4.9018,4.9018,4.8829,4.8482,4.7836,4.7406,4.707,4.6419,4.6208,4.6208,0.0,0.0,0.0,0.0,0.0,0.0,0.0,0.0,1.2915,1.2915,0.0,0.0,0.0,0.0,0.0,1.2915,1.2915,1.2695,1.2242,1.2203,1.1794,1.0957,1.0898,1.0703,1.0312,1.0293,1.0508,1.0899,1.1409,1.2206,1.3174,1.3729,1.4292,1.4833,1.4884,1.5185,1.5693,0.0,1.6475,1.7052,0.0,2.5412,2.4848,0.0,0.0,0.0,2.471,2.3883,0.0,2.6063,0.0,0.0,0.0,1.6503,1.2891,1.2831,1.2801,0.0,0.0,0.0,0.0,0.0,2.1635,2.3071,2.8244,3.054,3.2524,3.5794,3.7644,3.8884,3.9681,4.1116,4.24,4.3155,4.4001,4.4615,4.4615,4.4587,4.4559,4.4559,4.4559,4.4559,4.453,4.4559,4.3827,4.2077,4.3591,4.3798,4.2077,4.3651,4.4615,4.4615,4.5331,4.6041,4.6786,4.753,4.8274,4.9018,4.9018,4.8031,4.6279,4.7172,4.7104,4.6279,4.7172,4.8096,4.8954,4.8954,4.8418,4.7572,4.7539,4.6968,4.6138,4.6138,4.6103,4.6103,0.0,0.0,0.0,0.0,0.0,1.2915,1.2915,1.2915,1.2915,0.0,0.0,0.0,1.2915,1.2915,1.2915,1.2915,1.2915,1.2695,1.2242,1.1934,1.1526,1.0937,1.0625,1.041,1.0293,1.0293,1.0527,1.0976,1.1112,1.1711,1.2714,1.3241,1.3561,1.3717,1.4532,1.4984,1.516,1.5693,0.0,1.6986,2.2697,2.5245,0.0,0.0,0.0,0.0,0.0,2.8922,2.9328,0.0,2.6782,2.2733,0.0,0.0,0.0,1.322,0.0,0.0,1.3855,0.0,0.0,0.0,0.0,0.0,0.0,2.6736,2.9698,3.3098,3.4498,3.6144,3.9418,4.0746,4.1621,4.2417,4.3732,4.4615,4.4615,4.4064,4.3651,4.3651,4.3651,4.341,4.2769,4.329,4.2923,0.0,4.2676,4.3169,4.2078,4.3651,4.4615,4.4615,4.5331,4.6041,4.6786,4.753,4.8274,4.9018,4.9018,4.8353,4.7205,4.6765,4.6799,4.7205,4.6765,4.7138,4.7966,4.7966,4.7836,4.744,4.6099,4.5447,4.5116,4.4365,4.4128,4.4128,0.0,0.0,1.2915,1.2915,1.2915,1.2915,1.2915,1.3027,1.3145,0.0,0.0,0.0,1.3164,1.3145,1.3066,1.2915,1.2915,1.2695,1.2242,1.1816,1.1389,1.0918,1.0508,1.0293,1.0293,1.0098,1.0132,1.0431,1.0608,1.1018,1.1588,1.2279,1.2562,1.2563,1.3458,1.413,1.4601,1.5135,0.0,0.0,2.2828,0.0,0.0,2.937,3.1939,0.0,0.0,0.0,3.16,3.2347,2.8906,0.0,0.0,0.0,0.0,0.0,0.0,0.0,0.0,0.0,0.0,0.0,0.0,0.0,0.0,0.0,0.0,0.0,3.5444,3.6776,3.9588,4.0367,4.0875,4.17,4.2828,4.3741,4.4045,4.3652,4.3348,4.3287,4.3323,4.2956,4.2077,4.2458,4.2332,4.1297,4.252,4.3229,4.3075,4.4064,4.4615,4.4615,4.5602,4.638,4.6786,4.7834,4.8578,4.9018,4.9018,4.8289,4.7002,4.6454,4.6279,4.6416,4.585,4.617,4.7002,4.659,4.6451,4.6346,4.5227,4.4548,4.412,4.3527,4.329,4.329,0.0,0.0,1.292,1.2992,1.2992,1.3036,1.3173,1.3487,1.3745,0.0,1.4044,1.409,1.3742,1.3625,1.3418,1.2988,1.2974,1.2734,1.2242,1.1878,1.1447,1.0917,1.0547,1.0351,1.0292,0.988,0.97,0.9731,1.0162,1.0403,1.0466,1.1256,1.1615,1.1615,1.2153,1.3048,1.4141,1.4676,0.0,1.7562,2.3563,2.5467,0.0,0.0,3.1843,3.1717,3.2028,3.2136,3.2348,3.4382,3.148,0.0,0.0,0.0,0.0,0.0,1.5155,0.0,0.0,0.0,0.0,0.0,0.0,0.0,0.0,0.0,0.0,0.0,3.6919,3.7725,3.8821,3.9073,3.9334,3.9986,4.0832,4.188,4.3105,4.3103,4.3031,4.3053,4.2909,4.2512,4.1821,4.1821,4.1853,4.1723,4.2614,4.3591,4.4559,4.4615,4.4649,4.4716,4.6041,4.6819,4.6921,4.8308,4.9018,4.9018,4.9018,4.7998,4.6208,4.6208,4.5706,4.4812,4.4812,4.5264,4.5961,4.5153,4.4812,4.4774,4.4662,4.4082,4.329,4.329,4.329,4.329,1.2915,1.2915,1.3065,1.3552,1.3624,1.3939,1.4854,1.5057,1.5277,1.5772,1.5348,1.4956,1.4899,1.4326,1.3821,1.3418,1.3379,1.3066,1.2262,1.2125,1.1716,1.0917,1.082,1.0627,1.0241,1.0139,1.0241,1.0564,1.0664,1.0915,1.1348,1.1515,1.1615,1.1615,1.2153,1.3048,1.4141,1.4676,0.0,2.0665,2.423,0.0,2.6357,3.2159,3.4781,3.5469,3.5535,3.5511,3.519,3.3005,3.1152,2.8996,0.0,0.0,0.0,1.7357,0.0,0.0,0.0,0.0,0.0,0.0,0.0,0.0,0.0,1.9301,2.1149,0.0,2.6983,2.8352,3.1741,3.2694,3.2983,3.3119,3.4776,3.755,4.188,4.1399,4.0821,4.1395,4.0347,3.972,4.0022,4.0737,4.0861,3.996,4.1362,4.2923,4.453,4.4615,4.4886,4.5466,4.6346,4.709,4.7699,4.8578,4.9018,4.9018,4.9018,4.7998,4.6208,4.6208,4.5706,4.4812,4.4812,4.4924,4.5042,4.4887,4.4812,4.4699,4.3927,4.3488,4.329,4.329,4.329,4.329,1.3789,1.3789,1.3884,1.419,1.4455,1.4838,1.5416,1.5937,1.6216,1.6151,1.5967,1.5768,1.559,1.5542,1.5216,1.4425,1.4155,1.3701,1.2891,1.2722,1.2442,1.2019,1.184,1.1637,1.1394,1.0647,1.0349,1.0555,1.0243,1.024,1.0507,1.0677,1.0897,1.1173,1.1751,1.2772,1.4141,0.0,1.7251,2.1275,2.4504,0.0,2.9319,3.3615,3.5959,3.6896,3.6596,3.6477,3.6237,3.4562,3.2018,0.0,0.0,2.5674,2.3819,0.0,1.9678,1.9959,0.0,0.0,0.0,1.5784,0.0,0.0,0.0,0.0,2.0902,2.4978,2.5745,2.6493,2.9214,2.9595,2.9809,3.0724,3.3045,3.5217,3.658,3.8609,4.0123,4.0404,0.0,0.0,3.8998,3.9123,3.9484,4.0163,4.1753,4.3252,4.4525,4.4615,4.4925,4.5703,4.6413,4.7158,4.7872,4.8646,4.9018,4.9018,4.9018,4.7998,4.6208,4.6208,4.5416,4.4043,4.4043,4.4043,4.4043,4.4043,4.4043,4.4004,4.3488,4.329,4.329,4.329,4.329,4.329,1.4744,1.4698,1.4744,1.4858,1.5312,1.5747,1.5981,1.6811,1.7247,1.6872,1.7058,1.7125,1.6792,1.7451,0.0,0.0,0.0,1.5749,1.446,1.4254,1.3923,1.332,1.2923,1.2664,1.2579,1.1246,1.0512,1.0385,0.9897,0.9585,0.9502,0.9888,1.0281,1.0744,1.2102,0.0,0.0,0.0,0.0,2.1979,0.0,2.8367,3.1936,3.4695,3.6531,3.754,3.7037,3.6866,3.6776,3.6267,3.3185,2.9564,2.9714,2.7709,0.0,0.0,0.0,0.0,0.0,0.0,0.0,0.0,0.0,1.6667,0.0,0.0,0.0,0.0,0.0,0.0,0.0,0.0,0.0,0.0,0.0,0.0,0.0,3.4196,0.0,0.0,0.0,0.0,3.7597,3.7237,3.8185,4.1017,4.1923,4.2992,4.4519,4.4479,4.4823,4.5872,4.6481,4.7225,4.8075,4.8714,4.9018,4.9018,4.8829,4.7836,4.6173,4.5996,4.4974,4.329,4.329,4.329,4.329,4.329,4.329,4.329,4.329,4.329,4.329,4.329,4.329,4.3319,1.4903,1.4698,1.488,1.5398,1.5959,1.6644,1.7721,1.8387,1.9106,2.0046,2.0033,1.9922,1.9903,0.0,0.0,0.0,0.0,2.1138,1.7702,1.7897,1.6899,1.4115,1.3443,1.2946,1.2513,1.1876,1.1256,1.0666,1.0599,1.0302,0.9866,1.0368,1.0643,1.0869,1.494,0.0,0.0,0.0,2.164,0.0,2.6467,2.8643,0.0,3.5265,3.7362,3.838,3.8246,3.8182,3.7823,0.0,3.3903,3.2258,0.0,2.9086,2.9983,2.2203,0.0,0.0,0.0,0.0,0.0,0.0,1.6189,0.0,0.0,0.0,0.0,1.7774,0.0,0.0,0.0,0.0,0.0,0.0,0.0,0.0,2.2717,0.0,0.0,0.0,0.0,0.0,0.0,3.5122,3.7526,4.1832,3.9874,4.0287,4.4361,4.391,4.4519,4.6616,4.6752,4.7462,4.8849,4.8951,4.9018,4.8984,4.8161,4.7205,4.6173,4.5337,4.4358,4.329,4.329,4.329,4.329,4.329,4.329,4.329,4.329,4.329,4.329,4.329,4.329,4.3379,1.5844,1.5756,1.582,1.6086,1.6864,1.7622,1.8106,1.8832,1.9505,1.9997,2.0282,2.0514,2.0824,0.0,0.0,0.0,0.0,2.1792,1.9493,1.9656,1.8504,1.5543,1.5219,1.4748,1.3908,1.3011,1.2135,1.1224,1.0883,1.0432,0.9918,1.0457,1.0883,1.1399,1.5563,0.0,1.6644,0.0,2.2429,0.0,0.0,0.0,0.0,3.5892,3.7687,3.8488,3.8841,3.8721,3.8212,0.0,3.4801,0.0,0.0,0.0,0.0,0.0,0.0,0.0,0.0,0.0,0.0,0.0,0.0,0.0,1.6697,0.0,1.5305,0.0,0.0,0.0,0.0,0.0,0.0,0.0,1.9408,0.0,0.0,0.0,0.0,0.0,0.0,0.0,0.0,0.0,0.0,0.0,3.8424,3.9188,4.344,4.386,4.4793,4.6562,4.7124,4.7659,4.8193,4.8193,4.7901,4.7373,4.7002,4.6279,4.5342,4.4968,4.4243,4.329,4.329,4.329,4.329,4.329,4.329,4.3319,4.3708,4.3618,4.3349,4.3738,4.3898,4.3988,1.65,1.65,1.65,1.65,1.7428,1.8355,1.8807,1.9592,2.0173,2.0318,2.0952,2.1534,2.1922,2.3046,0.0,0.0,2.5281,2.4454,2.2163,2.197,2.0771,1.8139,1.7027,1.6421,1.6241,1.4563,1.3115,1.2052,1.146,1.0808,1.0131,1.0682,1.1274,1.2018,1.6045,1.8053,1.8581,0.0,2.3634,2.6542,2.7979,3.0732,3.4331,3.6744,3.8109,3.8751,3.923,3.911,3.8601,3.8063,3.5519,0.0,3.3992,0.0,0.0,0.0,0.0,0.0,2.2173,0.0,0.0,0.0,0.0,0.0,0.0,0.0,0.0,0.0,0.0,0.0,0.0,0.0,0.0,0.0,0.0,0.0,0.0,0.0,0.0,0.0,0.0,0.0,0.0,0.0,0.0,0.0,0.0,3.7703,4.2205,4.3516,4.4646,4.5832,4.6932,4.7428,4.7239,4.7205,4.6867,4.6208,4.5925,4.5452,4.4774,4.451,4.4004,4.329,4.329,4.329,4.329,4.329,4.3409,4.3618,4.4137,4.4137,4.3888,4.4407,4.4586,4.4676,1.65,1.65,1.65,1.65,1.7428,1.8731,2.0365,2.1091,2.1616,2.2167,2.3195,2.3898,2.3923,2.7293,2.9327,0.0,3.1671,3.1446,2.6606,2.5753,2.4449,2.2217,1.8506,1.7501,1.961,1.6493,1.4305,1.3148,1.2613,1.1761,1.0708,1.1299,1.1851,1.2563,1.6977,1.8958,1.9233,2.3045,2.6198,2.8803,3.1034,3.4088,3.7342,0.0,3.8827,3.9379,3.9373,0.0,0.0,3.7195,3.6028,0.0,0.0,0.0,0.0,0.0,0.0,0.0,0.0,0.0,0.0,2.0157,0.0,0.0,0.0,0.0,1.6651,0.0,0.0,0.0,0.0,0.0,0.0,0.0,0.0,0.0,0.0,0.0,0.0,0.0,0.0,0.0,0.0,0.0,0.0,0.0,0.0,0.0,4.0797,4.2505,4.358,4.4161,4.5734,4.6453,4.6244,4.6244,4.6208,4.6173,4.53,4.4849,4.4774,4.3771,4.3329,4.329,4.329,4.329,4.329,4.329,4.3678,4.4287,4.4317,4.4676,4.5244,4.5244,4.5274,4.5364,1.65,1.65,1.65,1.65,1.7149,1.8204,1.9862,2.0918,2.2221,2.423,2.5192,2.6373,2.8172,2.9227,3.0306,3.1562,3.2365,3.1461,2.8298,2.757,2.6113,2.3552,2.0388,1.9032,1.9786,1.7275,1.5046,1.3198,1.3023,1.2363,1.1299,1.1876,1.2413,1.3115,0.0,2.0011,0.0,0.0,0.0,0.0,0.0,3.4037,3.6699,0.0,3.789,3.8212,3.9074,3.9373,0.0,3.8661,3.7404,3.6058,3.5579,3.3902,3.2049,3.139,3.0731,2.9804,0.0,0.0,2.8068,2.343,0.0,0.0,0.0,0.0,0.0,0.0,0.0,0.0,0.0,0.0,0.0,0.0,0.0,0.0,0.0,0.0,0.0,0.0,0.0,0.0,0.0,0.0,0.0,0.0,0.0,0.0,0.0,4.1442,4.2821,4.3894,4.5469,4.5984,4.53,4.5264,4.493,4.4289,4.3966,4.381,4.381,4.3448,4.329,4.329,4.329,4.329,4.3319,4.3768,4.4107,4.4407,4.5304,4.5741,4.5963,4.5963,4.5963,4.6082,1.6525,1.65,1.65,1.65,1.7149,1.8279,2.0137,2.1016,2.2548,2.5544,2.6424,2.7832,3.0583,3.1286,3.219,3.3822,3.3972,3.2792,2.998,2.9654,2.8423,2.5862,2.3452,2.2347,0.0,1.9635,1.7099,1.5251,1.4093,1.3057,1.2162,1.2328,1.2806,0.0,0.0,1.971,2.3471,2.4399,2.7644,0.0,0.0,3.4292,0.0,0.0,3.6845,3.7173,0.0,3.9373,3.9373,3.9373,3.8422,3.7225,3.7644,3.5848,3.3633,3.3873,3.3036,3.1779,3.0642,3.124,0.0,2.6811,2.6333,0.0,2.1425,0.0,0.0,0.0,0.0,0.0,0.0,0.0,0.0,0.0,0.0,0.0,0.0,0.0,0.0,0.0,0.0,0.0,0.0,0.0,0.0,0.0,0.0,0.0,0.0,0.0,4.1921,4.291,4.4512,4.4982,4.4243,4.4243,4.3966,4.329,4.329,4.329,4.329,4.329,4.329,4.329,4.329,4.3439,4.3678,4.4137,4.4586,4.5125,4.595,4.6429,4.6681,4.6681,4.6681,4.6741,1.6672,1.6525,1.6575,1.6651,1.7576,1.9007,2.1117,2.1546,2.2803,2.6223,2.7153,2.8549,3.1361,3.3596,3.5056,3.5583,3.6609,3.5629,3.1838,3.2064,3.1386,0.0,2.7494,2.7128,2.8172,0.0,0.0,0.0,0.0,1.3828,1.3223,1.2689,1.3048,0.0,1.4676,0.0,2.3904,2.4431,2.8142,3.3687,3.3923,3.4986,3.6384,3.5908,3.5946,3.6532,3.8644,3.9373,3.9373,3.9373,3.899,3.8422,3.8392,3.7973,3.7345,3.6716,3.6537,3.6118,3.4173,3.2766,3.1451,3.0073,2.8783,0.0,0.0,0.0,2.2345,0.0,0.0,0.0,0.0,0.0,0.0,0.0,0.0,0.0,0.0,0.0,0.0,0.0,0.0,0.0,0.0,0.0,0.0,0.0,0.0,0.0,0.0,0.0,4.0773,4.1332,4.2904,4.3577,4.323,4.329,4.329,4.329,4.329,4.329,4.329,4.329,4.329,4.329,4.329,4.3678,4.4317,4.4347,4.5125,4.6279,4.6309,4.6741,4.7309,4.7309,4.7309,4.7309,1.72,1.7149,1.7551,1.8756,1.9183,1.9736,2.0742,2.192,2.4205,2.8398,2.9754,3.1712,3.5303,3.6584,3.7211,3.7362,3.7638,3.686,3.458,3.4179,0.0,3.2667,2.9829,2.8624,2.9352,2.4054,2.0715,1.961,0.0,0.0,1.3871,1.3283,0.0,0.0,0.0,0.0,2.2146,2.2272,2.596,3.1971,3.4695,3.5697,3.5751,0.0,3.7777,3.7143,3.8822,3.9373,3.9373,3.9373,3.932,3.908,3.8542,3.8272,3.8003,3.7375,3.7165,3.6956,3.5968,3.5818,3.522,3.2467,3.1509,3.0552,0.0,0.0,0.0,0.0,0.0,0.0,0.0,0.0,0.0,0.0,0.0,0.0,0.0,0.0,0.0,0.0,0.0,0.0,0.0,0.0,0.0,0.0,0.0,0.0,0.0,0.0,0.0,4.0576,4.201,4.2741,4.265,4.309,4.329,4.329,4.329,4.329,4.329,4.329,4.329,4.329,4.329,4.3678,4.4347,4.4855,4.5544,4.6339,4.686,4.716,4.7309,4.7309,4.7309,4.7309,1.7777,1.8129,1.8731,1.9635,2.1217,2.2447,2.2803,2.3,2.4876,2.9854,3.1009,3.2767,3.648,3.7764,3.8492,3.8718,3.8743,3.7939,3.6031,0.0,0.0,3.4324,3.2918,3.1989,3.1587,2.7344,0.0,2.1644,0.0,0.0,1.4425,0.0,0.0,0.0,0.0,1.7348,2.1725,2.4838,2.8159,3.1678,3.5497,3.704,0.0,3.8811,3.9275,3.9092,3.9652,3.9679,3.9373,3.9373,3.9373,3.9313,3.896,3.8841,3.8721,3.8033,3.7853,3.7764,3.7404,3.7165,3.6626,3.504,3.4442,3.3574,3.0911,3.0013,2.9349,0.0,2.7139,2.6105,0.0,0.0,0.0,0.0,0.0,0.0,0.0,0.0,0.0,0.0,0.0,0.0,0.0,0.0,0.0,0.0,0.0,0.0,0.0,0.0,0.0,3.8601,3.9984,4.1212,4.2381,4.2162,4.2453,4.329,4.329,4.329,4.329,4.329,4.329,4.3319,4.3589,4.4137,4.4796,4.5454,4.6142,4.68,4.716,4.7309,4.7309,4.7309,4.7309,4.7149,1.8631,1.9334,2.0062,2.0213,2.3276,2.5862,2.6289,2.5134,2.5979,3.106,3.1913,3.3262,3.6405,3.8114,3.917,3.9647,3.9697,3.8868,3.6983,3.814,3.7789,3.5378,3.5981,3.5726,3.4248,3.1311,2.7996,0.0,0.0,0.0,1.5085,0.0,0.0,0.0,0.0,0.0,0.0,2.8682,3.1613,3.2132,3.6162,3.8456,3.9469,3.9762,4.0576,4.1452,4.0756,4.0038,3.9373,3.9373,3.9373,3.9373,3.9373,3.9373,3.932,3.8691,3.8512,3.8512,3.8422,3.7644,3.6985,3.7434,3.7135,3.6118,3.3814,3.3185,3.2616,3.0681,2.9014,2.7896,0.0,0.0,0.0,0.0,0.0,0.0,0.0,0.0,0.0,0.0,0.0,0.0,0.0,0.0,0.0,0.0,0.0,0.0,0.0,0.0,0.0,3.6656,3.8063,3.9805,4.1871,0.0,4.1504,4.2901,4.317,4.329,4.329,4.329,4.329,4.3319,4.3977,4.4676,4.5334,4.6022,4.6711,4.7266,4.7106,4.7149,4.7266,4.6931,4.6931,4.6726,2.0289,2.0792,2.1468,2.2368,2.4632,2.7253,2.9955,3.0131,3.0783,3.3144,3.4695,3.6279,3.8265,3.9094,3.9597,3.9697,3.9697,3.9521,3.9145,0.0,0.0,3.8165,3.7059,3.6279,3.5977,3.1888,2.8549,0.0,0.0,1.8581,1.6195,0.0,0.0,0.0,0.0,0.0,2.2405,2.6211,0.0,3.2187,3.6655,3.8835,3.9612,4.1795,4.2462,4.2141,4.1482,4.0427,3.9373,3.9373,3.9373,3.9373,3.9373,3.9373,3.9409,3.926,3.923,3.911,3.8542,3.8631,3.8781,3.8332,3.8153,3.7943,3.7464,3.6956,3.6417,3.6037,3.5314,3.4114,3.1956,0.0,0.0,0.0,0.0,0.0,0.0,0.0,0.0,0.0,0.0,0.0,0.0,0.0,0.0,0.0,0.0,0.0,0.0,0.0,0.0,0.0,3.9888,0.0,0.0,0.0,4.2154,4.0935,4.2512,4.329,4.329,4.329,4.329,4.3319,4.3977,4.4676,4.5334,4.6022,4.6711,4.7222,4.6166,4.6344,4.7062,4.4932,4.484,4.5689,2.1518,2.2196,0.0,2.4983,2.7344,2.9955,3.2692,3.4349,3.5253,3.5177,3.5927,3.6832,3.7864,3.9019,3.9697,3.9697,3.9697,3.9697,3.9697,3.9446,3.9295,3.9295,3.829,3.7436,3.6857,3.4148,3.0708,2.6499,0.0,2.0362,1.6475,1.5693,0.0,1.5793,0.0,2.0213,0.0,0.0,0.0,3.3223,3.7517,3.9737,4.0636,4.2542,4.294,4.2321,4.1662,4.0756,3.9888,3.9529,3.9373,3.9373,3.9373,3.9373,3.9373,3.9373,3.9373,3.9313,3.902,3.8901,3.8811,3.8482,3.8661,3.8931,3.8931,3.8931,3.8871,3.8512,3.7644,3.5938,3.2587,2.8577,0.0,0.0,0.0,0.0,0.0,0.0,0.0,0.0,0.0,0.0,0.0,0.0,0.0,0.0,0.0,0.0,0.0,0.0,0.0,0.0,0.0,0.0,0.0,0.0,0.0,4.1923,4.2841,4.329,4.329,4.329,4.3469,4.3868,4.4526,4.5214,4.5873,4.6561,4.6634,4.6299,4.6344,4.5958,4.5252,4.4674,4.4442,4.4396,2.3452,2.4079,2.5335,2.7896,3.0231,3.2491,3.4726,3.7236,3.8441,3.7109,3.7033,3.7285,3.7663,3.8894,3.9697,3.9697,3.9697,3.9697,3.9697,3.9597,3.9572,3.9697,3.9044,3.8266,3.7387,3.6282,3.3018,0.0,0.0,0.0,1.7177,1.6547,0.0,0.0,0.0,0.0,0.0,0.0,3.266,3.502,3.8671,4.071,4.1782,4.306,4.312,4.25,4.1722,4.1055,4.0487,3.9679,3.9373,3.9373,3.9373,3.9373,3.9373,3.9373,3.9373,3.9373,3.9373,3.902,3.8631,3.8781,3.923,3.9679,3.9798,4.0247,4.0457,3.9948,3.8781,3.6626,3.2647,3.0672,0.0,0.0,0.0,0.0,0.0,0.0,0.0,0.0,0.0,0.0,0.0,0.0,0.0,0.0,0.0,0.0,0.0,0.0,0.0,0.0,0.0,3.8811,4.0127,0.0,4.1594,4.2662,4.308,4.329,4.329,4.329,4.3648,4.4347,4.5005,4.5753,4.6561,4.71,4.655,4.5434,4.6211,4.5252,4.3598,4.4303,4.3975,4.3122,2.7168,2.6841,2.7429,3.111,3.239,3.3715,3.5927,3.7762,3.8869,3.8718,3.9069,3.9396,3.9446,3.9597,3.9697,3.9697,3.9697,3.9697,3.9697,3.922,3.917,3.9672,3.8668,3.804,3.7939,3.686,3.457,0.0,0.0,2.401,0.0,1.8455,1.9032,0.0,0.0,0.0,0.0,3.0758,3.3811,3.7896,3.9901,4.1339,4.244,4.3718,4.3768,4.309,4.1833,4.1354,4.1085,3.9828,3.9373,3.9373,3.9373,3.9373,3.9373,3.9373,3.9373,3.9373,3.9373,3.9343,3.9469,4.0068,4.0247,4.0457,4.1055,4.1235,4.1265,4.1205,4.0157,3.8003,3.4053,3.3155,3.2228,0.0,0.0,0.0,0.0,0.0,0.0,0.0,0.0,0.0,0.0,0.0,0.0,0.0,0.0,0.0,0.0,0.0,0.0,3.4414,0.0,3.7045,3.6058,4.0689,4.2252,4.0696,4.2453,4.329,4.329,4.329,4.3648,4.4347,4.5005,4.6022,4.7219,4.7279,4.655,4.5298,4.4256,4.3693,4.3361,4.235,4.1887,4.1936,3.0407,3.0507,3.1377,3.4223,3.4901,3.5852,3.8015,3.8919,3.9371,3.9371,3.9546,3.9697,3.9697,3.9697,3.9697,3.9697,3.9697,3.9697,3.9697,3.9496,3.9471,3.9697,3.927,3.8868,3.8542,3.7437,3.5449,0.0,0.0,0.0,2.2297,2.149,2.2347,2.4563,0.0,2.8097,3.0497,3.404,3.6497,3.827,4.1267,4.2428,4.259,4.4257,4.4257,4.317,4.2282,4.1752,4.1175,3.9858,3.9373,3.9373,3.9373,3.9373,3.9373,3.9373,3.9373,3.9499,3.9888,3.9738,3.9589,4.0247,4.0696,4.1055,4.1324,4.1983,4.2432,4.2081,4.0606,3.8931,3.7345,3.5429,3.4113,3.4262,0.0,0.0,0.0,0.0,0.0,0.0,0.0,0.0,0.0,0.0,0.0,0.0,0.0,0.0,0.0,0.0,0.0,3.2048,0.0,3.896,3.7255,4.1257,4.2901,4.2124,4.2931,4.329,4.329,4.329,4.3858,4.4975,4.6022,4.6383,4.6166,4.6166,4.4978,4.3122,4.3409,4.2544,4.1269,4.1518,4.1119,4.0567,3.3319,3.337,3.4173,3.691,3.6935,3.736,3.9371,3.9697,3.9697,3.9697,3.9697,3.9697,3.9697,3.9697,3.9697,3.9697,3.9697,3.9697,3.9697,3.9697,3.9697,3.9697,3.9697,0.0,3.8919,3.809,3.6531,3.4092,3.0698,0.0,2.5435,2.4324,2.531,2.8008,2.9553,3.1035,3.2575,3.6611,3.862,3.9363,4.2581,4.3516,4.312,4.4915,4.4766,4.3469,4.271,4.2111,4.1482,3.9918,3.9373,3.9373,3.9373,3.9373,3.9373,3.9373,3.9373,3.9529,3.9978,3.9768,3.9619,4.0487,4.1025,4.1474,4.1863,4.2671,4.315,4.253,4.1265,4.0217,4.0038,3.8093,3.6716,3.7315,0.0,0.0,0.0,0.0,0.0,0.0,0.0,0.0,0.0,0.0,0.0,0.0,0.0,0.0,0.0,0.0,0.0,0.0,0.0,0.0,3.8392,4.1683,4.329,4.329,4.329,4.329,4.329,4.3708,4.4526,4.5622,4.6426,4.6211,4.5343,4.5024,4.3551,4.169,4.2593,4.1591,3.98,4.0693,4.0465,3.9697,3.5931,3.5027,3.5102,3.8969,3.8291,3.7739,3.9446,3.9697,3.9697,3.9697,3.9697,3.9697,3.9697,3.9697,3.9697,3.9697,3.9697,3.9697,3.9697,3.9697,3.9697,0.0,0.0,3.9446,3.8919,3.8919,3.8064,3.6355,0.0,0.0,2.8787,2.6615,2.762,3.1336,3.1361,3.3194,3.6424,3.7743,3.9609,4.1844,4.3824,4.4453,4.4436,4.5741,4.5484,4.4137,4.286,4.2381,4.2081,4.0098,3.9373,3.9373,3.9373,3.9373,3.9373,3.9373,3.9373,3.9373,3.9403,3.9439,3.9738,4.1025,4.1384,4.1713,4.2961,4.329,4.315,4.253,4.2381,4.2171,4.1512,4.1324,4.0457,3.7823,0.0,0.0,0.0,0.0,0.0,0.0,3.1598,3.1149,3.504,0.0,0.0,0.0,0.0,0.0,0.0,0.0,0.0,3.537,3.7375,0.0,3.8392,4.1683,4.329,4.329,4.329,4.329,4.3349,4.4676,4.5663,4.6267,4.5696,4.5389,4.5298,4.4022,4.2738,4.1591,4.1591,4.0844,3.9697,3.9749,3.9697,3.9697,3.8517,3.8216,3.8241,3.9471,3.9245,3.9069,3.9622,3.9697,3.9697,3.9697,3.9697,3.9697,3.9697,3.9697,3.9697,3.9697,3.9697,3.9697,0.0,3.9697,3.9697,3.9697,3.9697,3.9446,3.8919,3.8919,3.8466,3.7487,0.0,0.0,3.2825,3.1763,3.2717,3.5328,3.4951,3.608,3.837,4.0005,4.1591,4.3209,4.5522,4.5845,4.5125,4.6471,4.5873,4.4197,4.3359,4.25,4.1572,4.0457,4.0098,4.0098,4.0098,3.9768,3.9373,3.9373,3.9373,3.9619,4.0516,4.0427,4.0397,4.1752,4.2081,4.2201,4.2581,4.3,4.323,4.306,4.2671,4.2321,4.2141,4.1722,4.1115,4.0247,4.0666,0.0,3.905,0.0,0.0,0.0,3.1828,3.145,0.0,2.958,0.0,0.0,0.0,0.0,0.0,0.0,0.0,0.0,3.8212,0.0,3.8392,4.1683,4.329,4.329,4.329,4.3529,4.3977,4.4915,4.5663,4.6267,4.5651,4.4932,4.4022,4.2738,4.1468,4.0313,4.0313,4.0083,3.9697,3.9697,3.9697,3.9697,3.9697,3.9697,3.9697,3.9697,3.9697,3.9697,3.9697,3.9697,3.9697,3.9697,3.9697,3.9697,3.9697,3.9697,3.9697,3.9697,3.9697,3.9697,3.9697,3.9697,3.9697,3.9697,3.9697,3.9446,3.8919,3.9069,0.0,3.7688,3.6332,3.5655,3.5629,3.5303,3.5981,3.7462,3.6757,3.7384,3.9142,4.0713,4.2279,4.3775,4.6004,4.6292,4.5454,4.68,4.6202,4.4586,4.3958,4.303,4.1953,4.0786,4.0247,4.0038,4.0038,3.9738,3.9373,3.9373,3.9768,4.0277,4.0846,4.0876,4.1025,4.2141,4.241,4.247,4.2671,4.303,4.329,4.329,4.3,4.2731,4.2731,4.2402,4.2102,4.2102,4.2102,4.1624,4.0217,0.0,0.0,0.0,0.0,0.0,0.0,3.2367,3.2213,0.0,0.0,0.0,0.0,0.0,0.0,3.522,3.9895,0.0,3.9925,4.2162,4.329,4.329,4.329,4.3768,4.4665,4.4608,4.5119,4.5873,4.4578,4.3504,4.2689,4.1419,4.0415,3.9697,3.9697,3.9697,3.9697,3.9697,3.9697,3.9697,3.9697,3.9697,3.9697,3.9697,3.9697,3.9697,3.9697,3.9697,3.9672,3.9647,3.9672,3.9672,3.9597,3.9622,3.9647,3.9647,0.0,0.0,3.9697,3.9697,3.9697,3.9697,3.9697,3.9421,3.8818,3.9346,3.8843,3.7236,3.7312,3.7337,3.7312,3.7337,3.7638,3.8065,3.696,3.7459,3.912,4.0291,4.1854,4.3667,4.5507,4.5903,4.5484,4.6711,4.6381,4.5214,4.4496,4.3738,4.2871,4.1085,4.0038,3.9463,3.9463,3.9523,3.9589,3.9469,4.0307,4.1175,4.0636,4.0935,4.1662,4.2321,4.247,4.262,4.314,4.329,4.329,4.329,4.329,4.329,4.329,4.329,4.329,4.329,4.317,4.2213,3.9768,3.9254,3.8302,0.0,0.0,0.0,0.0,3.6956,3.7614,0.0,0.0,0.0,0.0,0.0,3.6148,4.1235,4.2111,4.244,4.241,4.3,4.329,4.329,4.3349,4.4007,4.5108,4.3978,4.4119,4.5115,4.2689,4.1591,4.1518,4.0211,3.9697,3.9697,3.9697,3.9697,3.9697,3.9697,3.9697,3.9697,3.9697,3.9697,3.9697,3.9697,3.9697,3.9697,3.9697,3.9697,3.9546,3.912,3.9421,3.9371,3.8492,3.8793,3.9069,3.9069,3.9446,3.9697,3.9697,3.9697,3.9697,3.9697,3.9697,3.922,3.8241,3.8768,3.8642,3.7814,3.8668,3.8894,3.8542,3.8894,3.917,3.9245,3.8115,3.863,4.0376,4.0677,4.1875,4.3684,4.5027,4.5753,4.6052,4.5843,4.5574,4.5155,4.3947,4.2821,4.1773,4.1294,4.0696,4.0157,4.0157,4.0846,4.1422,3.9858,4.0008,4.0696,4.1055,4.1662,4.2321,4.294,4.312,4.315,4.326,4.329,4.329,4.329,4.329,4.329,4.329,4.329,4.329,4.329,4.2034,4.0696,3.9589,3.8123,3.6776,0.0,3.537,3.6028,3.7973,3.8033,3.8212,0.0,0.0,0.0,0.0,3.8212,3.8512,4.1294,4.2491,4.288,4.241,4.3,4.329,4.329,4.3838,4.3974,4.3863,4.4094,4.41,4.3882,4.2252,4.1591,4.1518,4.0211,3.9697,3.9697,3.9697,3.9697,3.9697,3.9697,3.9697,3.9697,3.9697,3.9697,3.9622,3.9371,3.932,3.922,3.8969,3.8919,3.8818,3.8517,3.8743,3.8693,3.8065,3.8291,3.8467,3.8467,3.8994,3.932,3.932,3.932,3.9195,3.8944,3.8919,3.8642,3.8015,3.8316,3.8191,3.7638,3.8768,3.9019,3.8492,3.9044,3.9601,4.008,3.8925,3.9416,4.112,4.1163,4.2066,4.3618,4.446,4.5065,4.5394,4.5334,4.5095,4.4766,4.4047,4.294,4.1811,4.1512,4.0756,3.9948,3.9948,4.0427,4.0816,3.9738,4.0307,4.1362,4.1354,4.1901,4.256,4.314,4.329,4.329,4.329,4.329,4.329,4.329,4.329,4.329,4.329,4.329,4.329,4.329,4.1683,4.0277,3.9918,3.8153,3.7105,3.7674,3.7734,3.8392,4.0074,4.0254,4.0254,4.0254,4.0254,0.0,4.1137,4.0846,4.1145,4.2252,4.2671,4.3,4.3269,4.3898,4.4377,4.4665,4.4736,4.4588,4.4307,4.3783,4.3204,4.2544,4.1269,4.0743,4.0693,3.9981,3.9697,3.9697,3.9697,3.9697,3.9697,3.9697,3.9697,3.9697,3.9546,3.9572,3.9421,3.8994,3.8919,3.8668,3.809,3.8015,3.7965,3.7889,3.7965,3.7939,3.7789,3.7839,3.7889,3.7889,3.8341,3.8693,3.8793,3.8869,3.8617,3.804,3.8015,3.8015,3.8015,3.8015,3.7739,3.7186,3.8366,3.8567,3.8015,3.8693,3.9622,4.0548,3.9491,3.9926,4.1387,4.1568,4.2192,4.3185,4.3856,4.4227,4.4377,4.4825,4.4706,4.4317,4.4197,4.3389,4.2291,4.1632,4.0576,3.9523,3.9403,3.9463,3.9559,3.9559,4.0756,4.1991,4.1422,4.1811,4.256,4.314,4.329,4.329,4.329,4.329,4.329,4.329,4.329,4.329,4.329,4.329,4.32,4.2901,4.1235,3.9948,3.9948,3.8482,3.8153,4.0157,4.0666,4.1294,4.244,4.256,4.256,4.256,4.256,4.2761,4.326,4.329,4.3349,4.3439,4.2851,4.315,4.4436,4.5005,4.5633,4.6279,4.5645,4.5184,4.4898,4.3157,4.1989,4.1269,4.016,3.9697,3.9697,3.9697,3.9697,3.9697,3.9697,3.9697,3.9697,3.9697,3.9697,3.9697,3.8894,3.8994,3.902,3.8894,3.8919,3.8668,3.809,3.8015,3.7839,3.7362,3.7713,3.7638,3.6757,3.7036,3.7312,3.7312,3.7387,3.7638,3.8115,3.8592,3.8617,3.804,3.8015,3.8015,3.8015,3.8015,3.7739,3.7186,3.8366,3.8567,3.804,3.9069,3.993,4.0574,3.9938,4.0087,4.0852,4.1369,4.1702,4.1959,4.3038,4.3768,4.4257,4.3768,4.3888,4.4257,4.3648,4.3,4.2291,4.1632,4.0876,4.0157,3.9589,3.9798,4.0247,4.0247,4.0457,4.0696,4.0576,4.1482,4.256,4.314,4.329,4.329,4.329,4.329,4.329,4.329,4.329,4.329,4.329,4.329,4.2751,4.1115,3.917,3.7883,3.7883,3.7614,3.8153,4.0157,4.1863,4.2931,4.311,4.314,4.314,4.314,4.314,4.32,4.329,4.329,4.3559,4.4137,4.3499,4.3808,4.5125,4.5244,4.5633,4.6279,4.5683,4.4538,4.2944,4.2075,4.1091,3.9981,3.98,3.9697,3.9697,3.9697,3.9697,3.9697,3.9697,3.9697,3.9697,3.9697,3.9697,3.9697,3.8341,3.8417,3.8316,3.8015,3.7965,3.7764,3.7211,3.7111,3.7036,3.6832,3.696,3.6935,3.6455,3.6631,3.6782,3.6782,3.701,3.7161,3.7136,3.7638,3.7713,3.7136,3.7111,3.7111,3.7111,3.7688,3.7588,3.6782,3.8215,3.8417,3.7588,3.9019,3.9675,3.9702,4.0435,4.0885,4.1241,4.2146,4.2508,4.2548,4.3061,4.3469,4.3708,4.3409,4.3469,4.3708,4.3409,4.291,4.2291,4.1632,4.0935,4.0277,3.9619,3.9619,3.9858,3.9858,4.0127,4.0487,4.0816,4.1422,4.2073,4.305,4.329,4.329,4.329,4.329,4.329,4.329,4.329,4.329,4.329,4.329,4.2662,4.0726,3.9619,3.902,3.902,3.902,3.9768,4.1743,4.2751,4.329,4.329,4.329,4.329,4.329,4.3618,4.3828,4.3828,4.4197,4.4526,4.4825,4.4874,4.5203,4.5843,4.5502,4.5845,4.6796,4.5149,4.3887,4.2937,4.1997,4.0895,3.9697,3.9697,3.9697,3.9697,3.9697,3.9697,3.9697,3.9697,3.9697,3.9697,3.9697,3.9697,3.9697,3.7789,3.7814,3.7688,3.7262,3.7186,3.6985,3.648,3.6405,3.6405,3.6405,3.6405,3.6405,3.6405,3.6405,3.6405,3.6405,3.6807,3.6857,3.643,3.6807,3.6857,3.643,3.6531,3.6606,3.6606,3.7387,3.7462,3.6782,3.804,3.8216,3.7412,3.8969,3.9394,3.9005,4.0694,4.139,4.1295,4.267,4.317,4.2941,4.321,4.329,4.329,4.329,4.329,4.329,4.329,4.3,4.253,4.1871,4.1175,4.0516,3.9858,3.9559,3.9373,3.9373,3.9768,4.0307,4.0965,4.1145,4.1474,4.2791,4.312,4.315,4.326,4.329,4.329,4.329,4.329,4.329,4.329,4.329,4.2662,4.0726,4.0397,4.0397,4.0397,4.0397,4.1115,4.305,4.329,4.329,4.329,4.3439,4.3529,4.3529,4.4167,4.4556,4.4556,4.5035,4.5364,4.5514,4.5903,4.6232,4.6561,4.5915,4.6062,4.7012,4.4642,4.3301,4.2935,4.1712,4.0592,3.9697,3.9697,3.9697,3.9697,3.9697,3.9697,3.9697,3.9697,3.9697,3.9697,3.9697,3.9697,3.9697,3.7136,3.7236,3.7236,3.7186,3.7186,3.6985,3.648,3.6405,3.6405,3.6405,3.6405,3.6405,3.6405,3.6405,3.6405,3.6405,3.6455,3.6455,3.6405,3.6455,3.6455,3.6405,3.6908,3.7136,3.7136,3.7211,3.7462,3.7889,3.8015,3.8015,3.7965,3.9145,3.9394,3.9005,4.0694,4.0945,4.0145,4.2386,4.267,4.1794,4.286,4.329,4.329,4.329,4.329,4.329,4.329,4.326,4.311,4.256,4.1901,4.1205,4.0546,3.9918,3.9373,3.9373,3.9403,3.9649,4.0277,4.0457,4.0786,4.2141,4.247,4.262,4.314,4.329,4.329,4.329,4.329,4.329,4.329,4.329,4.2662,4.0726,4.0397,4.0397,4.0397,4.0397,4.1115,4.305,4.329,4.329,4.329,4.3858,4.4257,4.4257,4.4855,4.5214,4.5214,4.5274,4.5574,4.619,4.5663,4.5963,4.7219,4.6496,4.6264,4.6425,4.4397,4.2825,4.1673,4.0389,3.98,3.9697,3.9697,3.9697,3.9697,3.9697,3.9697,3.9697,3.9697,3.9697,3.9697,3.9697,3.9697,3.9697,3.6681,3.6983,3.7086,3.6782,3.7008,3.6985,3.648,3.6405,3.6405,3.6405,3.6405,3.6405,3.6405,3.6405,3.6405,3.6405,3.6405,3.6405,3.6405,3.6405,3.6405,3.6405,3.6606,3.6732,3.6732,3.701,3.7287,3.7487,3.8191,3.8191,3.7513,3.8642,3.8932,3.8477,3.9447,3.9898,3.9972,4.1574,4.1988,4.1711,4.286,4.329,4.329,4.329,4.329,4.329,4.329,4.329,4.32,4.262,4.2231,4.1841,4.0726,4.0217,3.9948,3.9493,3.9373,3.9469,3.9738,4.0098,4.0726,4.2081,4.241,4.256,4.314,4.329,4.329,4.329,4.329,4.329,4.329,4.329,4.2662,4.0726,4.1414,4.1803,4.0576,4.1444,4.2453,4.32,4.3648,4.3917,4.3917,4.4526,4.4915,4.4915,4.5544,4.5933,4.5933,4.5577,4.5478,4.5741,4.4739,4.4936,4.6586,4.4757,4.4043,4.4375,4.2499,4.1336,4.0875,4.0081,3.9697,3.9697,3.9697,3.9697,3.9697,3.9697,3.9697,3.9697,3.9697,3.9697,3.9697,3.9697,3.9697,3.9697,3.6405,3.6707,3.6857,3.648,3.6732,3.6832,3.6455,3.6405,3.6405,3.6405,3.6405,3.6405,3.6405,3.6405,3.6405,3.6405,3.6405,3.6405,3.6405,3.6405,3.6405,3.6405,3.6405,3.648,3.6656,3.6985,3.7362,3.7713,3.8316,3.8216,3.7462,3.8241,3.8252,3.7612,3.8483,3.8891,3.8917,4.0802,4.1378,4.1211,4.2699,4.329,4.329,4.329,4.329,4.329,4.329,4.329,4.323,4.2821,4.256,4.2231,4.1332,4.0726,4.0277,3.9619,3.9373,3.9373,3.9373,3.9738,4.0397,4.1752,4.2081,4.2321,4.308,4.329,4.329,4.329,4.329,4.329,4.329,4.329,4.2841,4.1534,4.2423,4.2811,4.1504,4.2632,4.3589,4.3589,4.4227,4.4616,4.4616,4.5214,4.5603,4.5603,4.6262,4.6621,4.6621,4.5814,4.5389,4.5389,4.3787,4.3588,4.4965,4.3287,4.2517,4.2677,4.1205,4.0425,4.0249,3.9873,3.9697,3.9697,3.9697,3.9697,3.9697,3.9697,3.9697,3.9697,3.9697,3.9697,3.9697,3.9697,3.9697,3.9697,3.6405,3.6405,3.6405,3.6405,3.6405,3.6405,3.6405,3.6405,3.6405,3.6405,3.6405,3.6405,3.6405,3.6405,3.6405,3.6405,3.6405,3.6405,3.6405,3.6405,3.6405,3.6405,3.6405,3.6656,3.7186,3.7186,3.7739,3.8919,3.8291,3.8015,3.8015,3.799,3.7412,3.6477,3.8137,3.7945,3.6615,4.0118,4.0916,4.013,4.2386,4.329,4.329,4.329,4.329,4.329,4.329,4.329,4.329,4.329,4.291,4.241,4.241,4.1482,4.0277,3.9619,3.9373,3.9373,3.9373,3.9373,3.9738,4.1055,4.1422,4.1713,4.2991,4.329,4.329,4.329,4.329,4.329,4.329,4.329,4.329,4.329,4.329,4.329,4.329,4.3898,4.4317,4.4317,4.4915,4.5304,4.5304,4.5933,4.6279,4.6279,4.692,4.7309,4.7309,4.6077,4.5389,4.5343,4.293,4.1831,4.2361,4.2361,4.2121,4.1568,4.0848,4.0224,3.9697,3.9697,3.9697,3.9697,3.9697,3.9697,3.9697,3.9697,3.9697,3.9697,3.9697,3.9697,3.9697,3.9697,3.9697,3.9697,3.6405,3.6732,3.6857,3.648,3.6732,3.6857,3.6455,3.6405,3.6405,3.6405,3.6405,3.6405,3.6405,3.6405,3.6405,3.6405,3.6405,3.6405,3.6405,3.6405,3.6405,3.6405,3.6405,3.6656,3.7186,3.7186,3.7739,3.8919,3.8291,3.8015,3.799,3.7613,3.7489,3.7586,3.7283,3.7304,3.7723,3.9623,4.0189,4.013,4.2386,4.329,4.329,4.329,4.329,4.329,4.329,4.329,4.329,4.329,4.317,4.297,4.253,4.1482,4.0367,4.0157,3.9768,3.9373,3.9373,3.9373,3.9619,4.0487,4.1025,4.1594,4.2462,4.3,4.329,4.329,4.329,4.329,4.329,4.329,4.329,4.329,4.329,4.3439,4.3958,4.4197,4.4496,4.4945,4.5603,4.6022,4.6022,4.6621,4.701,4.701,4.7189,4.6931,4.6003,4.4794,4.3646,4.2738,4.1119,4.0338,4.0517,4.0848,4.0975,4.0797,4.0635,4.0224,3.9697,3.9697,3.9697,3.9697,3.9697,3.9697,3.9697,3.9697,3.9697,3.9697,3.9697,3.9697,3.9697,3.9697,3.9697,3.9697,3.6405,3.6681,3.6807,3.6455,3.6681,3.6782,3.6455,3.6405,3.6405,3.6405,3.6405,3.6405,3.6405,3.6405,3.6405,3.6405,3.6405,3.6405,3.6405,3.6405,3.6405,3.6405,3.6405,3.6782,3.7487,3.7513,3.8065,3.9195,3.8391,3.8015,3.799,3.7211,3.7086,3.7402,3.6709,3.6803,3.754,3.9183,3.9913,4.013,4.2386,4.329,4.329,4.329,4.329,4.329,4.329,4.329,4.329,4.329,4.329,4.317,4.262,4.1841,4.1115,4.0876,4.0337,3.9798,3.9798,3.9619,3.9529,3.9918,4.0696,4.1602,4.2261,4.288,4.329,4.329,4.329,4.329,4.329,4.329,4.3379,4.3648,4.3678,4.3958,4.4616,4.4945,4.5244,4.5663,4.6292,4.6711,4.6711,4.707,4.7062,4.6594,4.655,4.5958,4.472,4.3456,4.2398,4.1591,4.0364,3.9697,3.9697,4.0023,4.0199,4.0199,4.0199,4.0023,3.9697,3.9697,3.9697,3.9697,3.9697,3.9697,3.9697,3.9697,3.9697,3.9697,3.9697,3.9697,3.9697,3.9697,3.9697,3.9697,3.6405,3.6405,3.6405,3.6405,3.6405,3.6405,3.6405,3.6405,3.6405,3.6405,3.6405,3.6405,3.6405,3.6405,3.6405,3.6405,3.6405,3.6405,3.6405,3.6405,3.6405,3.6405,3.6405,3.6908,3.7914,3.7939,3.8517,3.9697,3.8517,3.7965,3.799,3.6885,3.6405,3.6405,3.6405,3.6405,3.6546,3.881,3.9798,4.0059,4.2263,4.321,4.329,4.329,4.329,4.329,4.329,4.329,4.329,4.329,4.329,4.32,4.2641,4.244,4.2291,4.1692,4.092,4.0338,4.0338,3.9891,3.9444,3.9444,4.0502,4.1722,4.2201,4.2821,4.329,4.329,4.3349,4.3379,4.3379,4.3439,4.3648,4.4124,4.4325,4.4575,4.515,4.5848,4.6309,4.6369,4.6834,4.7106,4.7106,4.7019,4.6506,4.5298,4.5207,4.4674,4.3409,4.223,4.1541,4.1419,4.0313,3.9697,3.9697,3.9697,3.9697,3.9697,3.9697,3.9697,3.9697,3.9697,3.9697,3.9697,3.9697,3.9697,3.9697,3.9697,3.9697,3.9697,3.9697,3.9697,3.9697,3.9697,3.9697,3.9697,3.6405,3.6405,3.6405,3.6405,3.6405,3.6405,3.6405,3.6405,3.6405,3.6405,3.6405,3.6405,3.6405,3.6405,3.6405,3.6405,3.6405,3.6405,3.6405,3.6405,3.6405,3.6405,3.6405,3.6732,3.7337,3.7362,3.814,3.9697,3.814,3.7588,3.799,3.6885,3.6405,3.6405,3.6405,3.6405,3.6499,3.7906,3.905,4.0015,4.142,4.2508,4.329,4.329,4.329,4.329,4.329,4.329,4.329,4.329,4.329,4.326,4.314,4.2761,4.2381,4.2231,4.1047,3.9749,3.9749,3.9663,3.9547,3.9547,4.1234,4.2671,4.1803,4.2491,4.329,4.329,4.3708,4.4067,4.4067,4.4526,4.4596,4.373,4.4453,4.4971,4.4662,4.5575,4.6459,4.704,4.63,4.5824,4.5824,4.4932,4.421,4.3929,4.3929,4.3361,4.2084,4.1739,4.1119,4.0134,3.9826,3.9697,3.9697,3.9697,3.9697,3.9697,3.9697,3.9697,3.9697,3.9697,3.9697,3.9697,3.9697,3.9697,3.9697,3.9697,3.9697,3.9697,3.9697,3.9697,3.9697,3.9697,3.9697,3.9697,3.6857,3.7008,3.7136,3.7136,3.7136,3.7061,3.6832,3.6807,3.6707,3.643,3.6405,3.6405,3.6405,3.6405,3.6405,3.6405,3.6405,3.6405,3.6405,3.6405,3.6405,3.6405,3.6656,3.6885,3.7186,3.7713,3.8417,3.9295,3.814,3.7739,3.799,3.6885,3.6405,3.6405,3.6405,3.6405,3.6452,3.7632,3.8783,3.9929,4.0532,4.1462,4.2508,4.2508,4.2508,4.2508,4.2508,4.2508,4.2548,4.313,4.329,4.329,4.329,4.309,4.2742,4.2168,4.1069,3.9946,3.9389,3.9027,3.8802,3.8802,4.0187,4.1538,4.1456,4.2397,4.3211,4.2565,4.2696,4.2969,4.2969,4.3257,4.34,4.302,4.3523,4.3973,4.3969,4.4538,4.5088,4.545,4.4886,4.4489,4.4489,4.3882,4.3266,4.2641,4.2593,4.2035,4.0743,4.0693,4.0415,3.9749,3.9948,4.0099,4.0099,4.0099,4.0099,4.0074,3.9823,3.9697,3.9697,3.9697,3.9697,3.9697,3.9697,3.9697,3.9697,3.9697,3.9697,3.9697,3.9697,3.9697,3.9697,3.9697,3.9697,3.9697,3.7588,3.7839,3.8115,3.8015,3.8015,3.7839,3.7387,3.7337,3.7136,3.6631,3.6556,3.6505,3.6405,3.6405,3.6405,3.6405,3.6405,3.6405,3.6405,3.6405,3.6405,3.6405,3.6885,3.7186,3.7186,3.8341,3.8919,3.8919,3.8291,3.8015,3.799,3.6885,3.6405,3.6405,3.6405,3.6405,3.6452,3.7402,3.8514,3.9579,3.9579,4.0275,4.1337,4.1545,4.1462,4.1337,4.1545,4.1587,4.1753,4.29,4.317,4.3021,4.3021,4.286,4.2548,4.1794,4.0923,3.9997,3.9282,3.8541,3.7973,3.8054,3.9031,4.0233,4.1083,4.2208,4.2773,4.1744,4.1599,4.1682,4.1682,4.1764,4.1966,4.2301,4.2524,4.2783,4.3136,4.3361,4.3504,4.3504,4.3313,4.3074,4.2882,4.2834,4.2398,4.1369,4.1269,4.0794,3.9749,3.9697,3.9697,3.9697,4.0149,4.0375,4.0375,4.0375,4.0375,4.0375,3.9923,3.9697,3.9697,3.9697,3.9697,3.9697,3.9697,3.9697,3.9697,3.9697,3.9697,3.9697,3.9697,3.9697,3.9697,3.9697,3.9697,3.9697,3.8793,3.8743,3.8592,3.809,3.8015,3.799,3.7914,3.7889,3.7688,3.7136,3.7061,3.6933,3.6455,3.6405,3.6405,3.6405,3.6405,3.6405,3.6405,3.6405,3.6405,3.6405,3.6885,3.7186,3.7186,3.8341,3.8919,3.8919,3.8291,3.8015,3.799,3.6885,3.6405,3.6405,3.6405,3.6405,3.6405,3.6546,3.7289,3.8334,3.8334,3.905,4.0232,4.1211,4.1,4.0275,4.1253,4.1587,4.1753,4.29,4.2629,4.1864,4.1864,4.1127,4.0532,4.1337,4.0105,3.8648,3.9486,3.8949,3.8156,3.8641,4.0123,4.1325,4.0816,4.1237,4.1698,4.1562,4.1957,4.2389,4.2389,4.2849,4.2903,4.1901,4.2677,4.3013,4.2008,4.2786,4.3504,4.3504,4.2544,4.1419,4.0313,4.0211,4.0134,3.9981,3.9981,3.9878,3.9697,3.9697,3.9697,3.9697,3.9772,3.9798,3.9798,3.9798,3.9798,3.9798,3.9722,3.9697,3.9697,3.9697,3.9697,3.9697,3.9697,3.9697,3.9697,3.9697,3.9697,3.9697,3.9697,3.9697,3.9697,3.9697,3.9697,3.9697,3.9898,3.9798,3.9798,3.9848,3.9346,3.8944,3.8944,3.8693,3.8291,3.7713,3.7387,3.7086,3.6883,3.6581,3.6405,3.6405,3.6405,3.6405,3.6405,3.6405,3.6405,3.6405,3.6885,3.7186,3.7186,3.8341,3.8919,3.8919,3.8617,3.8316,3.799,3.7186,3.6707,3.6405,3.6405,3.6405,3.6405,3.6405,3.7057,3.8017,3.7402,3.7861,3.8961,3.9464,3.9332,3.905,4.0232,4.0661,4.0831,4.1947,4.2029,4.1587,4.1587,4.0831,3.9842,3.9683,3.889,3.8062,3.7952,3.7566,3.7278,3.7796,3.8791,3.9651,3.964,4.0091,4.0484,4.0484,4.0743,4.0952,4.0952,4.1185,4.1169,4.0642,4.1019,4.1169,4.0592,4.1019,4.1369,4.1369,4.0895,4.0313,3.9749,3.9697,3.9697,3.9697,3.9697,3.9697,3.9697,3.9697,3.9697,3.9697,4.03,4.0475,4.0149,4.045,4.045,4.0149,3.9848,3.9697,3.9697,3.9697,3.9697,3.9697,3.9697,3.9697,3.9697,3.9697,3.9697,3.9697,3.9697,3.9697,3.9697,3.9697,3.9697,3.9697]}]]